[[{"header":{"parameterUnit":"m.s-1","parameterCategory":1,"la1":30.6,"la2":29.2853,"lo1":-89.7004,"lo2":-87.6739,"dy":0.0162,"dx":0.0183,"nx":112,"ny":82,"refTime":"2023-07-04T06:00:00:Z","depth":0,"parameterNumber":2,"parameterNumberName":"U-component_of_WINDS"},"data":[0.0,0.0,0.0,0.0,0.0,0.0,0.0,0.0,0.0,0.0,0.0,0.0,0.0,0.0,0.0,0.0,0.0,0.0,0.0,0.0,0.0,0.0,0.0,0.0,0.0,0.0,0.0,0.0,0.0,0.0,0.0,0.0,0.0,0.0,0.0,0.0,0.0,0.0,0.0,0.0,0.0,0.0,0.0,0.0,0.0,0.0,0.0,0.0,0.0,0.0,0.0,0.0,0.0,0.0,0.0,0.0,0.0,0.0,0.0,0.0,0.0,0.0,0.0,0.0,0.0,0.0,0.0,0.0,0.0,0.0,0.0,0.0,0.0,0.0,0.0,0.0,0.0,0.0,0.0,0.0,0.0,0.0,0.0,0.0,0.0,0.0,0.0,0.0,0.0,0.0,0.0,0.4274,0.4914,0.5377,0.5547,0.5504,0.5321,0.4894,0.0,0.0,0.0,0.0,0.0,0.0,0.0,0.0,0.0,0.0,0.0,0.0,0.0,0.0,0.0,0.0,0.0,0.0,0.0,0.0,0.0,0.0,0.0,0.0,0.0,0.0,0.0,0.0,0.0,0.0,0.0,0.0,0.0,0.0,0.0,0.0,0.0,0.0,0.0,0.0,0.0,0.0,0.0,0.0,0.0,0.0,0.0,0.0,0.0,0.0,0.0,0.0,0.0,0.0,0.0,0.0,0.0,0.0,0.0,0.0,0.0,0.0,0.0,0.0,0.0,0.0,0.0,0.0,0.0,0.0,0.0,0.0,0.0,0.0,0.0,0.0,0.0,0.0,0.0,0.0,0.0,0.0,0.0,0.0,0.0,0.0,0.0,0.0,0.0,0.0,0.0,0.0,0.0,0.0,0.0,0.0,0.0,0.0,0.0,0.0,0.0,0.0,0.0,0.0,0.4222,0.4762,0.4918,0.5087,0.5404,0.5152,0.492,0.4653,0.0,0.0,0.0,0.0,0.0,0.0,0.0,0.0,0.0,0.0,0.0,0.0,0.0,0.0,0.0,0.0,0.0,0.0,0.0,0.0,0.0,0.0,0.0,0.0,0.0,0.0,0.0,0.0,0.0,0.0,0.0,0.0,0.0,0.0,0.0,0.0,0.0,0.0,0.0,0.0,0.0,0.0,0.0,0.0,0.0,0.0,0.0,0.0,0.0,0.0,0.0,0.0,0.0,0.0,0.0,0.0,0.0,0.0,0.0,0.0,0.0,0.0,0.0,0.0,0.0,0.0,0.0,0.0,0.0,0.0,0.0,0.0,0.0,0.0,0.0,0.0,0.0,0.0,0.0,0.0,0.0,0.0,0.0,0.0,0.0,0.0,0.0,0.0,0.0,0.0,0.0,0.0,0.0,0.0,0.0,0.0,0.0,0.0,0.0,0.0,0.0,0.0,0.0,0.4389,0.4779,0.5214,0.564,0.5819,0.5731,0.5461,0.5124,0.4689,0.4428,0.0,0.0,0.0,0.0,0.0,0.0,0.0,0.0,0.0,0.0,0.0,0.0,0.0,0.0,0.0,0.0,0.0,0.0,0.0,0.0,0.0,0.0,0.0,0.0,0.0,0.0,0.0,0.0,0.0,0.0,0.0,0.0,0.0,0.0,0.0,0.0,0.0,0.0,0.0,0.0,0.0,0.0,0.0,0.0,0.0,0.0,0.0,0.0,0.0,0.0,0.0,0.0,0.0,0.0,0.0,0.0,0.0,0.0,0.0,0.0,0.0,0.0,0.0,0.0,0.0,0.0,0.0,0.0,0.0,0.0,0.0,0.0,0.0,0.0,0.0,0.0,0.0,0.0,0.0,0.0,0.0,0.0,0.0,0.0,0.0,0.0,0.0,0.0,0.0,0.0,0.0,0.0,0.0,0.0,0.0,0.0,0.0,0.0,0.0,0.0,0.0,0.0,0.4789,0.5197,0.5346,0.5902,0.6181,0.5988,0.5709,0.5422,0.4949,0.4731,0.0,0.0,0.0,0.0,0.0,0.0,0.0,0.0,0.0,0.0,0.0,0.0,0.0,0.0,0.0,0.0,0.0,0.0,0.0,0.0,0.0,0.0,0.0,0.0,0.0,0.0,0.0,0.0,0.0,0.0,0.0,0.0,0.0,0.0,0.0,0.0,0.0,0.0,0.0,0.0,0.0,0.0,0.0,0.0,0.0,0.0,0.0,0.0,0.0,0.0,0.0,0.0,0.0,0.0,0.0,0.0,0.0,0.0,0.0,0.0,0.0,0.0,0.0,0.0,0.0,0.0,0.0,0.0,0.0,0.0,0.0,0.0,0.0,0.0,0.0,0.0,0.0,0.0,0.0,0.0,0.0,0.0,0.0,0.0,0.0,0.0,0.0,0.0,0.0,0.0,0.0,0.0,0.0,0.0,0.0,0.0,0.0,0.0,0.0,0.0,0.0,0.0,0.4737,0.5167,0.4786,0.4817,0.5108,0.5731,0.5709,0.5583,0.5655,0.5701,0.0,0.0,0.0,0.0,0.0,0.0,0.0,0.0,0.0,0.0,0.0,0.0,0.0,0.0,0.0,0.0,0.0,0.0,0.0,0.0,0.0,0.0,0.0,0.0,0.0,0.0,0.0,0.0,0.0,0.0,0.0,0.0,0.0,0.0,0.0,0.0,0.0,0.0,0.0,0.0,0.0,0.0,0.0,0.0,0.0,0.0,0.0,0.0,0.0,0.0,0.0,0.0,0.0,0.0,0.0,0.0,0.0,0.0,0.0,0.0,0.0,0.0,0.0,0.0,0.0,0.0,0.0,0.0,0.0,0.0,0.0,0.0,0.0,0.0,0.0,0.0,0.0,0.0,0.0,0.0,0.0,0.0,0.0,0.0,0.0,0.0,0.0,0.0,0.0,0.0,0.0,0.0,0.0,0.0,0.0,0.0,0.0,0.0,0.0,0.0,0.0,0.0,0.5886,0.625,0.0,0.6493,0.6693,0.6604,0.6541,0.6405,0.6125,0.0,0.0,0.0,0.0,0.0,0.0,0.0,0.0,0.0,0.0,0.0,0.0,0.0,0.0,0.0,0.0,0.0,0.0,0.0,0.0,0.0,0.0,0.0,0.0,0.0,0.0,0.0,0.0,0.0,0.0,0.0,0.0,0.0,0.0,0.0,0.0,0.0,0.0,0.0,0.0,0.0,0.0,0.0,0.0,0.0,0.0,0.0,0.0,0.0,0.0,0.0,0.0,0.0,0.0,0.0,0.0,0.0,0.0,0.0,0.0,0.0,0.0,0.0,0.0,0.0,0.0,0.0,0.0,0.0,0.0,0.0,0.0,0.0,0.0,0.0,0.0,0.0,0.0,0.0,0.0,0.0,0.0,0.0,0.0,0.0,0.0,0.0,0.0,0.0,0.0,0.0,0.0,0.0,0.0,0.0,0.0,0.0,0.0,0.0,0.0,0.0,0.0,0.6003,0.6542,0.6902,0.0,0.7133,0.73,0.7139,0.7085,0.7015,0.6738,0.0,0.0,0.0,0.0,0.0,0.0,0.0,0.0,0.0,0.0,0.0,0.0,0.0,0.0,0.0,0.0,0.0,0.0,0.0,0.0,0.0,0.0,0.0,0.0,0.0,0.0,0.0,0.0,0.0,0.0,0.0,0.0,0.0,0.0,0.0,0.0,0.0,0.0,0.0,0.0,0.0,0.0,0.0,0.0,0.0,0.0,0.0,0.0,0.0,0.0,0.0,0.0,0.0,0.0,0.0,0.0,0.0,0.0,0.0,0.0,0.0,0.0,0.0,0.0,0.0,0.0,0.0,0.0,0.0,0.0,0.0,0.0,0.0,0.0,0.0,0.0,0.0,0.0,0.0,0.0,0.0,0.0,0.0,0.0,0.0,0.0,0.0,0.0,0.0,0.0,0.0,0.0,0.0,0.0,0.0,0.0,0.0,0.0,0.0,0.0,0.0,0.0,0.5916,0.6571,0.6864,0.6263,0.6209,0.648,0.7085,0.7139,0.7246,0.0,0.0,0.0,0.0,0.0,0.0,0.0,0.0,0.0,0.0,0.0,0.0,0.0,0.0,0.0,0.0,0.0,0.0,0.0,0.0,0.0,0.0,0.0,0.0,0.0,0.0,0.0,0.0,0.0,0.0,0.0,0.0,0.0,0.0,0.0,0.0,0.0,0.0,0.0,0.0,0.0,0.0,0.0,0.0,0.0,0.0,0.0,0.0,0.0,0.0,0.0,0.0,0.0,0.0,0.0,0.0,0.0,0.0,0.0,0.0,0.0,0.0,0.0,0.0,0.0,0.0,0.0,0.0,0.0,0.0,0.0,0.0,0.0,0.0,0.0,0.0,0.0,0.0,0.0,0.0,0.0,0.0,0.0,0.0,0.0,0.0,0.0,0.0,0.0,0.0,0.0,0.0,0.0,0.0,0.0,0.0,0.0,0.0,0.0,0.0,0.0,0.0,0.0,0.6996,0.7412,0.7628,0.7622,0.7622,0.7729,0.7996,0.7996,0.8103,0.8256,0.0,0.0,0.0,0.0,0.0,0.0,0.0,0.0,0.0,0.0,0.0,0.0,0.0,0.0,0.0,0.0,0.0,0.0,0.0,0.0,0.0,0.0,0.0,0.0,0.0,0.0,0.0,0.0,0.0,0.0,0.0,0.0,0.0,0.0,0.0,0.0,0.0,0.0,0.0,0.0,0.0,0.0,0.0,0.0,0.0,0.0,0.0,0.0,0.0,0.0,0.0,0.0,0.0,0.0,0.0,0.0,0.0,0.0,0.0,0.0,0.0,0.0,0.0,0.0,0.0,0.0,0.0,0.0,0.0,0.0,0.0,0.0,0.0,0.0,0.0,0.0,0.0,0.0,0.0,0.0,0.0,0.0,0.0,0.0,0.0,0.0,0.0,0.0,0.0,0.0,0.0,0.0,0.0,0.0,0.0,0.0,0.0,0.0,0.0,0.0,0.0,0.0,0.7487,0.7725,0.7955,0.8062,0.8168,0.8221,0.8321,0.8374,0.8421,0.8521,0.0,0.0,0.0,0.0,0.0,0.0,0.0,0.0,0.0,0.0,0.0,0.0,0.0,0.0,0.0,0.0,0.0,0.0,0.0,0.0,0.0,0.0,0.0,0.0,0.0,0.0,0.0,0.0,0.0,0.0,0.0,0.0,0.0,0.0,0.0,0.0,0.0,0.0,0.0,0.0,0.0,0.0,0.0,0.0,0.0,0.0,0.0,0.0,0.0,0.0,0.0,0.0,0.0,0.0,0.0,0.0,0.0,0.0,0.0,0.0,0.0,0.0,0.0,0.0,0.0,0.0,0.0,0.0,0.0,0.0,0.0,0.0,0.0,0.0,0.0,0.0,0.0,0.0,0.0,0.0,0.0,0.0,0.0,0.0,0.0,0.0,0.0,0.0,0.0,0.0,0.0,0.0,0.0,0.0,0.0,0.0,0.0,0.0,0.0,0.0,0.0,0.0,0.7525,0.7737,0.7901,0.7955,0.8115,0.8221,0.8275,0.8374,0.8427,0.8427,0.0,0.0,0.0,0.0,0.0,0.0,0.0,0.0,0.0,0.0,0.0,0.0,0.0,0.0,0.0,0.0,0.0,0.0,0.0,0.0,0.0,0.0,0.0,0.0,0.0,0.0,0.0,0.0,0.0,0.0,0.0,0.0,0.0,0.0,0.0,0.0,0.0,0.0,0.0,0.0,0.0,0.0,0.0,0.0,0.0,0.0,0.0,0.0,0.0,0.0,0.0,0.0,0.0,0.0,0.0,0.0,0.0,0.0,0.0,0.0,0.6142,0.0,0.0,0.0,0.0,0.0,0.0,0.0,0.0,0.0,0.0,0.0,0.0,0.0,0.0,0.0,0.0,0.0,0.0,0.0,0.0,0.0,0.0,0.0,0.0,0.0,0.0,0.0,0.0,0.0,0.0,0.0,0.0,0.0,0.0,0.0,0.0,0.0,0.0,0.0,0.0,0.0,0.781,0.7854,0.8008,0.8268,0.8321,0.8427,0.8646,0.8699,0.8699,0.8699,0.8692,0.0,0.0,0.0,0.0,0.0,0.0,0.0,0.0,0.0,0.0,0.0,0.0,0.0,0.0,0.0,0.0,0.0,0.0,0.0,0.0,0.0,0.0,0.0,0.0,0.0,0.0,0.0,0.0,0.0,0.0,0.0,0.0,0.0,0.0,0.0,0.0,0.0,0.0,0.0,0.0,0.0,0.0,0.0,0.0,0.0,0.0,0.0,0.0,0.0,0.0,0.0,0.0,0.0,0.0,0.0,0.0,0.0,0.0,0.0,0.0,0.6952,0.0,0.0,0.0,0.0,0.0,0.0,0.0,0.0,0.0,0.0,0.0,0.0,0.0,0.0,0.0,0.0,0.0,0.0,0.0,0.0,0.0,0.0,0.0,0.0,0.0,0.0,0.0,0.0,0.0,0.0,0.0,0.0,0.0,0.0,0.0,0.0,0.0,0.0,0.0,0.0,0.8184,0.824,0.841,0.8811,0.8886,0.9004,0.9121,0.9044,0.8964,0.891,0.8831,0.0,0.0,0.0,0.0,0.0,0.0,0.0,0.0,0.0,0.0,0.0,0.0,0.0,0.0,0.0,0.0,0.0,0.0,0.0,0.0,0.0,0.0,0.0,0.0,0.0,0.0,0.0,0.0,0.0,0.0,0.0,0.0,0.0,0.0,0.0,0.0,0.0,0.0,0.0,0.0,0.0,0.0,0.0,0.0,0.0,0.0,0.0,0.0,0.0,0.0,0.0,0.0,0.0,0.8615,0.8889,0.9162,0.9563,0.9988,1.0323,0.8577,0.808,0.8525,0.787,0.0,0.0,0.0,0.0,0.0,0.0,0.0,0.0,0.0,0.0,0.0,0.0,0.0,0.0,0.0,0.0,0.0,0.0,0.0,0.0,0.0,0.0,0.0,0.0,0.8543,0.883,0.0,0.0,0.0,0.0,0.0,0.0,0.0,0.0,0.0,0.0,0.0,0.0,0.8566,0.8631,0.884,0.924,0.9395,0.9518,0.9518,0.9402,0.9263,0.9157,0.9044,0.8878,0.0,0.0,0.0,0.0,0.0,0.0,0.0,0.0,0.0,0.0,0.0,0.0,0.0,0.0,0.0,0.0,0.0,0.0,0.0,0.0,0.0,0.0,0.0,0.0,0.0,0.0,0.0,0.0,0.0,0.0,0.0,0.0,0.4375,0.3988,0.0,0.0,0.0,0.0,0.0,0.0,0.0,0.0,0.0,0.0,0.0,0.0,0.0,0.7845,0.8128,0.9074,0.9514,0.9334,1.0048,1.0407,1.0449,1.0785,1.0942,1.0997,1.0713,0.0,0.964,0.934,0.0,0.0,0.0,0.0,0.0,0.0,0.0,0.0,0.0,0.0,0.0,0.0,0.0,0.0,0.0,0.0,0.0,0.0,0.0,0.0,0.0,0.0,0.8974,0.9214,0.9502,0.9694,0.0,0.9248,0.892,0.9054,0.9054,0.0,0.0,0.0,0.0,0.0,0.0,0.0,0.8779,0.8858,0.8989,0.9195,0.9389,0.9576,0.9686,0.9646,0.9626,0.9626,0.9593,0.9452,0.9137,0.9123,0.0,0.0,0.0,0.0,0.0,0.0,0.0,0.0,0.0,0.0,0.0,0.0,0.0,0.0,0.0,0.0,0.0,0.0,0.0,0.0,0.0,0.0,0.0,0.0,0.0,0.0,0.0,0.0,0.0,0.4832,0.4974,0.4693,0.5099,0.5316,0.0,0.0,0.0,0.0,0.0,0.0,0.0,0.0,0.0,0.8364,0.8933,0.9403,0.9898,1.052,1.0924,1.1105,1.1449,1.1612,1.163,1.2047,1.2155,1.2017,1.2174,1.1956,1.1401,1.0242,0.9412,0.8932,0.0,0.0,0.0,0.0,0.8825,0.9016,0.9424,0.9633,0.0,0.94,0.0,0.0,0.0,0.0,0.0,0.0,0.0,0.0,0.0,0.0,0.955,0.967,0.9904,1.0089,1.0089,0.9946,0.9627,0.0,0.9143,0.9116,0.9131,0.0,0.0,0.0,0.0,0.9023,0.9363,0.9432,0.9573,0.9964,1.0052,1.0119,1.0174,1.002,0.9927,0.9927,0.9773,0.9626,0.9492,0.9486,0.9372,0.0,0.0,0.0,0.0,0.0,0.0,0.0,0.0,0.0,0.0,0.0,0.0,0.0,0.0,0.0,0.0,0.0,0.0,0.0,0.0,0.0,0.0,0.0,0.0,0.0,0.0,0.0,0.0,0.5415,0.5698,0.5408,0.6111,0.641,0.0,0.0,0.0,0.0,0.0,0.0,0.7942,0.8741,0.9364,0.9766,1.0353,1.0924,1.1317,1.1733,1.2131,1.2524,1.259,1.262,1.2632,1.3043,1.3109,1.2922,1.3133,1.3067,1.2693,1.1172,1.0309,0.9838,0.95,0.9202,0.9124,0.9512,0.9765,0.9958,1.0556,1.0737,1.0695,1.0435,0.0,0.9706,0.9304,0.0,0.0,0.0,0.0,0.9596,0.9808,1.0077,1.0275,1.0275,1.0473,1.0701,1.0562,1.0526,1.0297,0.0,0.9337,0.929,0.9254,0.0,0.0,0.0,0.0,0.9332,0.9851,0.9826,0.9949,1.0471,1.0498,1.0561,1.0624,1.0354,1.0234,1.0234,1.0027,0.9873,0.98,0.9793,0.976,0.9686,0.0,0.0,0.0,0.0,0.0,0.0,0.0,0.0,0.0,0.0,0.0,0.0,0.0,0.0,0.0,0.0,0.0,0.0,0.0,0.0,0.0,0.0,0.0,0.0,0.0,0.0,0.0,0.0,0.0,0.5859,0.6458,0.0,0.0,0.0,0.0,0.8034,0.8628,0.9106,0.9388,1.0131,1.0635,1.0659,1.1431,1.1854,1.1878,1.265,1.3055,1.3085,1.3338,1.3453,1.3459,1.3483,1.3489,1.3477,1.3489,1.3344,1.3055,1.2445,1.1733,1.1033,1.1003,1.0689,1.0309,1.0822,1.1021,1.1111,1.1655,1.1842,1.1799,1.154,1.1093,1.0653,1.0628,1.0447,0.0,0.0,1.0641,1.0701,1.0966,1.1238,1.1449,1.1449,1.1655,1.1703,1.1184,1.1069,1.084,0.0,0.9832,0.9735,0.947,0.0,0.9411,0.9376,0.9503,0.9621,0.9877,0.9931,1.0098,1.0301,1.0301,1.0371,1.0561,1.0611,1.0598,1.0598,1.0584,1.0388,1.0107,1.0094,0.9967,0.9686,0.9686,0.0,0.0,0.0,0.0,0.0,0.0,0.0,0.0,0.0,0.0,0.0,0.0,0.0,0.0,0.0,0.0,0.0,0.0,0.0,0.0,0.0,0.0,0.0,0.0,0.0,0.0,0.0,0.0,0.7728,0.8238,0.0,0.8788,0.8931,0.9115,0.9304,0.9946,1.0526,1.0737,1.1407,1.1908,1.2258,1.2548,1.2856,1.3194,1.3483,1.3713,1.3882,1.3972,1.393,1.3773,1.3942,1.3924,1.3773,1.3948,1.3966,1.3863,1.367,1.2916,1.1866,1.1697,1.1522,1.1401,1.1751,1.1992,1.2192,1.2566,1.2693,1.2626,1.218,1.1673,1.1244,1.1244,1.1051,1.0888,1.1166,1.1365,1.1552,1.1817,1.1956,1.2035,1.2035,1.198,1.1823,1.1461,1.1383,1.1196,1.0562,1.0309,1.0141,0.9913,0.9933,0.9951,0.9938,1.0127,1.0309,1.0507,1.0657,1.0849,1.0982,1.0982,1.1049,1.1116,1.0949,1.0835,1.0835,1.0732,1.0577,1.0408,1.0401,1.0354,1.0247,1.0309,1.0154,0.0,0.0,0.0,0.0,0.0,0.0,0.0,0.0,0.0,0.0,0.0,0.0,0.0,0.0,0.0,0.0,0.0,0.0,0.0,0.0,0.0,0.0,0.0,0.0,0.0,0.0,0.8986,0.9291,0.9878,1.0311,1.0395,1.0485,1.0647,1.0731,1.1304,1.1769,1.2053,1.2566,1.2976,1.3248,1.3429,1.3646,1.3906,1.3996,1.4123,1.4298,1.4298,1.4208,1.4045,1.422,1.4201,1.4045,1.422,1.4298,1.4298,1.4298,1.3779,1.2958,1.2693,1.2536,1.2493,1.2753,1.2958,1.3151,1.3423,1.3465,1.3332,1.2964,1.2554,1.2204,1.2204,1.2011,1.1848,1.2125,1.2264,1.2385,1.265,1.2717,1.2699,1.2608,1.2457,1.2234,1.1872,1.1793,1.1661,1.1214,1.0767,1.0381,1.0251,1.0281,1.0311,1.0244,1.043,1.071,1.0889,1.096,1.1086,1.1286,1.1286,1.1224,1.1286,1.1095,1.1035,1.1136,1.0868,1.0755,1.0848,1.0755,1.0701,1.0701,1.0701,1.0735,1.0774,0.0,0.0,0.0,0.0,0.0,0.0,0.0,0.0,0.0,0.0,0.0,0.0,0.0,0.0,0.0,0.0,0.0,0.0,0.0,0.0,0.0,0.0,0.0,0.8753,0.9412,1.0091,1.0369,1.1317,1.1854,1.1618,1.1817,1.2071,1.233,1.2596,1.2862,1.3133,1.364,1.3803,1.355,1.4032,1.4177,1.3924,1.4171,1.4298,1.4298,1.4298,1.4298,1.4298,1.4298,1.4298,1.4298,1.4298,1.4298,1.4298,1.4298,1.4298,1.4268,1.4014,1.3761,1.3568,1.3827,1.3918,1.3954,1.4208,1.4129,1.3918,1.3918,1.3743,1.3525,1.3525,1.3344,1.3188,1.3441,1.3338,1.3206,1.3465,1.3525,1.3465,1.3212,1.3145,1.2988,1.2445,1.2324,1.2246,1.1974,1.1292,1.0671,1.0399,1.0351,1.0329,1.0397,1.0523,0.0,1.1002,1.0808,1.0761,1.1093,1.103,1.0962,1.1093,1.1042,1.1129,1.1423,1.1169,1.1136,1.1416,1.1156,1.1009,1.1009,1.1009,1.139,1.2158,0.0,0.0,0.0,0.0,0.0,0.0,0.0,0.0,0.0,0.0,0.0,0.0,0.0,0.0,0.0,0.0,0.0,0.0,0.0,0.0,0.0,0.0,0.9628,0.955,1.0395,1.1329,1.1974,1.2312,1.2614,1.294,1.2862,1.2904,1.3163,1.3429,1.361,1.3688,1.4008,1.4159,1.4087,1.422,1.4262,1.4189,1.4262,1.4298,1.4298,1.4118,1.4027,1.4027,1.4027,1.4027,1.4022,1.4202,1.4298,1.4298,1.4298,1.4298,1.4292,1.422,1.4141,1.4093,1.4165,1.4189,1.4201,1.4268,1.425,1.4189,1.4189,1.4014,1.3797,1.3797,1.3616,1.3423,1.3495,1.3598,1.3707,1.3779,1.3797,1.3779,1.3707,1.3544,1.326,1.2711,1.2596,1.2463,1.2011,1.1745,1.1443,1.0979,1.0894,1.0803,1.0615,1.0941,0.0,1.1297,1.1361,1.1401,1.1488,1.1397,1.1462,1.1673,1.1408,1.143,1.173,1.147,1.1343,1.1423,1.1349,1.1309,1.1309,1.1309,1.1776,0.0,0.0,0.0,0.0,0.0,0.0,0.0,0.0,0.0,0.0,0.0,0.0,0.0,0.0,0.0,0.0,0.0,0.0,0.0,0.0,0.0,0.0,1.0266,1.1009,1.1244,1.1805,1.2451,1.3127,1.3302,1.3495,1.3809,1.3707,1.3676,1.3833,1.3984,1.4069,1.4069,1.4214,1.4298,1.4298,1.4298,1.4298,1.4298,1.4208,1.4112,1.4118,1.3829,1.3835,1.3937,1.4043,1.4031,1.4124,1.4328,1.4407,1.4298,1.4298,1.4298,0.0,0.0,0.0,0.0,0.0,1.4298,1.4298,1.4298,1.4298,1.4298,1.4298,1.4189,1.4069,1.4069,1.3888,1.3701,1.3809,1.3876,1.393,1.4045,1.4069,1.4045,1.393,1.3791,1.3562,1.3133,1.2958,1.2789,1.2481,1.224,0.0,1.1673,1.1431,1.1196,1.101,1.1169,1.1292,1.1328,1.1489,1.1569,1.1629,1.1689,1.1834,1.1906,1.1706,0.0,0.0,0.0,1.161,1.161,1.161,0.0,0.0,0.0,1.2151,1.3254,0.0,0.0,0.0,1.4101,1.4281,0.0,0.0,0.0,0.0,0.0,0.0,0.0,0.0,0.0,0.0,0.0,0.0,0.0,0.0,0.0,0.0,1.1582,1.2638,1.3181,1.3308,1.3501,1.3906,1.4159,1.4298,1.4298,1.4298,1.4298,1.4298,1.4328,1.4328,1.4298,0.0,0.0,0.0,0.0,1.4346,1.4346,1.4093,1.4002,1.3978,1.3682,1.3682,1.3984,1.4207,1.4299,1.4401,1.4624,1.4576,1.434,1.431,1.4298,1.4298,1.4298,1.4298,1.4298,1.4298,1.4298,1.4298,1.4298,0.0,0.0,1.4298,1.4298,1.4298,1.4298,1.4135,1.3996,1.4232,1.4129,1.4002,1.4238,1.4298,1.4238,1.4008,1.3954,1.3876,1.3616,1.3375,1.32,1.3175,1.2753,1.2403,1.2403,1.1944,1.1498,1.1489,1.1289,1.1267,1.1326,1.1403,1.1446,1.1639,0.0,0.0,1.1883,1.1873,1.1991,1.2285,1.2058,1.1937,1.1971,1.1937,1.1937,1.1971,1.1971,1.2611,1.3719,1.3719,1.4511,1.6016,1.5534,1.5659,0.0,0.0,0.0,0.0,0.0,0.0,0.0,0.0,0.0,0.0,0.0,0.0,0.0,0.0,0.0,1.1166,1.2415,1.3465,1.3996,1.4449,1.46,1.4262,1.4268,1.4298,1.4298,1.4298,1.4298,1.4298,1.4509,1.4533,1.431,1.4515,1.4533,1.4304,1.4515,1.4636,1.4636,1.4542,1.4542,1.4544,0.0,0.0,1.4242,1.4289,1.4401,1.4637,1.4682,1.4684,1.4618,1.4389,1.4298,1.4298,1.4298,1.4298,1.4298,1.4298,1.4298,1.4298,1.4298,1.4298,1.4298,1.4298,1.4298,1.4298,1.4298,1.4262,0.0,1.4286,1.4262,1.4232,1.4286,1.4298,1.4286,1.4232,1.422,1.4153,1.3888,1.3791,1.3688,1.3477,1.3181,1.297,1.297,1.2343,1.183,1.1781,1.1769,1.1745,1.1775,1.1629,1.1441,1.1459,1.1297,1.1232,1.1448,1.154,1.1775,1.2063,1.2171,1.2325,1.264,1.2345,1.2331,1.2647,1.2654,1.3471,1.5239,1.5239,1.6071,1.7642,1.6334,1.6245,0.0,0.0,0.0,0.0,0.0,0.0,0.0,0.0,0.0,0.0,0.0,0.9436,0.0,0.0,1.163,1.2566,1.3387,1.4093,1.463,1.4823,1.4811,1.4539,1.4509,1.4455,1.431,1.4298,1.4298,1.4298,1.4425,1.4443,1.4304,1.4431,1.4509,1.4509,1.4642,1.4781,1.4914,1.4737,1.4731,1.4707,1.43,1.4199,1.4501,1.4501,1.4678,1.4898,1.4867,1.4914,1.4896,1.4618,1.4425,1.4298,1.4298,1.4298,1.4298,1.4298,1.4298,1.4298,1.4298,1.4298,1.4298,1.4298,1.4298,1.4298,1.4298,1.4298,1.4298,1.4298,1.4298,1.4298,1.4298,1.4298,1.4298,1.4298,1.4298,1.4262,1.4129,1.3996,1.387,1.3737,1.3501,1.332,1.332,1.288,1.2433,1.2161,1.2005,1.192,1.192,1.1769,1.1634,1.1581,1.1583,1.1577,1.1719,1.1874,1.214,1.2586,1.2536,1.2665,1.2966,1.2832,1.3049,1.3656,1.3656,1.4344,1.5742,1.5742,1.6353,1.7503,1.6729,1.6879,0.0,0.0,0.0,0.0,0.0,0.0,0.0,0.0,0.8661,0.8909,0.9926,1.1003,1.1709,1.2306,1.3,1.3918,1.4322,1.4684,1.5119,1.5046,1.4908,1.4805,1.4702,1.457,1.4395,1.4377,1.4377,1.4377,1.4425,1.4431,1.4383,1.4425,1.4533,1.4708,1.4817,1.4974,1.5185,1.4926,1.4818,1.4867,1.4561,1.4561,1.4873,1.4873,1.5005,1.5258,1.5203,1.5125,1.5016,1.4805,1.4552,1.4298,1.4298,1.4298,1.4298,1.4298,1.4298,1.4298,1.4298,1.4298,1.4298,1.4298,1.4298,1.4298,1.4298,1.4298,1.4298,1.4298,1.4298,1.4298,1.4298,1.4298,1.4298,1.4298,1.4298,1.4298,1.4298,1.4129,1.3978,1.3978,1.3767,1.3592,1.3592,1.3375,1.3031,1.2542,1.2246,1.2077,1.2077,1.1927,1.192,1.192,1.2026,1.2073,1.2157,1.2389,1.2746,1.3273,1.3006,1.2973,1.328,1.324,1.3543,1.4295,1.4523,1.5023,1.602,1.6167,1.6638,1.7421,1.7421,1.769,0.3955,0.4552,0.5191,0.5638,0.608,0.6914,0.0,0.0,0.984,1.1224,1.199,1.2542,1.2886,1.3562,1.4195,1.4564,1.504,1.5384,1.5445,1.5626,1.559,1.5119,1.4636,1.4431,1.4648,1.4666,1.4666,1.4666,1.489,1.4914,1.4684,1.489,1.4926,1.4727,1.5167,1.5421,1.5451,1.5382,1.5382,1.5457,1.5133,1.5139,1.5457,1.5457,1.5584,1.5789,1.5559,1.5191,1.4757,1.4733,1.4552,1.4298,1.4298,1.4298,1.4298,1.4298,1.4298,1.4298,1.4298,1.4298,1.4298,1.4298,1.4298,1.4298,1.4298,1.4298,1.4298,1.4298,1.4298,1.4298,1.4298,1.4298,1.4298,1.4298,1.4298,1.4298,1.4298,1.4274,1.4256,1.4256,1.4045,1.3863,1.3863,1.3646,1.3369,1.3079,1.2795,1.2614,1.2614,1.2385,1.2228,1.2228,1.2017,1.2123,1.2527,1.2765,1.3047,1.3492,1.332,1.3293,1.3499,1.3347,1.3327,1.3669,1.4465,1.5395,1.6579,1.7388,1.8196,1.9006,1.9006,1.8903,0.4186,0.4928,0.0,0.0,0.6493,0.7662,0.7706,0.9201,1.0852,1.1457,1.2774,1.396,1.4232,1.4545,1.4859,0.0,1.5354,1.5553,1.5704,1.5559,1.5409,1.5342,1.4721,1.434,1.4461,1.4618,1.4714,1.4714,1.4817,1.4902,1.4944,1.4902,1.4974,1.5167,1.5384,1.5572,1.5722,1.5737,1.5737,1.5722,1.5461,1.5473,1.5716,1.5409,1.5415,1.5662,1.5704,1.5517,1.5161,1.501,1.4787,1.4527,1.4358,1.4298,1.4298,1.4298,1.4298,1.4298,1.4298,1.4298,1.4298,1.4298,1.4298,1.4298,1.4298,1.4298,1.4298,1.4298,1.4298,1.4298,1.4298,1.4298,1.4298,1.4298,1.4298,1.4298,1.4298,1.4298,1.4298,1.4298,1.4208,1.4135,1.4135,1.3918,1.3707,1.3598,1.3218,1.2952,1.2952,1.2578,1.2312,1.2312,1.2216,1.238,1.287,1.2902,1.3173,1.3625,1.3539,1.3831,1.4613,1.4508,1.4976,1.6152,1.6557,1.7194,1.8238,1.8567,1.8975,1.9301,1.9301,1.921,0.4195,0.0,0.0,0.5325,0.6718,0.8055,0.7437,0.9221,1.108,1.1349,1.2725,1.4044,1.457,1.4645,1.4859,1.5469,1.5499,1.5565,1.5759,1.5457,1.5234,1.5276,1.4769,1.4383,1.4304,1.4552,1.4745,1.4817,1.4823,1.4938,1.5203,1.5034,1.5107,1.5487,1.5572,1.5698,1.5885,1.5891,1.5891,1.5885,1.5698,1.5704,1.5879,1.5493,1.5427,1.5614,1.5807,1.5741,1.5481,1.5294,1.5022,1.4696,1.4491,1.4364,1.4298,1.4298,1.4298,1.4298,1.4298,1.4298,1.4298,1.4298,1.4298,1.4298,1.4298,1.4298,1.4298,1.4298,1.4298,1.4298,1.4298,1.4298,1.4298,1.4298,1.4298,1.4298,1.4298,1.4298,1.4298,1.4298,1.4298,1.4298,1.4298,1.4141,1.4014,1.4014,1.3568,1.323,1.323,1.2825,1.2506,1.2433,1.2504,1.2667,1.3039,1.313,1.3349,1.3639,1.3715,1.4103,1.4977,1.5068,1.5718,1.7261,1.7513,1.8078,1.8975,1.9213,1.9301,1.9301,1.9301,1.9301,0.0,0.0,0.501,0.582,0.6609,0.756,0.8937,0.9756,1.041,1.1349,1.1831,1.2345,1.328,1.3631,1.4206,1.5285,1.5499,1.5499,1.5511,1.5493,1.53,1.4805,1.4721,1.46,0.0,1.4552,1.4823,1.5077,1.5095,1.5209,1.5475,1.5481,1.5481,1.5499,1.5747,1.5885,1.5891,1.5891,1.5891,1.5891,1.5885,1.5885,1.5891,1.5873,1.5867,1.5879,1.5885,1.5741,1.5499,1.5487,1.5185,1.4714,1.4708,1.4533,1.4298,1.4298,1.4298,1.4298,1.4298,1.4298,1.4298,1.4298,1.4298,1.4298,1.4298,1.4298,1.4298,1.4298,1.4298,1.4298,1.4298,1.4298,1.4298,1.4298,1.4298,1.4298,1.4298,1.4298,1.4298,1.4298,1.4298,1.4298,1.4298,1.4292,1.4286,1.4286,1.3839,1.3501,1.3501,1.3266,1.2994,1.2723,1.2954,1.3045,1.3137,1.3476,1.3639,1.3737,1.3906,1.4075,1.4173,1.4173,1.458,1.5477,1.6288,1.718,1.8078,1.8895,1.9301,1.9301,1.9301,1.9301,0.0,0.0,0.5638,0.6131,0.6903,0.7517,0.8138,0.9243,1.0385,1.0461,1.1102,1.172,1.2006,1.2618,1.3361,1.3757,1.4731,1.5439,1.5264,1.524,1.5107,1.4757,1.4552,0.0,0.0,0.0,0.0,1.5089,1.5107,1.5294,1.5734,1.5596,1.5578,1.5753,1.5843,1.5891,1.5891,1.5891,1.5891,1.5891,1.5891,1.5801,1.5638,1.5813,1.5795,1.5626,1.5626,1.5481,1.524,1.524,1.5137,1.498,1.498,1.4811,1.4576,1.4576,1.4461,1.4298,1.4298,1.4298,1.4298,1.4298,1.4298,1.4298,1.4298,1.4298,1.4298,1.4298,1.4298,1.4298,1.4298,1.4298,1.4298,1.4298,1.4298,1.4298,1.4298,1.4298,1.4298,1.4298,1.4298,1.4298,1.4298,1.4298,1.4298,1.4298,1.3851,1.3387,1.3019,1.2898,1.2813,1.2711,1.279,1.279,1.279,1.3137,1.3307,1.3307,1.3652,1.4068,1.4643,1.5387,1.6206,1.7107,1.7997,1.8567,1.8895,1.9143,1.9439,1.9723,1.9723,1.9861,0.0,0.5738,0.62,0.6646,0.7245,0.7728,0.7682,0.87,0.9625,0.9242,0.9682,1.0201,1.0306,1.0869,1.1542,1.2354,1.3389,1.4282,1.4787,1.4739,1.469,1.4714,1.4558,1.4407,0.0,0.0,0.0,1.4956,1.5059,1.5294,1.5728,1.568,1.5716,1.5885,1.5891,1.5891,1.5891,1.5891,1.5891,1.5891,1.5891,1.5801,1.565,1.591,1.5885,1.5644,1.5734,1.5626,1.539,1.539,1.533,1.5246,1.5246,1.5089,1.4841,1.4751,1.4606,1.4431,1.4334,1.4298,1.4298,1.4298,1.4298,1.4298,1.4298,1.4298,1.4298,1.4298,1.4298,1.4298,1.4298,1.4298,1.4298,1.4298,1.4298,1.4298,1.4298,1.4298,1.4298,1.4298,1.4298,1.4298,1.4298,1.4298,1.4262,1.4171,1.387,1.3495,1.3049,1.2994,1.2916,1.2723,1.2705,1.2705,1.2705,1.2966,1.3137,1.3137,1.3398,1.3977,1.4887,1.5628,1.6617,1.7844,1.8547,1.9111,1.9522,1.9522,1.9742,2.0136,1.9998,2.0145,0.589,0.6293,0.6624,0.7209,0.7665,0.7948,0.7815,0.813,0.8237,0.7795,0.766,0.7717,0.0,0.0,0.9013,1.1198,1.171,1.2377,1.4082,1.4129,1.4177,0.0,0.0,0.0,0.0,0.0,0.0,1.4739,0.0,1.5234,1.5523,1.5777,1.5916,1.5934,1.5934,1.5928,1.591,1.5897,1.5897,1.591,1.591,1.5903,1.5897,1.6163,1.6133,1.5885,1.6133,1.6091,1.5849,1.5861,1.5722,1.5499,1.5499,1.5342,1.5077,1.4817,1.4708,1.466,1.4389,1.4298,1.4298,1.4298,1.4298,1.4298,1.4298,1.4298,1.4298,1.4298,1.4298,1.4298,1.4298,1.4298,1.4298,1.4298,1.4298,1.4298,1.4298,1.4298,1.4298,1.4298,1.4298,1.4298,1.4298,1.4298,1.4214,1.3966,1.3924,1.3827,1.355,1.3513,1.3308,1.2783,1.2729,1.2717,1.2705,1.2966,1.3137,1.3137,1.3307,1.3815,1.4734,1.4734,1.5726,1.7644,1.8144,1.8837,1.988,1.988,2.0163,2.0539,2.0163,2.02,0.6352,0.6787,0.7187,0.7524,0.7562,0.7602,0.7475,0.7727,0.769,0.6985,0.6792,0.6682,0.0,0.0,0.0,0.9938,1.1775,0.0,1.4496,1.489,0.0,0.0,0.0,1.498,1.4908,1.4968,0.0,0.0,1.5071,1.539,1.6048,1.6145,1.6278,1.6489,1.6495,1.6392,1.6181,1.5988,1.5988,1.6181,1.6181,1.6079,1.5897,1.6163,1.603,1.5602,1.5668,1.5553,1.5324,1.5517,1.5559,1.5499,1.5499,1.5342,1.5077,1.4817,1.4582,1.4395,1.4322,1.4298,1.4298,1.4298,1.4298,1.4298,1.4298,1.4298,1.4298,1.4298,1.4298,1.4298,1.4298,1.4298,1.4298,1.4298,1.4298,1.4298,1.4298,1.4298,1.4298,1.4298,1.4298,1.4298,1.4298,1.4298,1.4274,1.4208,1.4195,1.4032,1.3574,1.3513,1.3387,1.3055,1.3019,1.2934,1.2723,1.279,1.3045,1.3711,1.3385,1.3886,1.5372,1.5628,1.6329,1.7846,1.8611,1.9309,2.0132,2.0132,2.0416,2.0952,2.0851,2.1025,0.6888,0.7249,0.7529,0.7668,0.7608,0.7418,0.7029,0.7069,0.6938,0.604,0.5839,0.0,0.0,0.0,0.0,0.0,0.0,0.0,1.3676,1.4388,1.492,0.0,1.5282,0.0,1.5119,1.5215,1.5324,0.0,1.5451,1.5644,1.6085,1.6338,1.6483,1.6513,1.6634,1.6628,1.6471,1.6193,1.6133,1.6278,1.6163,1.6036,1.5903,1.629,1.6175,1.5686,0.0,1.5807,1.5463,1.5608,1.5674,1.5674,1.5674,1.5578,1.5403,1.5028,1.4787,1.4636,1.4521,1.4401,1.4298,1.4298,1.4298,1.4298,1.4298,1.4298,1.4298,1.4298,1.4298,1.4298,1.4298,1.4298,1.4298,1.4298,1.4298,1.4298,1.4298,1.4298,1.4298,1.4298,1.4298,1.4298,1.4298,1.4298,1.4298,1.4298,1.4298,1.4189,1.3894,1.3761,1.3544,1.3163,1.3127,1.3012,1.2729,1.2705,1.3039,1.3957,1.3717,1.4355,1.6338,1.6513,1.7187,1.8566,1.9253,1.9795,2.0282,2.0454,2.0739,2.1207,2.1103,2.1337,0.7396,0.763,0.772,0.7706,0.7584,0.7285,0.6575,0.6395,0.6097,0.5176,0.0,0.4968,0.4671,0.0,0.5944,0.7102,0.0,1.0323,1.2422,1.3239,1.4163,1.539,1.5425,1.5249,1.5234,1.5451,1.5698,1.5928,1.6012,1.6048,1.6048,1.6495,1.6658,1.6447,1.6646,1.6767,1.6803,1.6453,1.6302,1.6332,1.6066,1.5922,1.591,1.6453,1.6404,1.5922,1.6423,0.0,1.5891,1.5891,1.5891,1.5885,1.5849,1.5837,1.5777,1.5288,1.5107,1.5077,1.4847,1.4606,1.4395,1.4364,1.4328,1.4298,1.4298,1.4298,1.4298,1.4298,1.4298,1.4298,1.4298,1.4298,1.4298,1.4298,1.4298,1.4298,1.4298,1.4298,1.4298,1.4298,1.4298,1.4298,1.4298,1.4298,1.4298,1.4298,1.4298,1.4298,1.4298,1.4099,1.3767,1.3278,1.323,1.3103,1.2783,1.2759,1.3076,1.3964,1.4082,1.5064,1.7231,1.7363,1.8066,1.9479,1.9826,2.0202,2.0413,2.0685,2.0952,2.1383,2.1189,2.1295,0.7614,0.7755,0.7818,0.7725,0.7456,0.7056,0.6439,0.614,0.0,0.0,0.0,0.48,0.434,0.4892,0.0,0.7476,0.0,0.0,0.0,0.0,1.3195,0.0,0.0,0.0,0.0,0.0,0.0,0.0,0.0,1.6881,1.6881,1.6972,1.7098,1.7267,1.7111,1.7129,1.7346,1.664,1.6398,1.6622,1.6344,1.6097,1.591,1.6453,1.6404,1.5903,1.6217,0.0,1.5891,1.5891,1.5891,1.5867,1.565,1.5565,1.5529,1.5221,1.5107,1.5101,1.5059,1.501,1.4932,1.4714,1.4485,1.4298,1.4298,1.4298,1.4298,1.4298,1.4298,1.4298,1.4298,1.4298,1.4298,1.4298,1.4298,1.4298,1.4298,1.4298,1.4298,1.4298,1.4298,1.4298,1.4298,1.4298,1.4298,1.4298,1.4298,1.4298,1.4298,1.4256,1.4111,1.3803,1.3767,1.3574,1.3091,1.3049,1.3293,1.3977,1.4282,1.5297,1.7239,1.7594,1.8349,1.9632,1.971,2.0067,2.0639,2.0729,2.0854,2.1087,2.1016,2.1212,0.7722,0.7831,0.7828,0.7652,0.7285,0.6766,0.598,0.0,0.0,0.0,0.0,0.4232,0.3917,0.0,0.0,0.0,0.0,0.0,0.0,0.0,0.0,0.0,0.0,0.0,0.0,0.0,0.0,0.0,0.0,1.7092,1.7092,1.7092,1.7213,1.7473,1.7231,1.7219,1.7479,1.6827,1.6567,1.6694,1.6278,1.6012,1.5903,1.6302,1.6266,1.5903,1.6169,0.0,1.5891,1.5891,1.5891,1.5879,1.5753,1.5698,1.5674,1.5409,1.5312,1.5312,1.5312,1.5221,1.5113,1.5119,1.4847,1.4485,1.434,1.4298,1.4298,1.4298,1.4298,1.4298,1.4298,1.4298,1.4298,1.4298,1.4298,1.4298,1.4298,1.4298,1.4298,1.4298,1.4298,1.4298,1.4298,1.4298,1.4298,1.4298,1.4298,1.4298,1.4298,1.4298,1.4195,1.3936,1.3906,1.3749,1.3363,1.3326,1.3622,1.4348,1.4636,1.5402,1.6888,1.7128,1.764,1.8451,1.9011,1.9373,1.972,2.0374,2.0744,2.0826,2.0907,2.1087,0.7712,0.7834,0.7807,0.7546,0.7119,0.651,0.5548,0.4958,0.0,0.0,0.3621,0.3767,0.3672,0.0,0.0,0.0,0.0,0.0,0.0,0.0,0.0,0.0,0.0,0.0,0.0,0.0,0.0,0.0,0.0,0.0,1.7177,1.7177,1.7267,1.7473,1.7286,1.7249,1.74,1.6936,1.667,1.6604,1.6121,1.5891,1.5897,1.6163,1.6139,1.5903,1.6169,0.0,0.0,1.5891,1.5891,1.5891,1.5891,1.5891,1.5861,1.5656,1.5584,1.5584,1.5584,1.5445,1.53,1.5451,1.5143,1.4684,1.4521,1.4431,1.4389,1.4389,1.4389,1.4377,1.431,1.4298,1.4298,1.4298,1.4298,1.4298,1.4298,1.4298,1.4298,1.4298,1.4298,1.4298,1.4298,1.4298,1.4298,1.4298,1.4298,1.4298,1.4298,1.4298,1.422,1.4008,1.399,1.3882,1.3622,1.3598,1.3841,1.4495,1.4804,1.5382,1.6358,1.6711,1.6948,1.7289,1.8041,1.8511,1.8511,1.972,2.0275,2.0283,2.0637,2.0907,0.751,0.7706,0.7788,0.744,0.6991,0.6385,0.5423,0.0,0.0,0.0,0.3683,0.3793,0.3782,0.394,0.0,0.0,0.0,0.0,0.0,0.0,0.0,0.0,0.0,0.0,0.0,0.0,0.0,0.0,0.0,0.0,1.7449,1.7449,1.7455,1.7485,1.7461,1.734,1.7129,1.6845,1.6573,1.6314,1.6024,1.5891,1.5897,1.6163,1.6139,1.5903,1.6169,0.0,0.0,1.5891,1.5891,1.5891,1.5891,1.5891,1.5885,1.5861,1.5855,1.5855,1.5855,1.5837,1.5783,1.5565,1.5143,1.4757,1.4968,1.4865,1.4678,1.4678,1.4678,1.4618,1.4364,1.4298,1.4298,1.4298,1.4298,1.4298,1.4298,1.4298,1.4298,1.4298,1.4298,1.4298,1.4298,1.4298,1.4298,1.4298,1.4298,1.4298,1.4298,1.4298,1.4286,1.4262,1.4262,1.4153,1.3894,1.387,1.3767,1.3616,1.4728,1.5429,1.5548,1.6636,1.7267,1.7296,1.7382,1.7475,1.7475,1.8511,1.898,1.898,1.9911,2.0473,0.7258,0.7532,0.7589,0.7298,0.6757,0.6102,0.5355,0.0,0.0,0.3583,0.3586,0.3669,0.359,0.3747,0.3978,0.4243,0.0,0.0,0.0,0.0,0.0,0.0,0.0,0.0,0.0,0.0,0.0,0.0,0.0,0.0,1.7485,1.7485,1.7485,1.7485,1.7485,1.7436,1.7328,1.6911,1.6646,1.6531,1.6097,1.5891,1.5891,1.6,1.5988,1.5897,1.6,0.0,0.0,1.5891,1.5891,1.5891,1.5891,1.5891,1.5891,1.5891,1.5891,1.5891,1.5891,1.5891,1.5873,1.5771,1.5487,1.5179,1.5125,1.4926,1.4751,1.4908,1.495,1.489,1.4618,1.4425,1.4298,1.4298,1.4298,1.4298,1.4298,1.4298,1.4298,1.4298,1.4298,1.4298,1.4298,1.4298,1.4298,1.4298,1.4298,1.4298,1.4298,1.4298,1.4298,1.4298,1.4298,1.4256,1.4153,1.4141,1.4099,1.399,1.4452,1.4697,1.4697,1.5177,1.5514,1.5514,1.6075,1.6358,1.6358,1.739,1.7855,1.7948,1.8888,1.9446,0.6744,0.7157,0.7345,0.7065,0.651,0.5866,0.0,0.0,0.0,0.3539,0.3496,0.3515,0.3466,0.3632,0.3744,0.3796,0.0,0.4415,0.0,0.0,0.0,0.0,0.0,0.0,0.0,0.0,0.0,0.0,0.0,0.0,1.7485,1.7406,1.737,1.737,1.737,1.7292,1.7129,1.6761,1.6537,1.6459,1.6072,1.5891,1.5891,1.5891,1.5891,1.5891,1.5891,0.0,0.0,1.5791,1.5678,1.5678,1.5678,1.5678,1.5791,1.5791,1.5785,1.5891,1.5891,1.5891,1.5879,1.5801,1.565,1.5463,1.5282,1.5095,1.4986,1.5173,1.5167,1.5065,1.4877,1.4684,1.4515,1.4437,1.4419,1.4395,1.4316,1.4298,1.4298,1.4298,1.4298,1.4298,1.4298,1.4298,1.4298,1.4298,1.4298,1.4298,1.4298,1.4298,1.4298,1.4298,1.4298,1.4298,1.4298,1.4298,1.4298,1.4298,1.4298,1.4298,1.4298,1.4298,1.4298,1.4298,1.4956,1.533,1.533,1.6358,1.6828,1.6915,1.8226,1.898,0.5885,0.6524,0.7073,0.6714,0.6263,0.5716,0.0,0.0,0.0,0.3632,0.3487,0.3439,0.3561,0.3583,0.3638,0.3796,0.3906,0.0,0.0,0.0,0.0,0.0,0.0,0.0,0.0,0.0,0.0,0.0,0.0,0.0,1.7485,1.7237,1.7092,1.7092,1.7092,1.6839,1.6296,1.629,1.6151,1.5897,1.5891,1.5891,1.5891,1.5891,1.5891,0.0,0.0,0.0,0.0,1.5482,1.5261,1.5041,1.5041,1.5261,1.5482,1.5482,1.5684,1.5891,1.5891,1.5891,1.5849,1.559,1.5499,1.5499,1.5493,1.5493,1.5493,1.5493,1.5306,1.5107,1.5107,1.5101,1.5034,1.4775,1.4714,1.4636,1.4358,1.4298,1.4298,1.4298,1.4298,1.4298,1.4298,1.4298,1.4298,1.4298,1.4298,1.4298,1.4298,1.4298,1.4298,1.4298,1.4298,1.4298,1.4298,1.4298,1.4298,1.4298,1.4298,1.4298,1.4298,1.4298,1.4298,1.4298,1.4298,1.4298,1.4298,1.533,1.5798,1.5886,1.7855,1.9355,0.505,0.5428,0.5646,0.5447,0.5102,0.4727,0.4414,0.0,0.0,0.3368,0.3303,0.3289,0.3327,0.3403,0.3512,0.3786,0.3845,0.0,0.0,0.0,0.0,0.0,0.0,0.0,0.0,0.0,0.0,0.0,0.0,0.0,1.6966,1.7038,1.7092,1.7092,1.6917,1.6742,1.6567,1.6374,1.6241,1.6151,1.5976,1.5891,1.5891,1.5891,1.5791,0.0,0.0,0.0,0.0,1.5304,1.5269,1.4807,1.4973,1.5041,1.5148,1.5374,1.5589,1.569,1.5891,1.5891,1.5879,1.5795,1.5765,1.5765,1.5765,1.5644,1.5535,1.5716,1.5578,1.5372,1.5372,1.5107,1.4823,1.4739,1.457,1.4407,1.4316,1.4298,1.4298,1.4298,1.4298,1.4298,1.4298,1.4298,1.4298,1.4298,1.4298,1.4298,1.4298,1.4298,1.4298,1.4298,1.4298,1.4298,1.4298,1.4298,1.4298,1.4298,1.4298,1.4298,1.4298,1.4298,1.4298,1.4298,1.4298,1.4298,1.4298,1.458,1.514,1.5798,1.6452,1.7289,0.0,0.4648,0.4849,0.4727,0.4463,0.0,0.0,0.0,0.0,0.0,0.3183,0.3131,0.327,0.3349,0.3466,0.3716,0.3782,0.0,0.0,0.0,0.0,0.0,0.0,0.0,0.0,0.0,0.0,0.0,0.0,0.0,1.6724,1.6857,1.6893,1.6791,1.6628,1.6495,1.6398,1.6223,1.6133,1.6133,1.597,1.5837,1.5747,1.5843,1.5731,0.0,0.0,0.0,0.0,1.4947,1.4813,1.4378,1.4624,1.4719,1.4821,1.5041,1.5261,1.5482,1.5577,1.5678,1.5873,1.5665,1.5635,1.5759,1.5861,1.5704,1.5529,1.5698,1.5626,1.5499,1.5499,1.5258,1.501,1.501,1.4727,1.4455,1.4455,1.437,1.4298,1.4298,1.4298,1.4298,1.4298,1.4298,1.4298,1.4298,1.4298,1.4298,1.4298,1.4298,1.4298,1.4298,1.4298,1.4298,1.4298,1.4298,1.4298,1.4298,1.4298,1.4298,1.4298,1.4298,1.4298,1.4298,1.4298,1.4298,1.4298,1.4298,1.486,1.5798,1.5798,1.6358,0.0,0.0,0.0,0.0,0.0,0.0,0.0,0.0,0.0,0.0,0.0,0.0,0.0,0.3395,0.3436,0.3585,0.3762,0.0,0.0,0.0,0.0,0.0,0.0,0.0,0.0,0.0,0.0,0.0,0.0,0.0,1.6658,1.6658,1.6543,1.626,1.6254,1.6139,1.5891,1.5891,1.5891,1.5891,1.5891,1.5753,1.5505,1.5753,1.5505,0.0,0.0,0.0,0.0,1.4217,1.4102,1.3793,1.4062,1.4266,1.4578,1.4595,1.4934,1.5369,1.5148,1.5357,1.5743,1.5281,1.5315,1.5572,1.5813,1.5722,1.5529,1.5529,1.5529,1.5523,1.5499,1.5487,1.5469,1.5445,1.5059,1.469,1.469,1.4479,1.4298,1.4298,1.4298,1.4298,1.4298,1.4298,1.4298,1.4298,1.4298,1.4298,1.4298,1.4298,1.4298,1.4298,1.4298,1.4298,1.4298,1.4298,1.4298,1.4298,1.4298,1.4298,1.4298,1.4298,1.4298,1.4298,1.4298,1.4298,1.4298,1.4298,1.4765,1.5704,1.5704,1.617,0.3086,0.0,0.3332,0.3301,0.0,0.0,0.0,0.0,0.0,0.0,0.0,0.0,0.0,0.0,0.0,0.0,0.0,0.0,0.0,0.0,0.0,0.0,0.0,0.0,0.0,0.0,0.0,0.0,0.0,1.6128,1.6103,1.5834,1.5822,1.5988,1.5773,1.5749,1.5891,1.5891,1.5791,1.5583,1.5583,1.5441,1.5181,1.5042,1.4827,0.0,0.0,0.0,1.3388,1.3777,1.3744,1.3313,1.3739,1.3906,1.4033,1.4426,1.4713,1.4821,1.4928,1.5256,1.5577,1.5713,1.5795,1.5807,1.5867,1.5849,1.5801,1.5801,1.5801,1.5753,1.5553,1.5348,1.5149,1.495,1.4642,1.4395,1.4395,1.434,1.4298,1.4298,1.4298,1.4298,1.4298,1.4298,1.4298,1.4298,1.4298,1.4298,1.4298,1.4298,1.4298,1.4298,1.4298,1.4298,1.4298,1.4298,1.4298,1.4298,1.4298,1.4298,1.4298,1.4298,1.4298,1.4298,1.4298,1.4298,1.4298,1.4298,1.4388,1.4675,1.4675,1.4765,0.2912,0.2908,0.2952,0.2952,0.2952,0.2968,0.0,0.0,0.0,0.0,0.0,0.0,0.0,0.0,0.0,0.0,0.0,0.0,0.0,0.0,0.0,0.0,0.0,0.0,0.0,0.0,0.0,0.0,0.0,1.5661,1.5708,1.5493,1.5401,1.5476,1.5363,1.5369,1.5684,1.5559,1.5453,1.5261,1.5024,1.4833,1.4688,1.4596,1.4248,0.0,0.0,0.0,1.3114,1.3445,1.3317,1.3152,1.3631,1.382,1.3852,1.4308,1.4498,1.4606,1.4611,1.4826,1.5148,1.5357,1.5577,1.5684,1.5684,1.5791,1.5861,1.5741,1.571,1.568,1.5535,1.5396,1.5282,1.5264,1.4956,1.4672,1.4672,1.4672,1.4594,1.4346,1.4401,1.4449,1.4322,1.4298,1.4298,1.4298,1.4298,1.4298,1.4298,1.4298,1.4298,1.4298,1.4298,1.4298,1.4298,1.4298,1.4298,1.4298,1.4298,1.4298,1.4298,1.4298,1.4298,1.4298,1.4298,1.4298,1.4298,1.4298,1.4298,1.4298,1.4298,1.4298,0.2957,0.2982,0.3043,0.2989,0.2986,0.3002,0.0,0.0,0.0,0.0,0.0,0.0,0.0,0.0,0.0,0.0,0.0,0.0,0.0,0.0,0.0,0.0,0.0,0.0,0.0,0.0,0.0,0.0,0.0,1.5264,1.5386,1.5241,1.5149,1.5041,1.4894,1.4984,1.5316,1.5089,1.496,1.4809,1.4378,1.4259,1.4225,1.4117,1.3881,1.3452,0.0,0.0,1.3055,1.3055,1.3055,1.3098,1.3577,1.3744,1.3744,1.4029,1.4234,1.4449,1.4283,1.4401,1.4606,1.4928,1.5261,1.5482,1.5482,1.569,1.5843,1.5626,1.5559,1.5547,1.5511,1.5469,1.5493,1.5716,1.5403,1.5046,1.5046,1.5077,1.4944,1.4401,1.4521,1.4624,1.4346,1.4298,1.4298,1.4298,1.4298,1.4298,1.4298,1.4298,1.4298,1.4298,1.4298,1.4298,1.4298,1.4298,1.4298,1.4298,1.4298,1.4298,1.4298,1.4298,1.4298,1.4298,1.4298,1.4298,1.4298,1.4298,1.4298,1.4298,1.4298,1.4298,0.3129,0.3243,0.3275,0.2971,0.2971,0.3002,0.0,0.0,0.0,0.0,0.0,0.0,0.0,0.0,0.0,0.0,0.0,0.0,0.0,0.0,0.0,0.0,0.0,0.0,0.0,0.0,0.0,0.0,0.0,1.4553,1.5041,1.465,1.4548,1.5041,1.4624,1.4411,1.4517,1.4693,1.4579,1.4082,1.4004,1.3864,1.3663,1.3363,1.3232,1.3105,0.0,1.291,1.2813,1.2813,1.2813,1.2861,1.3346,1.34,1.3265,1.3712,1.3879,1.4006,1.4426,1.4606,1.4606,1.4928,1.5261,1.5482,1.5482,1.569,1.5879,1.5843,1.5831,1.5777,1.5559,1.533,1.5179,1.5215,1.4998,1.4775,1.4775,1.495,1.4944,1.4401,1.4521,1.4624,1.4346,1.4298,1.4298,1.4298,1.4298,1.4298,1.4298,1.4298,1.4298,1.4298,1.4298,1.4298,1.4298,1.4298,1.4298,1.4298,1.4298,1.4298,1.4298,1.4298,1.4298,1.4298,1.4298,1.4298,1.4298,1.4298,1.4298,1.4298,1.4298,1.4298,0.37,0.3685,0.3624,0.3938,0.3996,0.3834,0.0,0.0,0.0,0.0,0.0,0.0,0.0,0.0,0.0,0.0,0.0,0.0,0.0,0.0,0.0,0.0,0.0,0.0,0.0,0.0,0.0,0.0,0.0,0.0,1.4629,1.4084,1.3908,1.4217,1.4008,1.3784,1.3642,1.3744,1.3755,1.3669,1.3407,1.3363,1.3505,1.3138,1.303,1.3133,0.0,1.2764,1.277,1.2899,1.2947,1.298,1.334,1.341,1.3335,1.3556,1.3717,1.3836,1.4049,1.4388,1.46,1.4713,1.5148,1.5482,1.5482,1.569,1.5891,1.5891,1.5789,1.5686,1.5704,1.5409,1.5179,1.5463,1.533,1.5143,1.5143,1.5348,1.533,1.4654,1.4745,1.4841,1.457,1.4395,1.4346,1.4497,1.4395,1.4298,1.4298,1.4298,1.4298,1.4298,1.4298,1.4298,1.4298,1.4298,1.4298,1.4298,1.4298,1.4298,1.4298,1.4298,1.4298,1.4298,1.4298,1.4298,1.4298,1.4298,1.4298,1.4298,1.4298,1.458,0.4268,0.4157,0.4098,0.4771,0.0,0.4442,0.0,0.0,0.0,0.0,0.0,0.0,0.0,0.0,0.0,0.0,0.0,0.0,0.0,0.0,0.0,0.0,0.0,0.0,0.0,0.0,0.0,0.0,0.0,0.0,1.4173,1.3784,1.348,1.348,1.3421,1.3303,1.3109,1.305,1.312,1.3308,1.2937,1.2953,1.3303,1.2985,1.2937,1.3098,1.298,1.2931,1.2942,1.312,1.319,1.3217,1.3464,1.3529,1.348,1.348,1.355,1.3669,1.3782,1.415,1.4522,1.4522,1.4995,1.5482,1.5482,1.569,1.5891,1.5891,1.5656,1.5481,1.5807,1.5547,1.5318,1.5777,1.5692,1.5499,1.5499,1.5704,1.5656,1.4871,1.4932,1.5004,1.4672,1.4437,1.437,1.4588,1.4437,1.4298,1.4298,1.4298,1.4298,1.4298,1.4298,1.4298,1.4298,1.4298,1.4298,1.4298,1.4298,1.4298,1.4298,1.4298,1.4298,1.4298,1.4298,1.4298,1.4298,1.4298,1.4298,1.4298,1.4298,1.4669,0.453,0.4562,0.4597,0.4785,0.0,0.0,0.0,0.0,0.0,0.0,0.0,0.0,0.0,0.0,0.0,0.0,0.0,0.0,0.0,0.0,0.0,0.0,0.0,0.0,0.0,0.0,0.0,0.0,0.0,0.0,1.3929,1.3696,1.348,1.348,1.3254,1.312,1.3104,1.2894,1.2797,1.2813,1.278,1.278,1.2818,1.3001,1.3087,1.3114,1.333,1.3427,1.3427,1.3443,1.3453,1.3475,1.3706,1.3663,1.348,1.348,1.334,1.3217,1.3663,1.4046,1.4278,1.4278,1.4858,1.5482,1.5482,1.569,1.5891,1.5891,1.5523,1.5252,1.5759,1.568,1.5541,1.5819,1.5692,1.5499,1.5499,1.5704,1.5656,1.4871,1.4932,1.4944,1.4419,1.431,1.4304,1.4322,1.431,1.4298,1.4298,1.4298,1.4298,1.4298,1.4298,1.4298,1.4298,1.4298,1.4298,1.4298,1.4298,1.4298,1.4298,1.4298,1.4298,1.4298,1.4298,1.4298,1.4298,1.4298,1.4298,1.4298,1.4298,1.4292,0.5226,0.5314,0.5376,0.5831,0.0,0.0,0.0,0.0,0.0,0.0,0.0,0.0,0.0,0.0,0.0,0.0,0.0,0.0,0.0,0.0,0.0,0.0,0.0,0.0,0.0,0.0,0.0,0.0,0.0,0.0,1.3864,1.3513,1.3226,1.3226,1.304,1.2888,1.2888,1.2807,1.2764,1.2764,1.2764,1.284,1.2974,1.2915,1.2969,1.3104,1.3055,1.3034,1.3044,1.319,1.3243,1.3254,1.334,1.3233,1.305,1.3195,1.3287,1.3362,1.3751,1.4123,1.4537,1.4591,1.4912,1.5201,1.5201,1.5419,1.5614,1.5451,1.5378,1.5433,1.5795,1.5324,1.4902,1.5505,1.5324,1.5059,1.5221,1.5463,1.5511,1.5046,1.504,1.504,1.4835,1.4521,1.4413,1.4751,1.4515,1.4358,1.4533,1.4407,1.4298,1.4298,1.4298,1.4298,1.4298,1.4298,1.4298,1.4298,1.4298,1.4298,1.4298,1.4298,1.4298,1.4298,1.4298,1.4298,1.4298,1.4298,1.4298,1.4298,1.4298,1.4675,0.5777,0.5825,0.5914,0.0,0.0,0.0,0.0,0.0,0.0,0.0,0.0,0.0,0.0,0.0,0.0,0.0,0.0,0.0,0.0,0.0,0.0,0.0,0.0,0.0,0.0,0.0,0.0,0.0,0.0,0.0,0.0,1.3436,1.3249,1.3249,1.305,1.2861,1.2861,1.2861,1.2764,1.2764,1.2764,1.2845,1.299,1.291,1.2958,1.3098,1.3023,1.299,1.3001,1.3157,1.3222,1.3211,1.3136,1.3007,1.2888,1.305,1.3268,1.3366,1.3645,1.4083,1.4504,1.4529,1.4832,1.5107,1.5107,1.5234,1.5342,1.5155,1.5179,1.5312,1.5572,1.5101,1.469,1.5246,1.5101,1.489,1.5071,1.5246,1.5294,1.5034,1.5052,1.5083,1.4998,1.4678,1.4588,1.504,1.4721,1.4497,1.469,1.4552,1.4395,1.4304,1.4298,1.4298,1.4298,1.4298,1.4298,1.4298,1.4298,1.4298,1.4298,1.4298,1.4298,1.4298,1.4298,1.4298,1.4298,1.4298,1.4298,1.4298,1.4298,1.486,0.6019,0.6024,0.0,0.0,0.0,0.0,0.0,0.0,0.0,0.0,0.0,0.0,0.0,0.0,0.0,0.0,0.0,0.0,0.0,0.0,0.0,0.0,0.0,0.0,0.0,0.0,0.0,0.0,0.0,0.0,0.0,1.3636,1.3539,1.3539,1.3244,1.3147,1.3147,1.2861,1.2764,1.2764,1.2764,1.2764,1.277,1.3001,1.3104,1.3114,1.3362,1.3475,1.3475,1.3475,1.3475,1.3448,1.32,1.3104,1.3104,1.3104,1.3057,1.3186,1.3424,1.3811,1.4313,1.4313,1.4683,1.5101,1.5101,1.5101,1.5107,1.5101,1.4914,1.4775,1.5034,1.5101,1.5101,1.5107,1.5101,1.5101,1.5101,1.5101,1.5028,1.4769,1.4932,1.5028,1.4769,1.4721,1.4805,1.5071,1.4883,1.4714,1.4714,1.4714,1.4606,1.4328,1.4298,1.4298,1.4298,1.4298,1.4298,1.4298,1.4298,1.4298,1.4298,1.4298,1.4298,1.4298,1.4298,1.4298,1.4298,1.4298,1.4298,1.4298,1.4298,1.486,0.5859,0.0,0.0,0.0,0.0,0.0,0.0,0.0,0.0,0.0,0.0,0.0,0.0,0.0,0.0,0.0,0.0,0.0,0.0,0.0,0.0,0.0,0.0,0.0,0.0,0.0,0.0,0.0,0.0,0.0,0.0,1.3649,1.3454,1.3454,1.3442,1.3244,1.3147,1.305,1.2953,1.2764,1.2764,1.2764,1.2764,1.2834,1.2867,1.2867,1.2942,1.2974,1.2974,1.2974,1.2974,1.2969,1.2894,1.2867,1.2883,1.3044,1.306,1.321,1.3584,1.391,1.408,1.429,1.4376,1.4539,1.4539,1.4678,1.4793,1.4594,1.4624,1.469,1.457,1.4539,1.4588,1.4787,1.4684,1.4539,1.4539,1.469,1.4811,1.4733,1.4932,1.5083,1.501,1.4992,1.5083,1.5342,1.5004,1.4648,1.4443,1.4425,1.4389,1.4304,1.4298,1.4298,1.4298,1.4298,1.4298,1.4298,1.4298,1.4298,1.4298,1.4298,1.4298,1.4298,1.4298,1.4298,1.4298,1.4298,1.4298,1.4298,1.4298,1.486,0.6247,0.0,0.0,0.0,0.0,0.0,0.0,0.0,0.0,0.0,0.0,0.0,0.0,0.0,0.0,0.0,0.0,0.0,0.0,0.0,0.0,0.0,0.0,0.0,0.0,0.0,0.0,0.0,0.0,0.0,0.0,1.3564,1.3466,1.3466,1.3438,1.3282,1.3093,1.2903,1.2713,1.2624,1.2527,1.2533,1.2624,1.2721,1.2764,1.2764,1.2764,1.2764,1.2764,1.2764,1.2764,1.2764,1.2764,1.2764,1.278,1.2915,1.3068,1.3166,1.3462,1.3762,1.3935,1.4069,1.4202,1.4298,1.4298,1.4419,1.4515,1.4346,1.4419,1.4509,1.434,1.4298,1.434,1.4509,1.4419,1.4298,1.4298,1.4431,1.4552,1.4552,1.4769,1.495,1.495,1.495,1.504,1.5306,1.4986,1.4654,1.4485,1.4364,1.4298,1.4298,1.4298,1.4298,1.4298,1.4298,1.4298,1.4298,1.4298,1.4298,1.4298,1.4298,1.4298,1.4298,1.4298,1.4298,1.4298,1.4298,1.4298,1.4298,1.4298,1.486,0.0,0.0,0.0,0.0,0.0,0.0,0.0,0.0,0.0,0.0,0.0,0.0,0.0,0.0,0.0,0.0,0.0,0.0,0.0,0.0,0.0,0.0,0.0,0.0,0.0,0.0,0.0,0.0,0.0,0.0,0.0,1.3477,1.3477,1.3477,1.3223,1.3158,1.3105,1.2704,1.2433,1.2377,1.2248,1.2167,1.2388,1.2624,1.2743,1.2764,1.2764,1.2764,1.2764,1.2764,1.2764,1.2764,1.2764,1.2764,1.2764,1.2764,1.2958,1.305,1.305,1.3443,1.3835,1.3931,1.4118,1.4298,1.4298,1.4298,1.4298,1.4298,1.4298,1.4298,1.4298,1.4298,1.4298,1.4298,1.4298,1.4298,1.4298,1.4298,1.4298,1.4298,1.4521,1.4714,1.4714,1.4739,1.4823,1.504,1.4871,1.4708,1.4684,1.4455,1.4298,1.4298,1.4298,1.4298,1.4298,1.4298,1.4298,1.4298,1.4298,1.4298,1.4298,1.4298,1.4298,1.4298,1.4298,1.4298,1.4298,1.4298,1.4298,1.4298,1.4298,1.486,0.0,0.0,0.0,0.0,0.0,0.0,0.0,0.0,0.0,0.0,0.0,0.0,0.0,0.0,0.0,0.0,0.0,0.0,0.0,0.0,0.0,0.0,0.0,0.0,0.0,0.0,0.0,0.0,0.0,0.0,1.3212,1.3212,1.3212,1.3212,1.3315,1.3265,1.3135,1.2985,1.2717,0.0,1.2345,1.2259,1.2134,1.2382,1.2587,1.2764,1.2764,1.2764,1.2764,1.2764,1.2764,1.2764,1.2764,1.2764,1.2764,1.2764,1.2861,1.2861,1.305,1.3346,1.3636,1.3835,1.4118,1.4298,1.4298,1.4298,1.4298,1.4298,1.4298,1.4298,1.4298,1.4298,1.4298,1.4298,1.4298,1.4298,1.4298,1.4298,1.4298,1.4298,1.4521,1.4714,1.4714,1.4883,1.4974,1.4823,1.4751,1.4636,1.4419,1.4334,1.4298,1.4298,1.4298,1.4298,1.4298,1.4298,1.4298,1.4298,1.4298,1.4298,1.4298,1.4298,1.4298,1.4298,1.4298,1.4298,1.4298,1.4298,1.4298,1.4298,1.4298,1.486,0.0,0.0,0.0,0.0,0.0,0.0,0.0,0.0,0.0,0.0,0.0,0.0,0.0,0.0,0.0,0.0,0.0,0.0,0.0,0.0,0.0,0.0,0.0,0.0,0.0,0.0,0.0,0.0,0.0,1.2868,1.2741,1.2735,1.2735,1.2735,1.2868,1.2885,1.2872,1.2833,1.2655,1.2417,1.2305,1.2126,1.2068,1.2221,1.2307,1.2431,1.2544,1.2597,1.2608,1.2716,1.2764,1.2764,1.2764,1.2764,1.2764,1.2764,1.2764,1.2764,1.2958,1.3249,1.3539,1.3642,1.4022,1.4298,1.4298,1.4298,1.4298,1.4298,1.4298,1.4298,1.4298,1.4298,1.4298,1.4298,1.4298,1.4298,1.4298,1.4298,1.4298,1.4298,1.4419,1.4515,1.4515,1.463,1.4672,1.4533,1.4515,1.4461,1.4316,1.4298,1.4298,1.4298,1.4298,1.4298,1.4298,1.4298,1.4298,1.4298,1.4298,1.4298,1.4298,1.4298,1.4298,1.4298,1.4298,1.4298,1.4298,1.4298,1.4298,1.4298,1.4298,1.486,0.0,0.0,0.0,0.0,0.0,0.0,0.0,0.0,0.0,0.0,0.0,0.0,0.0,0.0,0.0,0.0,0.0,0.0,0.0,0.0,0.0,0.0,0.0,0.0,0.0,0.0,0.0,0.0,0.0,1.2475,1.2258,1.2246,1.2246,1.2246,1.2246,1.238,1.2557,1.2431,1.2277,1.2365,1.1986,1.1905,1.1844,1.1863,1.2021,1.2151,1.2264,1.2355,1.2366,1.256,1.2641,1.2641,1.2684,1.27,1.2711,1.2748,1.2764,1.2764,1.2861,1.3152,1.3539,1.3539,1.3919,1.4298,1.4298,1.4298,1.4298,1.4298,1.4298,1.4298,1.4298,1.4298,1.4298,1.4298,1.4298,1.4298,1.4298,1.4298,1.4298,1.4298,1.4298,1.4298,1.4298,1.4298,1.4298,1.4298,1.4298,1.4298,1.4298,1.4298,1.4298,1.4298,1.4298,1.4298,1.4298,1.4298,1.4298,1.4298,1.4298,1.4298,1.4298,1.4298,1.4298,1.4298,1.4298,1.4298,1.4298,1.4298,1.4298,1.4298,1.4298,1.486,0.0,0.0,0.0,0.0,0.0,0.0,0.0,0.0,0.0,0.0,0.0,0.0,0.0,0.0,0.0,0.0,0.0,0.0,0.0,0.0,0.0,0.0,0.0,0.0,0.0,0.0,0.0,0.0,1.2029,1.2011,1.198,1.1974,1.1974,1.1974,1.1974,1.2011,1.2002,1.1966,1.1998,1.2087,1.1634,1.1383,1.1416,1.1196,1.1462,1.214,1.2173,1.2097,1.2097,1.2221,1.2232,1.2167,1.2382,1.2463,1.2484,1.2689,1.2764,1.2861,1.2953,1.3244,1.3539,1.3738,1.4022,1.4298,1.4298,1.4298,1.4298,1.4298,1.4298,1.4298,1.4298,1.4298,1.4298,1.4298,1.4298,1.4298,1.4298,1.4298,1.4298,1.4298,1.4298,1.4298,1.4298,1.4298,1.4298,1.4298,1.4298,1.4298,1.4298,1.4298,1.4298,1.4298,1.4298,1.4298,1.4298,1.4298,1.4298,1.4298,1.4298,1.4298,1.4298,1.4298,1.4298,1.4298,1.4298,1.4298,1.4298,1.4298,1.4298,1.4298,1.4298,1.486,0.0,0.0,0.0,0.0,0.0,0.0,0.0,0.0,0.0,0.0,0.0,0.0,0.0,0.0,0.0,0.0,0.0,0.0,0.0,0.0,0.0,0.0,0.0,0.0,0.0,0.0,0.0,0.0,1.192,1.186,1.1709,1.1703,1.1703,1.1703,1.1703,1.1775,1.192,1.192,1.19,1.1933,1.1525,1.128,1.128,1.0953,1.1031,1.1467,1.1736,1.1855,1.186,1.2086,1.214,1.2151,1.2167,1.2296,1.2425,1.2533,1.2651,1.2764,1.2861,1.3152,1.3539,1.3642,1.3919,1.4298,1.4298,1.4298,1.4298,1.4298,1.4298,1.4298,1.4298,1.4298,1.4298,1.4298,1.4298,1.4298,1.4298,1.4298,1.4298,1.4298,1.4298,1.4298,1.4298,1.4298,1.4298,1.4298,1.4298,1.4298,1.4298,1.4298,1.4298,1.4298,1.4298,1.4298,1.4298,1.4298,1.4298,1.4298,1.4298,1.4298,1.4298,1.4298,1.4298,1.4298,1.4298,1.4298,1.4298,1.4298,1.4298,1.4298,1.4298,1.514,0.0,0.0,0.0,0.0,0.0,0.0,0.0,0.0,0.0,0.0,0.0,0.0,0.0,0.0,0.0,0.0,0.0,0.0,0.0,0.0,0.0,0.0,0.0,0.0,0.0,0.0,0.0,0.0,1.1715,1.163,1.1437,1.1425,1.1425,1.1425,1.1425,1.1516,1.1715,1.1708,1.1744,1.1744,1.134,1.1107,1.1101,1.0707,1.0643,1.0832,1.1252,1.1429,1.1445,1.1682,1.1779,1.179,1.1914,1.207,1.2242,1.2296,1.2431,1.2688,1.2753,1.3058,1.3363,1.3522,1.3823,1.4202,1.4298,1.4298,1.4298,1.4298,1.4298,1.4298,1.4298,1.4298,1.4298,1.4298,1.4298,1.4298,1.4298,1.4298,1.4298,1.4298,1.4298,1.4298,1.4298,1.4298,1.4298,1.4298,1.4298,1.4298,1.4298,1.4298,1.4298,1.4298,1.4298,1.4298,1.4298,1.4298,1.4298,1.4298,1.4298,1.4298,1.4298,1.4298,1.4298,1.4298,1.4298,1.4298,1.4298,1.4298,1.4298,1.4298,1.4298,1.5235,0.0,0.0,0.0,0.0,0.0,0.0,0.0,0.0,0.0,0.0,0.0,0.0,0.0,0.0,0.0,0.0,0.0,0.0,0.0,0.0,0.0,0.0,0.0,0.0,0.0,0.0,0.0,0.0,1.1154,1.1148,1.1135,1.1135,1.1135,1.1135,1.1135,1.1141,1.1154,1.1189,1.1241,1.1241,1.084,1.0673,1.0601,1.0382,1.032,1.0342,1.0584,1.0692,1.0708,1.0945,1.1036,1.1085,1.1537,1.1725,1.1763,1.1984,1.2167,1.221,1.2637,1.2814,1.2947,1.3663,1.3931,1.3931,1.4202,1.4298,1.4298,1.4298,1.4298,1.4298,1.4298,1.4298,1.4298,1.4298,1.4298,1.4298,1.4298,1.4298,1.4298,1.4298,1.4298,1.4298,1.4298,1.4298,1.4298,1.4298,1.4298,1.4298,1.4298,1.4298,1.4298,1.4298,1.4298,1.4298,1.4298,1.4298,1.4298,1.4298,1.4298,1.4298,1.4298,1.4298,1.4298,1.4298,1.4298,1.4298,1.4298,1.4298,1.4298,1.4298,1.4298,1.486,0.0,0.0,0.0,0.0,0.0,0.0,0.0,0.0,0.0,0.0,0.0,0.0,0.0,0.0,0.0,0.0,0.0,0.0,0.0,0.0,0.0,0.0,0.0,0.0,0.0,0.0,0.0,0.0,0.0,1.0858,1.0858,1.0858,1.0785,1.0639,1.0799,1.0887,1.0738,1.0761,1.0732,1.0732,1.0503,1.0345,1.0345,1.0127,1.0056,1.0056,1.0143,1.0353,1.0643,1.0724,1.0848,1.0999,1.1171,1.1429,1.1709,1.179,1.1919,1.2151,1.2335,1.2565,1.2903,1.3265,1.3695,1.3931,1.4202,1.4298,1.4298,1.4298,1.4298,1.4298,1.4298,1.4298,1.4298,1.4298,1.4298,1.4298,1.4298,1.4298,1.4298,1.4298,1.4298,1.4298,1.4298,1.4298,1.4298,1.4298,1.4298,1.4298,1.4298,1.4298,1.4298,1.4298,1.4298,1.4298,1.4298,1.4298,1.4298,1.4298,1.4298,1.4298,1.4298,1.4298,1.4298,1.4298,1.4298,1.4298,1.4298,1.4298,1.4298,1.4298,1.4298,1.514,0.0,0.0,0.0,0.0,0.0,0.0,0.0,0.0,0.0,0.0,0.0,0.0,0.0,0.0,0.0,0.0,0.0,0.0,0.0,0.0,0.0,0.0,0.0,0.0,0.0,0.0,0.0,0.0,0.0,0.0,1.0521,1.0533,1.0544,1.0414,1.0576,1.0663,1.0513,1.0358,1.0364,1.0363,1.014,1.0066,1.0067,0.9992,0.9922,0.9922,0.9922,1.01,1.0401,1.0487,1.0611,1.0767,1.0923,1.1176,1.1472,1.1553,1.1682,1.1822,1.1903,1.2129,1.2477,1.3006,1.3366,1.3712,1.4178,1.4298,1.4298,1.4298,1.4298,1.4298,1.4298,1.4298,1.4298,1.4298,1.4298,1.4298,1.4298,1.4298,1.4298,1.4298,1.4298,1.4298,1.4298,1.4298,1.4298,1.4298,1.4298,1.4298,1.4298,1.4298,1.4298,1.4298,1.4298,1.4298,1.4298,1.4298,1.4298,1.4298,1.4298,1.4298,1.4298,1.4298,1.4298,1.4298,1.4298,1.4298,1.4298,1.4298,1.4298,1.4298,1.4298,1.5425,0.0,0.0,0.0,0.0,0.0,0.0,0.0,0.0,0.0,0.0,0.0,0.0,0.0,0.0,0.0,0.0,0.0,0.0,0.0,0.0,0.0,0.0,0.0,0.0,0.0,0.0,0.0,0.0,1.0251,1.0251,1.0118,1.0278,1.0385,1.0496,1.0507,1.0507,1.0519,1.0058,0.9985,1.0212,0.9759,0.9696,0.9922,0.9922,0.9922,0.9922,0.9922,0.9922,0.9938,1.018,1.0288,1.0342,1.0789,1.0966,1.1004,1.1252,1.1251,1.1289,1.1607,1.1693,1.1863,1.2881,1.3134,1.3279,1.41,1.428,1.4286,1.4286,1.4286,1.4286,1.4286,1.4292,1.4298,1.4298,1.4298,1.4298,1.4298,1.4298,1.4298,1.4298,1.4298,1.4298,1.4298,1.4298,1.4298,1.4298,1.4298,1.4298,1.4298,1.4298,1.4298,1.4298,1.4298,1.4298,1.4298,1.4298,1.4298,1.4298,1.4298,1.4298,1.4298,1.4298,1.4298,1.4298,1.4298,1.4298,1.4298,1.4298,1.4298,1.4298,1.4298,1.5419,0.568,0.0,0.0,0.0,0.0,0.0,0.0,0.0,0.0,0.0,0.0,0.0,0.0,0.0,0.0,0.0,0.0,0.0,0.0,0.0,0.0,0.0,0.0,0.0,0.0,0.0,0.0,0.0,0.9626,0.9632,0.9564,0.9491,0.9659,1.0025,0.9889,0.9898,1.0067,0.9843,0.9769,0.9992,0.969,0.9696,0.9922,0.9922,0.9922,0.9922,0.9922,0.9922,0.9927,0.9997,1.0132,1.0304,1.0433,1.0584,1.0762,1.0999,1.1085,1.1117,1.1365,1.1558,1.1809,1.2389,1.274,1.2992,1.3522,1.3863,1.4014,1.4014,1.4014,1.4014,1.4014,1.4153,1.4298,1.4298,1.4298,1.4298,1.4298,1.4298,1.4298,1.4298,1.4298,1.4298,1.4298,1.4298,1.4298,1.4298,1.4298,1.4298,1.4298,1.4298,1.4298,1.4298,1.4298,1.4298,1.4298,1.4298,1.4298,1.4298,1.4298,1.4298,1.4298,1.4298,1.4298,1.4298,1.4298,1.4298,1.4298,1.4298,1.4298,1.4298,1.5045,1.5704,0.0,0.0,0.0,0.0,0.0,0.0,0.6132,0.6498,0.0,0.0,0.0,0.0,0.0,0.0,0.0,0.0,0.0,0.0,0.0,0.0,0.0,0.0,0.0,0.0,0.0,0.9577,0.9533,0.9245,0.9234,0.9213,0.9248,0.9125,0.9165,0.9625,0.9493,0.954,0.9776,0.9448,0.9448,0.9776,0.9443,0.94,0.962,0.962,0.962,0.9626,0.9733,0.9776,0.9787,0.9879,1.0008,1.0148,1.0256,1.0374,1.0536,1.0864,1.0982,1.102,1.1268,1.144,1.1657,1.2198,1.2511,1.2739,1.3302,1.3622,1.3767,1.3876,1.3984,1.4045,1.3936,1.4099,1.4268,1.4159,1.4135,1.4165,1.4274,1.4214,1.4165,1.4274,1.4298,1.4298,1.4298,1.4298,1.4298,1.4298,1.4298,1.4298,1.4298,1.4298,1.4298,1.4298,1.4298,1.4298,1.4298,1.4298,1.4298,1.4298,1.4298,1.4298,1.4298,1.4298,1.4298,1.4298,1.4298,1.4298,1.4298,1.4298,1.4298,1.4292,1.486,1.5425,0.0,0.0,0.0,0.0,0.0,0.0,0.6223,0.6358,0.6568,0.0,0.0,0.0,0.0,0.0,0.0,0.0,0.0,0.0,0.0,0.0,0.0,0.0,0.0,0.0,0.9274,0.9081,0.8952,0.8952,0.8952,0.8984,0.9003,0.8885,0.8931,0.9157,0.9168,0.9287,0.9534,0.9087,0.9087,0.9534,0.9077,0.8985,0.9206,0.9206,0.9206,0.9217,0.9443,0.954,0.9556,0.9787,0.9895,0.9943,1.0164,1.0256,1.0304,1.0746,1.0907,1.0945,1.1214,1.1311,1.1348,1.2113,1.2369,1.2503,1.3177,1.3447,1.3519,1.3755,1.4032,1.4183,1.3894,1.4039,1.4183,1.3924,1.3863,1.3936,1.4195,1.4069,1.3984,1.4244,1.4298,1.4298,1.4298,1.4298,1.4298,1.4298,1.4298,1.4298,1.4298,1.4298,1.4298,1.4298,1.4298,1.4298,1.4298,1.4298,1.4298,1.4298,1.4298,1.4298,1.4298,1.4298,1.4298,1.4298,1.4298,1.4298,1.4298,1.4298,1.4298,1.4298,1.4388,1.4956,0.0,0.0,0.0,0.0,0.0,0.0,0.5841,0.6116,0.6379,0.0,0.0,0.0,0.0,0.0,0.0,0.0,0.0,0.0,0.0,0.0,0.0,0.0,0.0,0.0,0.8899,0.8835,0.877,0.8576,0.8576,0.8598,0.8647,0.8581,0.8689,0.8921,0.8931,0.9044,0.9276,0.9001,0.9001,0.9276,0.8996,0.8985,0.9206,0.9206,0.9206,0.9206,0.9254,0.9276,0.9297,0.9545,0.9755,0.9927,0.9976,0.9992,1.003,1.032,1.0428,1.0492,1.0912,1.1052,1.118,1.1688,1.1944,1.2123,1.2504,1.2844,1.3212,1.326,1.3616,1.3876,1.3399,1.3628,1.3918,1.3652,1.3592,1.3664,1.3924,1.3942,1.3984,1.4244,1.4298,1.4298,1.4298,1.4298,1.4298,1.4298,1.4298,1.4298,1.4298,1.4298,1.4298,1.4298,1.4298,1.4298,1.4298,1.4298,1.4298,1.4298,1.4298,1.4298,1.4298,1.4298,1.4298,1.4298,1.4298,1.4298,1.4298,1.4298,1.4298,1.4298,1.514,1.5609,0.0,0.0,0.0,0.5852,0.0,0.0,0.0,0.6126,0.624,0.6353,0.0,0.0,0.0,0.0,0.0,0.0,0.0,0.0,0.0,0.0,0.0,0.0,0.0,0.0,0.8835,0.8705,0.8576,0.8517,0.8517,0.8517,0.8517,0.8517,0.8565,0.8684,0.8689,0.8802,0.9034,0.8802,0.8807,0.9034,0.8802,0.8748,0.8861,0.8861,0.8861,0.8867,0.8985,0.9034,0.9055,0.9292,0.9459,0.9588,0.9825,0.9992,1.01,1.0357,1.0528,1.0656,1.0849,1.1057,1.1178,1.1595,1.151,1.1442,1.2328,1.2817,1.3127,1.3127,1.3405,1.3622,1.3224,1.3417,1.3646,1.3381,1.332,1.3393,1.3652,1.3713,1.3791,1.4051,1.4208,1.4298,1.4298,1.4298,1.4298,1.4298,1.4298,1.4298,1.4298,1.4298,1.4298,1.4298,1.4298,1.4298,1.4298,1.4298,1.4298,1.4298,1.4298,1.4298,1.4298,1.4298,1.4298,1.4298,1.4298,1.4298,1.4298,1.4298,1.4298,1.4298,1.533,1.5798,0.0,0.0,0.0,0.0,0.0,0.5895,0.0,0.0,0.0,0.646,0.0,0.0,0.0,0.0,0.0,0.0,0.0,0.0,0.0,0.0,0.0,0.0,0.0,0.0,0.0,0.844,0.8414,0.8511,0.8431,0.842,0.8511,0.8517,0.8517,0.8517,0.8517,0.8603,0.8791,0.8608,0.8608,0.8791,0.8603,0.8517,0.8517,0.8517,0.8517,0.8528,0.8716,0.8797,0.8813,0.9044,0.9141,0.9184,0.9615,0.9883,1.0173,1.0384,1.0644,1.0795,1.0885,1.1078,1.1231,1.1512,1.1111,1.0858,1.2026,1.2423,1.251,1.2686,1.2963,1.3099,1.3021,1.3242,1.3375,1.3103,1.3043,1.3115,1.3381,1.3441,1.3532,1.3845,1.4075,1.4238,1.4286,1.4298,1.4298,1.4298,1.4298,1.4298,1.4298,1.4298,1.4298,1.4298,1.4298,1.4298,1.4298,1.4298,1.4298,1.4298,1.4298,1.4298,1.4298,1.4298,1.4298,1.4298,1.4298,1.4298,1.4298,1.4298,1.4298,1.4298,1.5514,1.6075,0.0,0.0,0.0,0.0,0.617,0.0,0.0,0.0,0.5976,0.583,0.0,0.0,0.0,0.0,0.0,0.0,0.0,0.0,0.0,0.0,0.0,0.0,0.0,0.0,0.0,0.7881,0.8059,0.8484,0.8118,0.8065,0.849,0.8517,0.8517,0.8517,0.8517,0.8528,0.8554,0.8528,0.8528,0.8554,0.8528,0.8517,0.8517,0.8517,0.8517,0.8517,0.8544,0.8554,0.8571,0.8807,0.8904,0.8931,0.9184,0.9564,0.9913,0.9941,1.0228,1.0598,1.0789,1.1101,1.1289,1.1231,1.0975,1.069,1.1252,1.0901,1.0482,1.1273,1.1712,1.2015,1.2561,1.2958,1.3097,1.2819,1.2753,1.2825,1.3109,1.3169,1.3314,1.3809,1.393,1.402,1.4256,1.4298,1.4298,1.4298,1.4298,1.4298,1.4298,1.4298,1.4298,1.4298,1.4298,1.4298,1.4298,1.4298,1.4298,1.4298,1.4298,1.4298,1.4298,1.4298,1.4298,1.4298,1.4298,1.4298,1.4298,1.4298,1.4298,1.4394,1.6264,1.7109,0.0,0.0,0.0,0.0,0.0,0.0,0.6058,0.0,0.583,0.0,0.0,0.0,0.0,0.0,0.0,0.0,0.5873,0.0,0.0,0.0,0.0,0.0,0.0,0.0,0.0,0.0,0.0,0.0,0.8113,0.8151,0.8495,0.8517,0.8517,0.8517,0.8517,0.8517,0.8517,0.8517,0.8517,0.8517,0.8517,0.8517,0.8517,0.8517,0.8517,0.8517,0.8517,0.8517,0.8522,0.8619,0.8728,0.8865,0.8964,0.9314,0.9817,0.9663,1.007,1.063,1.0819,1.0977,1.1111,1.0845,1.1187,1.1522,1.1343,1.1063,1.0885,1.1843,1.183,1.1619,1.2472,1.2789,1.285,1.2735,1.2705,1.2735,1.2856,1.3006,1.3236,1.3604,1.3803,1.399,1.425,1.4298,1.4298,1.4298,1.4298,1.4298,1.4298,1.4298,1.4298,1.4298,1.4298,1.4298,1.4298,1.4298,1.4298,1.4298,1.4298,1.4298,1.4298,1.4298,1.4298,1.4298,1.4298,1.4298,1.4298,1.4298,1.4298,1.4298,1.5798,1.6734,0.7239,0.0,0.0,0.0,0.0,0.0,0.0,0.0,0.0,0.0,0.0,0.0,0.0,0.0,0.0,0.0,0.0,0.5823,0.0,0.0,0.0,0.0,0.0,0.0,0.0,0.0,0.0,0.7744,0.7712,0.7894,0.8393,0.8414,0.8447,0.8511,0.8517,0.8517,0.8517,0.8517,0.8517,0.8517,0.8517,0.8517,0.8517,0.8517,0.8517,0.8517,0.8517,0.8517,0.8517,0.8517,0.8641,0.877,0.8641,0.9053,0.9599,0.9281,0.9592,1.0164,1.0421,1.0801,1.1158,1.1032,1.1402,1.1862,1.1428,1.1149,1.1144,1.2015,1.1843,1.1499,1.2448,1.2705,1.2705,1.2705,1.2705,1.2705,1.2705,1.2868,1.3091,1.3357,1.3562,1.3797,1.4129,1.425,1.4298,1.4298,1.4298,1.4298,1.4298,1.4298,1.4298,1.4298,1.4298,1.4298,1.4298,1.4298,1.4298,1.4298,1.4298,1.4298,1.4298,1.4298,1.4298,1.4298,1.4298,1.4298,1.4298,1.4298,1.4298,1.4298,1.533,1.617,0.0,0.0,0.0,0.6801,0.0,0.0,0.0,0.0,0.6304,0.0,0.0,0.0,0.0,0.0,0.568,0.568,0.5685,0.0,0.0,0.0,0.0,0.0,0.0,0.0,0.0,0.0,0.5891,0.6682,0.6462,0.6847,0.8124,0.8224,0.8269,0.8506,0.8517,0.8517,0.8517,0.8517,0.8517,0.8517,0.8517,0.8517,0.8517,0.8517,0.8517,0.8517,0.8517,0.8517,0.8517,0.8517,0.8641,0.877,0.8247,0.8576,0.9262,0.8781,0.8599,0.868,0.9494,1.0479,1.16,1.205,1.1638,1.102,1.1252,1.0712,1.0096,1.1058,1.1322,1.1499,1.2448,1.2705,1.2705,1.2705,1.2705,1.2705,1.2705,1.2711,1.2801,1.3085,1.3145,1.3314,1.3833,1.4129,1.4298,1.4298,1.4298,1.4298,1.4298,1.4298,1.4298,1.4298,1.4298,1.4298,1.4298,1.4298,1.4298,1.4298,1.4298,1.4298,1.4298,1.4298,1.4298,1.4298,1.4298,1.4298,1.4298,1.4298,1.4298,1.4298,1.533,1.5798,0.0,0.0,0.7089,0.6993,0.0,0.0,0.0,0.0,0.0,0.0,0.0,0.0,0.0,0.0,0.568,0.568,0.568,0.5593,0.0,0.0,0.0,0.0,0.0,0.0,0.0,0.0,0.0,0.6903,0.7001,0.7271,0.7898,0.8126,0.8251,0.8269,0.8274,0.835,0.8511,0.8355,0.8355,0.8517,0.8517,0.8517,0.8511,0.8344,0.8361,0.8506,0.8344,0.8366,0.8517,0.8517,0.8641,0.877,0.87,0.863,0.8538,0.8323,0.8904,0.9794,1.0419,1.0875,1.131,1.1679,1.1668,1.1613,1.1862,1.1453,1.1058,1.1923,1.1757,1.1499,1.2448,1.2705,1.2705,1.2705,1.2705,1.2705,1.2705,1.2705,1.2789,1.3067,1.3127,1.329,1.3815,1.3978,1.4099,1.4268,1.4298,1.4298,1.4298,1.4298,1.4298,1.4298,1.4298,1.4298,1.4298,1.4298,1.4298,1.4298,1.4298,1.4298,1.4298,1.4298,1.4298,1.4298,1.4298,1.4298,1.4298,1.4298,1.4298,1.4298,1.4675,1.5514,0.7475,0.7459,0.0,0.7072,0.6989,0.0,0.686,0.0,0.0,0.0,0.0,0.0,0.0,0.0,0.5663,0.5562,0.5559,0.5463,0.0,0.4845,0.4578,0.0,0.0,0.0,0.0,0.0,0.5752,0.6395,0.6722,0.7114,0.0,0.0,0.812,0.8207,0.8294,0.8355,0.8511,0.8355,0.8355,0.8517,0.8425,0.8388,0.8377,0.8283,0.8111,0.7999,0.8244,0.8239,0.8182,0.8382,0.8641,0.8835,0.8958,0.8879,0.8728,0.8485,0.9109,1.0101,1.0222,1.0645,1.1286,1.1473,1.1709,1.1968,1.2234,1.2009,1.1832,1.2623,1.2347,1.1952,1.2653,1.2777,1.2705,1.2705,1.2705,1.2705,1.2705,1.2705,1.2789,1.3067,1.3127,1.329,1.3815,1.3906,1.3996,1.4256,1.4298,1.4298,1.4298,1.4298,1.4298,1.4298,1.4298,1.4298,1.4298,1.4298,1.4298,1.4298,1.4298,1.4298,1.4298,1.4298,1.4346,1.4443,1.4346,1.4346,1.4443,1.4346,1.4298,1.4298,1.4298,1.5235]},{"header":{"parameterUnit":"m.s-1","parameterCategory":1,"la1":30.6,"la2":29.2853,"lo1":-89.7004,"lo2":-87.6739,"dy":0.0162,"dx":0.0183,"nx":112,"ny":82,"refTime":"2023-07-04T06:00:00:Z","depth":0,"parameterNumber":3,"parameterNumberName":"V-component_of_WINDS"},"data":[0.0,0.0,0.0,0.0,0.0,0.0,0.0,0.0,0.0,0.0,0.0,0.0,0.0,0.0,0.0,0.0,0.0,0.0,0.0,0.0,0.0,0.0,0.0,0.0,0.0,0.0,0.0,0.0,0.0,0.0,0.0,0.0,0.0,0.0,0.0,0.0,0.0,0.0,0.0,0.0,0.0,0.0,0.0,0.0,0.0,0.0,0.0,0.0,0.0,0.0,0.0,0.0,0.0,0.0,0.0,0.0,0.0,0.0,0.0,0.0,0.0,0.0,0.0,0.0,0.0,0.0,0.0,0.0,0.0,0.0,0.0,0.0,0.0,0.0,0.0,0.0,0.0,0.0,0.0,0.0,0.0,0.0,0.0,0.0,0.0,0.0,0.0,0.0,0.0,0.0,0.0,-2.4553,-2.7871,-3.011,-3.0297,-3.0821,-2.9425,-2.5472,0.0,0.0,0.0,0.0,0.0,0.0,0.0,0.0,0.0,0.0,0.0,0.0,0.0,0.0,0.0,0.0,0.0,0.0,0.0,0.0,0.0,0.0,0.0,0.0,0.0,0.0,0.0,0.0,0.0,0.0,0.0,0.0,0.0,0.0,0.0,0.0,0.0,0.0,0.0,0.0,0.0,0.0,0.0,0.0,0.0,0.0,0.0,0.0,0.0,0.0,0.0,0.0,0.0,0.0,0.0,0.0,0.0,0.0,0.0,0.0,0.0,0.0,0.0,0.0,0.0,0.0,0.0,0.0,0.0,0.0,0.0,0.0,0.0,0.0,0.0,0.0,0.0,0.0,0.0,0.0,0.0,0.0,0.0,0.0,0.0,0.0,0.0,0.0,0.0,0.0,0.0,0.0,0.0,0.0,0.0,0.0,0.0,0.0,0.0,0.0,0.0,0.0,0.0,0.0,-2.3947,-2.7005,-2.789,-2.8852,-3.0263,-2.9217,-2.7552,-2.5417,0.0,0.0,0.0,0.0,0.0,0.0,0.0,0.0,0.0,0.0,0.0,0.0,0.0,0.0,0.0,0.0,0.0,0.0,0.0,0.0,0.0,0.0,0.0,0.0,0.0,0.0,0.0,0.0,0.0,0.0,0.0,0.0,0.0,0.0,0.0,0.0,0.0,0.0,0.0,0.0,0.0,0.0,0.0,0.0,0.0,0.0,0.0,0.0,0.0,0.0,0.0,0.0,0.0,0.0,0.0,0.0,0.0,0.0,0.0,0.0,0.0,0.0,0.0,0.0,0.0,0.0,0.0,0.0,0.0,0.0,0.0,0.0,0.0,0.0,0.0,0.0,0.0,0.0,0.0,0.0,0.0,0.0,0.0,0.0,0.0,0.0,0.0,0.0,0.0,0.0,0.0,0.0,0.0,0.0,0.0,0.0,0.0,0.0,0.0,0.0,0.0,0.0,0.0,-2.2844,-2.43,-2.6822,-2.7414,-2.7975,-2.881,-2.7769,-2.6362,-2.4696,-2.4188,0.0,0.0,0.0,0.0,0.0,0.0,0.0,0.0,0.0,0.0,0.0,0.0,0.0,0.0,0.0,0.0,0.0,0.0,0.0,0.0,0.0,0.0,0.0,0.0,0.0,0.0,0.0,0.0,0.0,0.0,0.0,0.0,0.0,0.0,0.0,0.0,0.0,0.0,0.0,0.0,0.0,0.0,0.0,0.0,0.0,0.0,0.0,0.0,0.0,0.0,0.0,0.0,0.0,0.0,0.0,0.0,0.0,0.0,0.0,0.0,0.0,0.0,0.0,0.0,0.0,0.0,0.0,0.0,0.0,0.0,0.0,0.0,0.0,0.0,0.0,0.0,0.0,0.0,0.0,0.0,0.0,0.0,0.0,0.0,0.0,0.0,0.0,0.0,0.0,0.0,0.0,0.0,0.0,0.0,0.0,0.0,0.0,0.0,0.0,0.0,0.0,0.0,-2.3541,-2.4713,-2.6278,-2.6899,-2.7317,-2.758,-2.6861,-2.5784,-2.4326,-2.3254,0.0,0.0,0.0,0.0,0.0,0.0,0.0,0.0,0.0,0.0,0.0,0.0,0.0,0.0,0.0,0.0,0.0,0.0,0.0,0.0,0.0,0.0,0.0,0.0,0.0,0.0,0.0,0.0,0.0,0.0,0.0,0.0,0.0,0.0,0.0,0.0,0.0,0.0,0.0,0.0,0.0,0.0,0.0,0.0,0.0,0.0,0.0,0.0,0.0,0.0,0.0,0.0,0.0,0.0,0.0,0.0,0.0,0.0,0.0,0.0,0.0,0.0,0.0,0.0,0.0,0.0,0.0,0.0,0.0,0.0,0.0,0.0,0.0,0.0,0.0,0.0,0.0,0.0,0.0,0.0,0.0,0.0,0.0,0.0,0.0,0.0,0.0,0.0,0.0,0.0,0.0,0.0,0.0,0.0,0.0,0.0,0.0,0.0,0.0,0.0,0.0,0.0,-2.4089,-2.5398,-2.6465,-2.6638,-2.6902,-2.7555,-2.6861,-2.5989,-2.4993,-2.3297,0.0,0.0,0.0,0.0,0.0,0.0,0.0,0.0,0.0,0.0,0.0,0.0,0.0,0.0,0.0,0.0,0.0,0.0,0.0,0.0,0.0,0.0,0.0,0.0,0.0,0.0,0.0,0.0,0.0,0.0,0.0,0.0,0.0,0.0,0.0,0.0,0.0,0.0,0.0,0.0,0.0,0.0,0.0,0.0,0.0,0.0,0.0,0.0,0.0,0.0,0.0,0.0,0.0,0.0,0.0,0.0,0.0,0.0,0.0,0.0,0.0,0.0,0.0,0.0,0.0,0.0,0.0,0.0,0.0,0.0,0.0,0.0,0.0,0.0,0.0,0.0,0.0,0.0,0.0,0.0,0.0,0.0,0.0,0.0,0.0,0.0,0.0,0.0,0.0,0.0,0.0,0.0,0.0,0.0,0.0,0.0,0.0,0.0,0.0,0.0,0.0,0.0,-2.3392,-2.4388,0.0,-2.5333,-2.5423,-2.5769,-2.5523,-2.4993,-2.4117,0.0,0.0,0.0,0.0,0.0,0.0,0.0,0.0,0.0,0.0,0.0,0.0,0.0,0.0,0.0,0.0,0.0,0.0,0.0,0.0,0.0,0.0,0.0,0.0,0.0,0.0,0.0,0.0,0.0,0.0,0.0,0.0,0.0,0.0,0.0,0.0,0.0,0.0,0.0,0.0,0.0,0.0,0.0,0.0,0.0,0.0,0.0,0.0,0.0,0.0,0.0,0.0,0.0,0.0,0.0,0.0,0.0,0.0,0.0,0.0,0.0,0.0,0.0,0.0,0.0,0.0,0.0,0.0,0.0,0.0,0.0,0.0,0.0,0.0,0.0,0.0,0.0,0.0,0.0,0.0,0.0,0.0,0.0,0.0,0.0,0.0,0.0,0.0,0.0,0.0,0.0,0.0,0.0,0.0,0.0,0.0,0.0,0.0,0.0,0.0,0.0,0.0,-2.2211,-2.3197,-2.4069,0.0,-2.4673,-2.4645,-2.4692,-2.4707,-2.4463,-2.3892,0.0,0.0,0.0,0.0,0.0,0.0,0.0,0.0,0.0,0.0,0.0,0.0,0.0,0.0,0.0,0.0,0.0,0.0,0.0,0.0,0.0,0.0,0.0,0.0,0.0,0.0,0.0,0.0,0.0,0.0,0.0,0.0,0.0,0.0,0.0,0.0,0.0,0.0,0.0,0.0,0.0,0.0,0.0,0.0,0.0,0.0,0.0,0.0,0.0,0.0,0.0,0.0,0.0,0.0,0.0,0.0,0.0,0.0,0.0,0.0,0.0,0.0,0.0,0.0,0.0,0.0,0.0,0.0,0.0,0.0,0.0,0.0,0.0,0.0,0.0,0.0,0.0,0.0,0.0,0.0,0.0,0.0,0.0,0.0,0.0,0.0,0.0,0.0,0.0,0.0,0.0,0.0,0.0,0.0,0.0,0.0,0.0,0.0,0.0,0.0,0.0,0.0,-2.2274,-2.3695,-2.4749,-2.4888,-2.4902,-2.4832,-2.4707,-2.4692,-2.466,0.0,0.0,0.0,0.0,0.0,0.0,0.0,0.0,0.0,0.0,0.0,0.0,0.0,0.0,0.0,0.0,0.0,0.0,0.0,0.0,0.0,0.0,0.0,0.0,0.0,0.0,0.0,0.0,0.0,0.0,0.0,0.0,0.0,0.0,0.0,0.0,0.0,0.0,0.0,0.0,0.0,0.0,0.0,0.0,0.0,0.0,0.0,0.0,0.0,0.0,0.0,0.0,0.0,0.0,0.0,0.0,0.0,0.0,0.0,0.0,0.0,0.0,0.0,0.0,0.0,0.0,0.0,0.0,0.0,0.0,0.0,0.0,0.0,0.0,0.0,0.0,0.0,0.0,0.0,0.0,0.0,0.0,0.0,0.0,0.0,0.0,0.0,0.0,0.0,0.0,0.0,0.0,0.0,0.0,0.0,0.0,0.0,0.0,0.0,0.0,0.0,0.0,0.0,-2.2021,-2.3508,-2.4566,-2.4547,-2.4547,-2.4513,-2.4428,-2.4428,-2.4393,-2.4321,0.0,0.0,0.0,0.0,0.0,0.0,0.0,0.0,0.0,0.0,0.0,0.0,0.0,0.0,0.0,0.0,0.0,0.0,0.0,0.0,0.0,0.0,0.0,0.0,0.0,0.0,0.0,0.0,0.0,0.0,0.0,0.0,0.0,0.0,0.0,0.0,0.0,0.0,0.0,0.0,0.0,0.0,0.0,0.0,0.0,0.0,0.0,0.0,0.0,0.0,0.0,0.0,0.0,0.0,0.0,0.0,0.0,0.0,0.0,0.0,0.0,0.0,0.0,0.0,0.0,0.0,0.0,0.0,0.0,0.0,0.0,0.0,0.0,0.0,0.0,0.0,0.0,0.0,0.0,0.0,0.0,0.0,0.0,0.0,0.0,0.0,0.0,0.0,0.0,0.0,0.0,0.0,0.0,0.0,0.0,0.0,0.0,0.0,0.0,0.0,0.0,0.0,-2.19,-2.3427,-2.4482,-2.4447,-2.4412,-2.4394,-2.4339,-2.4321,-2.4284,-2.4229,0.0,0.0,0.0,0.0,0.0,0.0,0.0,0.0,0.0,0.0,0.0,0.0,0.0,0.0,0.0,0.0,0.0,0.0,0.0,0.0,0.0,0.0,0.0,0.0,0.0,0.0,0.0,0.0,0.0,0.0,0.0,0.0,0.0,0.0,0.0,0.0,0.0,0.0,0.0,0.0,0.0,0.0,0.0,0.0,0.0,0.0,0.0,0.0,0.0,0.0,0.0,0.0,0.0,0.0,0.0,0.0,0.0,0.0,0.0,0.0,0.0,0.0,0.0,0.0,0.0,0.0,0.0,0.0,0.0,0.0,0.0,0.0,0.0,0.0,0.0,0.0,0.0,0.0,0.0,0.0,0.0,0.0,0.0,0.0,0.0,0.0,0.0,0.0,0.0,0.0,0.0,0.0,0.0,0.0,0.0,0.0,0.0,0.0,0.0,0.0,0.0,0.0,-2.2011,-2.3464,-2.45,-2.4482,-2.443,-2.4394,-2.4376,-2.4321,-2.4303,-2.4303,0.0,0.0,0.0,0.0,0.0,0.0,0.0,0.0,0.0,0.0,0.0,0.0,0.0,0.0,0.0,0.0,0.0,0.0,0.0,0.0,0.0,0.0,0.0,0.0,0.0,0.0,0.0,0.0,0.0,0.0,0.0,0.0,0.0,0.0,0.0,0.0,0.0,0.0,0.0,0.0,0.0,0.0,0.0,0.0,0.0,0.0,0.0,0.0,0.0,0.0,0.0,0.0,0.0,0.0,0.0,0.0,0.0,0.0,0.0,0.0,-2.2335,0.0,0.0,0.0,0.0,0.0,0.0,0.0,0.0,0.0,0.0,0.0,0.0,0.0,0.0,0.0,0.0,0.0,0.0,0.0,0.0,0.0,0.0,0.0,0.0,0.0,0.0,0.0,0.0,0.0,0.0,0.0,0.0,0.0,0.0,0.0,0.0,0.0,0.0,0.0,0.0,0.0,-2.2842,-2.3817,-2.4465,-2.4358,-2.4339,-2.4303,-2.4247,-2.4228,-2.4228,-2.4228,-2.4044,0.0,0.0,0.0,0.0,0.0,0.0,0.0,0.0,0.0,0.0,0.0,0.0,0.0,0.0,0.0,0.0,0.0,0.0,0.0,0.0,0.0,0.0,0.0,0.0,0.0,0.0,0.0,0.0,0.0,0.0,0.0,0.0,0.0,0.0,0.0,0.0,0.0,0.0,0.0,0.0,0.0,0.0,0.0,0.0,0.0,0.0,0.0,0.0,0.0,0.0,0.0,0.0,0.0,0.0,0.0,0.0,0.0,0.0,0.0,0.0,-2.3851,0.0,0.0,0.0,0.0,0.0,0.0,0.0,0.0,0.0,0.0,0.0,0.0,0.0,0.0,0.0,0.0,0.0,0.0,0.0,0.0,0.0,0.0,0.0,0.0,0.0,0.0,0.0,0.0,0.0,0.0,0.0,0.0,0.0,0.0,0.0,0.0,0.0,0.0,0.0,0.0,-2.3602,-2.445,-2.5134,-2.541,-2.5446,-2.5425,-2.5404,-2.5017,-2.4797,-2.4816,-2.4429,0.0,0.0,0.0,0.0,0.0,0.0,0.0,0.0,0.0,0.0,0.0,0.0,0.0,0.0,0.0,0.0,0.0,0.0,0.0,0.0,0.0,0.0,0.0,0.0,0.0,0.0,0.0,0.0,0.0,0.0,0.0,0.0,0.0,0.0,0.0,0.0,0.0,0.0,0.0,0.0,0.0,0.0,0.0,0.0,0.0,0.0,0.0,0.0,0.0,0.0,0.0,0.0,0.0,-2.7531,-2.8407,-2.9058,-2.9874,-3.0968,-3.2009,-2.8054,-2.6429,-2.6433,-2.4961,0.0,0.0,0.0,0.0,0.0,0.0,0.0,0.0,0.0,0.0,0.0,0.0,0.0,0.0,0.0,0.0,0.0,0.0,0.0,0.0,0.0,0.0,0.0,0.0,-2.6488,-2.7176,0.0,0.0,0.0,0.0,0.0,0.0,0.0,0.0,0.0,0.0,0.0,0.0,-2.4358,-2.5245,-2.6041,-2.6646,-2.6716,-2.6694,-2.6694,-2.6009,-2.5623,-2.5682,-2.5017,-2.4558,0.0,0.0,0.0,0.0,0.0,0.0,0.0,0.0,0.0,0.0,0.0,0.0,0.0,0.0,0.0,0.0,0.0,0.0,0.0,0.0,0.0,0.0,0.0,0.0,0.0,0.0,0.0,0.0,0.0,0.0,0.0,0.0,-2.2508,-2.262,0.0,0.0,0.0,0.0,0.0,0.0,0.0,0.0,0.0,0.0,0.0,0.0,0.0,-2.5459,-2.5391,-2.8349,-2.95,-2.8942,-3.1154,-3.2269,-3.24,-3.3194,-3.3677,-3.3844,-3.3217,0.0,-2.989,-2.8961,0.0,0.0,0.0,0.0,0.0,0.0,0.0,0.0,0.0,0.0,0.0,0.0,0.0,0.0,0.0,0.0,0.0,0.0,0.0,0.0,0.0,0.0,-2.7827,-2.857,-2.9463,-3.0057,0.0,-2.8046,-2.6467,-2.6483,-2.6483,0.0,0.0,0.0,0.0,0.0,0.0,0.0,-2.5318,-2.6096,-2.6671,-2.6703,-2.6698,-2.6673,-2.6612,-2.6502,-2.6447,-2.6447,-2.6355,-2.597,-2.5274,-2.5237,0.0,0.0,0.0,0.0,0.0,0.0,0.0,0.0,0.0,0.0,0.0,0.0,0.0,0.0,0.0,0.0,0.0,0.0,0.0,0.0,0.0,0.0,0.0,0.0,0.0,0.0,0.0,0.0,0.0,-2.1575,-2.1983,-2.2564,-2.2536,-2.2144,0.0,0.0,0.0,0.0,0.0,0.0,0.0,0.0,0.0,-2.673,-2.8332,-2.9597,-3.0463,-3.2377,-3.3621,-3.4179,-3.5237,-3.5739,-3.5795,-3.7076,-3.7411,-3.6983,-3.7466,-3.6798,-3.5089,-3.1522,-2.9184,-2.7697,0.0,0.0,0.0,0.0,-2.7362,-2.7957,-2.9221,-2.9646,0.0,-2.9147,0.0,0.0,0.0,0.0,0.0,0.0,0.0,0.0,0.0,0.0,-2.9611,-2.9983,-3.0708,-3.1284,-3.1284,-3.0386,-2.9196,0.0,-2.7525,-2.7246,-2.6333,0.0,0.0,0.0,0.0,-2.6391,-2.6811,-2.72,-2.7606,-2.7945,-2.7996,-2.7993,-2.7952,-2.753,-2.7273,-2.7273,-2.6851,-2.6447,-2.608,-2.6062,-2.575,0.0,0.0,0.0,0.0,0.0,0.0,0.0,0.0,0.0,0.0,0.0,0.0,0.0,0.0,0.0,0.0,0.0,0.0,0.0,0.0,0.0,0.0,0.0,0.0,0.0,0.0,0.0,0.0,-2.1718,-2.2231,-2.2745,-2.3213,-2.3112,0.0,0.0,0.0,0.0,0.0,0.0,-2.5777,-2.7512,-2.9035,-3.0281,-3.2102,-3.3621,-3.4829,-3.611,-3.7336,-3.8544,-3.8748,-3.8841,-3.8878,-4.0141,-4.0346,-3.977,-4.042,-4.0215,-3.9064,-3.4383,-3.1727,-3.0504,-2.9237,-2.8533,-2.8292,-2.9275,-3.0055,-3.0875,-3.2488,-3.3045,-3.2915,-3.2117,0.0,-3.0095,-2.8849,0.0,0.0,0.0,0.0,-2.9535,-3.0411,-3.1247,-3.1861,-3.1861,-3.2474,-3.2934,-3.2507,-3.2395,-3.1689,0.0,-2.8736,-2.8381,-2.7261,0.0,0.0,0.0,0.0,-2.7296,-2.7819,-2.8138,-2.8489,-2.8966,-2.904,-2.9017,-2.8994,-2.8448,-2.8117,-2.8117,-2.7548,-2.7126,-2.6924,-2.6906,-2.6814,-2.6612,0.0,0.0,0.0,0.0,0.0,0.0,0.0,0.0,0.0,0.0,0.0,0.0,0.0,0.0,0.0,0.0,0.0,0.0,0.0,0.0,0.0,0.0,0.0,0.0,0.0,0.0,0.0,0.0,0.0,-2.3721,-2.5665,0.0,0.0,0.0,0.0,-2.5482,-2.6953,-2.8236,-2.9109,-3.1414,-3.273,-3.2804,-3.5182,-3.6482,-3.6556,-3.8934,-4.0178,-4.0271,-4.1051,-4.1404,-4.1423,-4.1497,-4.1516,-4.1479,-4.1516,-4.107,-4.0178,-3.8302,-3.611,-3.3956,-3.3863,-3.2897,-3.1727,-3.3305,-3.3918,-3.4197,-3.5869,-3.6445,-3.6315,-3.5516,-3.4141,-3.2785,-3.2711,-3.2154,0.0,0.0,-3.2748,-3.2934,-3.3751,-3.4587,-3.5237,-3.5237,-3.5869,-3.6017,-3.442,-3.4067,-3.3361,0.0,-3.0485,-2.9962,-2.8301,0.0,-2.7724,-2.6847,-2.7403,-2.7941,-2.7893,-2.8639,-2.9119,-2.9089,-2.9089,-2.9085,-2.9017,-2.8957,-2.892,-2.892,-2.8883,-2.8539,-2.7769,-2.7732,-2.7383,-2.6612,-2.6612,0.0,0.0,0.0,0.0,0.0,0.0,0.0,0.0,0.0,0.0,0.0,0.0,0.0,0.0,0.0,0.0,0.0,0.0,0.0,0.0,0.0,0.0,0.0,0.0,0.0,0.0,0.0,0.0,-2.6514,-2.7809,0.0,-2.8521,-2.8762,-2.8909,-2.8849,-3.0838,-3.2395,-3.3292,-3.5107,-3.6649,-3.7726,-3.8618,-3.9565,-4.0606,-4.1497,-4.2203,-4.2723,-4.3002,-4.2872,-4.2389,-4.2909,-4.2853,-4.2389,-4.2927,-4.2983,-4.2667,-4.2073,-3.9751,-3.6519,-3.5999,-3.546,-3.5089,-3.6166,-3.6909,-3.7522,-3.8674,-3.9064,-3.8859,-3.7485,-3.5925,-3.4606,-3.4606,-3.4011,-3.351,-3.4364,-3.4977,-3.5553,-3.637,-3.6798,-3.7039,-3.7039,-3.6872,-3.6389,-3.5274,-3.5033,-3.4457,-3.2507,-3.1727,-3.098,-2.9842,-3.0123,-3.0179,-2.9277,-2.9832,-3.0368,-3.03,-3.0517,-3.0636,-3.0588,-3.0588,-3.0564,-3.054,-3.0081,-2.9769,-2.9769,-2.9287,-2.8865,-2.8594,-2.8576,-2.8448,-2.8154,-2.8132,-2.7897,0.0,0.0,0.0,0.0,0.0,0.0,0.0,0.0,0.0,0.0,0.0,0.0,0.0,0.0,0.0,0.0,0.0,0.0,0.0,0.0,0.0,0.0,0.0,0.0,0.0,0.0,-2.7864,-2.9243,-3.086,-3.1972,-3.2232,-3.2511,-3.2767,-3.3027,-3.4791,-3.6222,-3.7095,-3.8674,-3.9937,-4.0773,-4.133,-4.1999,-4.2797,-4.3076,-4.3466,-4.4005,-4.4005,-4.3726,-4.3225,-4.3763,-4.3708,-4.3225,-4.3763,-4.4005,-4.4005,-4.4005,-4.2407,-3.9881,-3.9064,-3.8581,-3.8451,-3.925,-3.9881,-4.0476,-4.1311,-4.1441,-4.1033,-3.99,-3.8637,-3.7559,-3.7559,-3.6965,-3.6463,-3.7318,-3.7745,-3.8116,-3.8934,-3.9138,-3.9082,-3.8804,-3.8339,-3.7652,-3.6538,-3.6296,-3.5887,-3.4513,-3.3138,-3.1949,-3.1088,-3.1407,-3.15,-3.0617,-3.1172,-3.1552,-3.1181,-3.1384,-3.1525,-3.1434,-3.1434,-3.1477,-3.1434,-3.0693,-3.032,-3.0595,-2.9861,-2.9549,-2.9806,-2.9549,-2.9402,-2.9402,-2.9402,-2.9099,-2.8438,0.0,0.0,0.0,0.0,0.0,0.0,0.0,0.0,0.0,0.0,0.0,0.0,0.0,0.0,0.0,0.0,0.0,0.0,0.0,0.0,0.0,0.0,0.0,-2.7139,-2.9184,-3.1058,-3.1912,-3.4829,-3.6482,-3.5757,-3.637,-3.7151,-3.7949,-3.8767,-3.9584,-4.042,-4.198,-4.2482,-4.1702,-4.3188,-4.3633,-4.2853,-4.3615,-4.4005,-4.4005,-4.4005,-4.4005,-4.4005,-4.4005,-4.4005,-4.4005,-4.4005,-4.4005,-4.4005,-4.4005,-4.4005,-4.3912,-4.3132,-4.2352,-4.1757,-4.2556,-4.2835,-4.2946,-4.3726,-4.3485,-4.2835,-4.2835,-4.2296,-4.1627,-4.1627,-4.107,-4.0587,-4.1367,-4.1051,-4.0643,-4.1441,-4.1627,-4.1441,-4.0661,-4.0457,-3.9974,-3.8302,-3.7931,-3.7689,-3.6853,-3.4754,-3.2841,-3.2005,-3.1857,-3.1556,-3.0627,-3.1224,0.0,-3.0436,-3.1167,-3.17,-3.1544,-3.1586,-3.161,-3.1544,-3.0754,-3.0577,-3.1384,-3.0687,-3.0595,-3.1366,-3.065,-3.0246,-3.0246,-3.0246,-3.0063,-2.9718,0.0,0.0,0.0,0.0,0.0,0.0,0.0,0.0,0.0,0.0,0.0,0.0,0.0,0.0,0.0,0.0,0.0,0.0,0.0,0.0,0.0,0.0,-2.9853,-2.9611,-3.2232,-3.4866,-3.6853,-3.7894,-3.8822,-3.9825,-3.9584,-3.9714,-4.0513,-4.133,-4.1887,-4.2129,-4.3113,-4.3578,-4.3355,-4.3763,-4.3893,-4.367,-4.3893,-4.4005,-4.4005,-4.4104,-4.4153,-4.4153,-4.4153,-4.4153,-4.4135,-4.4036,-4.4005,-4.4005,-4.4005,-4.4005,-4.3986,-4.3763,-4.3522,-4.3373,-4.3596,-4.367,-4.3708,-4.3912,-4.3856,-4.367,-4.367,-4.3132,-4.2463,-4.2463,-4.1906,-4.1311,-4.1534,-4.185,-4.2184,-4.2407,-4.2463,-4.2407,-4.2184,-4.1683,-4.081,-3.912,-3.8767,-3.8358,-3.6965,-3.6147,-3.5219,-3.3788,-3.3528,-3.325,-3.2428,-3.2937,0.0,-3.3044,-3.3229,-3.3112,-3.244,-3.241,-3.2366,-3.2291,-3.1556,-3.1403,-3.2228,-3.1513,-3.1164,-3.1384,-3.1182,-3.1072,-3.1072,-3.1072,-3.0878,0.0,0.0,0.0,0.0,0.0,0.0,0.0,0.0,0.0,0.0,0.0,0.0,0.0,0.0,0.0,0.0,0.0,0.0,0.0,0.0,0.0,0.0,-3.1597,-3.3881,-3.4606,-3.6333,-3.8321,-4.0401,-4.094,-4.1534,-4.25,-4.2184,-4.2092,-4.2575,-4.3039,-4.3299,-4.3299,-4.3745,-4.4005,-4.4005,-4.4005,-4.4005,-4.4005,-4.4055,-4.4085,-4.4104,-4.4195,-4.4214,-4.4202,-4.4538,-4.45,-4.4123,-4.4426,-4.4339,-4.4005,-4.4005,-4.4005,0.0,0.0,0.0,0.0,0.0,-4.4005,-4.4005,-4.4005,-4.4005,-4.4005,-4.4005,-4.367,-4.3299,-4.3299,-4.2742,-4.2166,-4.25,-4.2705,-4.2872,-4.3225,-4.3299,-4.3225,-4.2872,-4.2445,-4.1739,-4.042,-3.9881,-3.9361,-3.8414,-3.7671,0.0,-3.5925,-3.5182,-3.4457,-3.3634,-3.387,-3.3994,-3.3611,-3.3845,-3.3839,-3.3301,-3.3239,-3.3188,-3.3162,-3.2383,0.0,0.0,0.0,-3.1898,-3.1898,-3.1898,0.0,0.0,0.0,-3.1863,-3.1802,0.0,0.0,0.0,-2.9563,-2.9281,0.0,0.0,0.0,0.0,0.0,0.0,0.0,0.0,0.0,0.0,0.0,0.0,0.0,0.0,0.0,0.0,-3.5646,-3.8897,-4.0568,-4.0958,-4.1553,-4.2797,-4.3578,-4.4005,-4.4005,-4.4005,-4.4005,-4.4005,-4.4098,-4.4098,-4.4005,0.0,0.0,0.0,0.0,-4.4153,-4.4153,-4.4358,-4.4407,-4.4333,-4.4405,-4.4405,-4.4351,-4.5059,-4.501,-4.4321,-4.5008,-4.4859,-4.4135,-4.4042,-4.4005,-4.4005,-4.4005,-4.4005,-4.4005,-4.4005,-4.4005,-4.4005,-4.4005,0.0,0.0,-4.4005,-4.4005,-4.4005,-4.4005,-4.3503,-4.3076,-4.3801,-4.3485,-4.3095,-4.3819,-4.4005,-4.3819,-4.3113,-4.2946,-4.2705,-4.1906,-4.1163,-4.0624,-4.055,-3.925,-3.8172,-3.8172,-3.676,-3.5386,-3.4587,-3.4488,-3.4167,-3.3364,-3.3833,-3.421,-3.4042,0.0,0.0,-3.3792,-3.307,-3.2944,-3.3752,-3.3128,-3.2797,-3.2889,-3.2797,-3.2797,-3.2889,-3.2889,-3.3068,-3.3533,-3.3533,-3.3176,-3.2477,-3.0818,-3.0404,0.0,0.0,0.0,0.0,0.0,0.0,0.0,0.0,0.0,0.0,0.0,0.0,0.0,0.0,0.0,-3.4364,-3.8209,-4.1441,-4.3076,-4.4469,-4.4934,-4.3893,-4.3912,-4.4005,-4.4005,-4.4005,-4.4005,-4.4005,-4.4655,-4.4729,-4.4042,-4.4674,-4.4729,-4.4023,-4.4674,-4.5045,-4.5045,-4.5773,-4.5773,-4.5095,0.0,0.0,-4.5171,-4.532,-4.5674,-4.6071,-4.5523,-4.5194,-4.4989,-4.4283,-4.4005,-4.4005,-4.4005,-4.4005,-4.4005,-4.4005,-4.4005,-4.4005,-4.4005,-4.4005,-4.4005,-4.4005,-4.4005,-4.4005,-4.4005,-4.3893,0.0,-4.3968,-4.3893,-4.3801,-4.3968,-4.4005,-4.3968,-4.3801,-4.3763,-4.3559,-4.2742,-4.2445,-4.2129,-4.1479,-4.0568,-3.9918,-3.9918,-3.7986,-3.6408,-3.6259,-3.6222,-3.6147,-3.5973,-3.5528,-3.4952,-3.4247,-3.3519,-3.3087,-3.3013,-3.2815,-3.3022,-3.3831,-3.3668,-3.3862,-3.4495,-3.3917,-3.388,-3.4513,-3.4532,-3.4641,-3.484,-3.484,-3.4464,-3.371,-3.2405,-3.2056,0.0,0.0,0.0,0.0,0.0,0.0,0.0,0.0,0.0,0.0,0.0,-2.9258,0.0,0.0,-3.5795,-3.8674,-4.12,-4.3373,-4.5026,-4.5621,-4.5584,-4.4748,-4.4655,-4.4488,-4.4042,-4.4005,-4.4005,-4.4005,-4.4395,-4.4451,-4.4023,-4.4413,-4.4655,-4.4655,-4.5064,-4.5491,-4.59,-4.6387,-4.6368,-4.5946,-4.6053,-4.6085,-4.5991,-4.5991,-4.6201,-4.6541,-4.6099,-4.59,-4.5844,-4.4989,-4.4395,-4.4005,-4.4005,-4.4005,-4.4005,-4.4005,-4.4005,-4.4005,-4.4005,-4.4005,-4.4005,-4.4005,-4.4005,-4.4005,-4.4005,-4.4005,-4.4005,-4.4005,-4.4005,-4.4005,-4.4005,-4.4005,-4.4005,-4.4005,-4.4005,-4.3893,-4.3485,-4.3076,-4.2686,-4.2277,-4.1553,-4.0996,-4.0996,-3.964,-3.8265,-3.7429,-3.6946,-3.6686,-3.6686,-3.5955,-3.528,-3.4865,-3.437,-3.4104,-3.4035,-3.4002,-3.4281,-3.5055,-3.4679,-3.4798,-3.5624,-3.5257,-3.5135,-3.5344,-3.5344,-3.5281,-3.5151,-3.5151,-3.4871,-3.4352,-3.3736,-3.3487,0.0,0.0,0.0,0.0,0.0,0.0,0.0,0.0,-2.811,-3.0564,-3.2216,-3.3863,-3.6036,-3.7875,-4.0011,-4.2835,-4.4079,-4.5194,-4.6531,-4.6308,-4.5881,-4.5565,-4.5249,-4.4841,-4.4302,-4.4246,-4.4246,-4.4246,-4.4395,-4.4413,-4.4265,-4.4395,-4.4729,-4.5268,-4.5602,-4.6085,-4.6735,-4.6983,-4.6997,-4.6797,-4.6893,-4.6893,-4.6815,-4.6815,-4.6876,-4.6958,-4.6791,-4.655,-4.6215,-4.5565,-4.4785,-4.4005,-4.4005,-4.4005,-4.4005,-4.4005,-4.4005,-4.4005,-4.4005,-4.4005,-4.4005,-4.4005,-4.4005,-4.4005,-4.4005,-4.4005,-4.4005,-4.4005,-4.4005,-4.4005,-4.4005,-4.4005,-4.4005,-4.4005,-4.4005,-4.4005,-4.4005,-4.3485,-4.302,-4.302,-4.237,-4.1832,-4.1832,-4.1163,-4.0104,-3.8599,-3.7689,-3.7169,-3.7169,-3.6437,-3.5884,-3.5884,-3.5684,-3.5565,-3.5557,-3.5477,-3.5745,-3.6468,-3.5734,-3.5642,-3.6486,-3.6376,-3.6223,-3.6059,-3.5946,-3.5825,-3.5562,-3.5474,-3.5277,-3.4941,-3.4941,-3.4718,-2.3953,-2.4264,-2.5512,-2.7713,-2.83,-2.9654,0.0,0.0,-3.4036,-3.5597,-3.7177,-3.8599,-3.9658,-4.1739,-4.3689,-4.4822,-4.629,-4.7348,-4.7534,-4.8091,-4.798,-4.6531,-4.5045,-4.4413,-4.5082,-4.5138,-4.5138,-4.5138,-4.5825,-4.59,-4.5194,-4.5825,-4.5937,-4.5324,-4.668,-4.746,-4.7553,-4.8416,-4.8416,-4.7571,-4.7634,-4.7653,-4.7571,-4.7571,-4.7961,-4.8593,-4.7887,-4.6754,-4.5417,-4.5342,-4.4785,-4.4005,-4.4005,-4.4005,-4.4005,-4.4005,-4.4005,-4.4005,-4.4005,-4.4005,-4.4005,-4.4005,-4.4005,-4.4005,-4.4005,-4.4005,-4.4005,-4.4005,-4.4005,-4.4005,-4.4005,-4.4005,-4.4005,-4.4005,-4.4005,-4.4005,-4.4005,-4.3931,-4.3875,-4.3875,-4.3225,-4.2667,-4.2667,-4.1999,-4.1144,-4.0253,-3.938,-3.8822,-3.8822,-3.8116,-3.7634,-3.7634,-3.6983,-3.6496,-3.638,-3.6297,-3.6591,-3.7323,-3.6597,-3.6523,-3.7342,-3.667,-3.6615,-3.7301,-3.6958,-3.694,-3.7238,-3.6867,-3.6496,-3.6125,-3.6125,-3.5739,-2.7199,-2.7948,0.0,0.0,-3.2642,-3.5291,-3.7876,-3.8325,-3.8804,-4.0967,-4.2109,-4.2965,-4.3801,-4.4766,-4.5732,0.0,-4.7256,-4.7868,-4.8333,-4.7887,-4.7423,-4.7218,-4.5305,-4.4135,-4.4506,-4.4989,-4.5287,-4.5287,-4.5602,-4.5862,-4.5992,-4.5862,-4.6085,-4.668,-4.7348,-4.7924,-4.8389,-4.8795,-4.8795,-4.8389,-4.7939,-4.7977,-4.837,-4.7423,-4.7441,-4.8203,-4.8333,-4.7757,-4.6661,-4.6197,-4.5509,-4.4711,-4.4191,-4.4005,-4.4005,-4.4005,-4.4005,-4.4005,-4.4005,-4.4005,-4.4005,-4.4005,-4.4005,-4.4005,-4.4005,-4.4005,-4.4005,-4.4005,-4.4005,-4.4005,-4.4005,-4.4005,-4.4005,-4.4005,-4.4005,-4.4005,-4.4005,-4.4005,-4.4005,-4.4005,-4.3726,-4.3503,-4.3503,-4.2835,-4.2184,-4.185,-4.068,-3.9863,-3.9863,-3.8711,-3.7894,-3.7894,-3.7596,-3.7543,-3.7914,-3.747,-3.7458,-3.821,-3.7452,-3.7241,-3.7822,-3.7549,-3.7301,-3.7148,-3.697,-3.6872,-3.6781,-3.6638,-3.6451,-3.6301,-3.6301,-3.6128,-2.8936,0.0,0.0,-3.3624,-3.7151,-4.0496,-4.113,-4.2028,-4.3232,-4.5098,-4.5885,-4.6296,-4.6563,-4.6805,-4.7127,-4.7608,-4.7701,-4.7906,-4.85,-4.7571,-4.6884,-4.7014,-4.5454,-4.4265,-4.4023,-4.4785,-4.5379,-4.5602,-4.5621,-4.5974,-4.6791,-4.6271,-4.6494,-4.7664,-4.7924,-4.8314,-4.889,-4.8909,-4.8909,-4.889,-4.8314,-4.8333,-4.8872,-4.7683,-4.7478,-4.8054,-4.8649,-4.8444,-4.7646,-4.707,-4.6234,-4.5231,-4.4599,-4.4209,-4.4005,-4.4005,-4.4005,-4.4005,-4.4005,-4.4005,-4.4005,-4.4005,-4.4005,-4.4005,-4.4005,-4.4005,-4.4005,-4.4005,-4.4005,-4.4005,-4.4005,-4.4005,-4.4005,-4.4005,-4.4005,-4.4005,-4.4005,-4.4005,-4.4005,-4.4005,-4.4005,-4.4005,-4.4005,-4.3522,-4.3132,-4.3132,-4.1757,-4.0717,-4.0717,-3.9472,-3.8488,-3.8265,-3.8201,-3.8414,-3.897,-3.8403,-3.8224,-3.8785,-3.8198,-3.7973,-3.8267,-3.8252,-3.7948,-3.7228,-3.7132,-3.686,-3.6451,-3.6326,-3.6301,-3.6301,-3.6301,-3.6301,0.0,0.0,-3.5093,-3.837,-4.1726,-4.4578,-4.5975,-4.6906,-4.7446,-4.727,-4.7896,-4.817,-4.7089,-4.7537,-4.796,-4.775,-4.7701,-4.7701,-4.7738,-4.7683,-4.7088,-4.5565,-4.5305,-4.4934,0.0,-4.4785,-4.5621,-4.6401,-4.6457,-4.681,-4.7627,-4.7646,-4.7646,-4.7701,-4.8463,-4.889,-4.8909,-4.8909,-4.8909,-4.8909,-4.889,-4.889,-4.8909,-4.8853,-4.8834,-4.8872,-4.889,-4.8444,-4.7701,-4.7664,-4.6735,-4.5287,-4.5268,-4.4729,-4.4005,-4.4005,-4.4005,-4.4005,-4.4005,-4.4005,-4.4005,-4.4005,-4.4005,-4.4005,-4.4005,-4.4005,-4.4005,-4.4005,-4.4005,-4.4005,-4.4005,-4.4005,-4.4005,-4.4005,-4.4005,-4.4005,-4.4005,-4.4005,-4.4005,-4.4005,-4.4005,-4.4005,-4.4005,-4.3986,-4.3968,-4.3968,-4.2593,-4.1553,-4.1553,-4.0828,-3.9993,-3.9157,-3.8998,-3.8989,-3.8979,-3.8862,-3.8785,-3.8792,-3.8732,-3.867,-3.8676,-3.8676,-3.8483,-3.8068,-3.7685,-3.7266,-3.686,-3.6492,-3.6301,-3.6301,-3.6301,-3.6301,0.0,0.0,-4.0113,-4.2943,-4.6186,-4.8839,-4.9294,-4.9873,-4.9927,-4.8694,-4.7148,-4.5729,-4.4806,-4.4739,-4.4747,-4.4647,-4.6368,-4.7516,-4.6977,-4.6903,-4.6494,-4.5417,-4.4785,0.0,0.0,0.0,0.0,-4.6438,-4.6494,-4.707,-4.8426,-4.7999,-4.7943,-4.8481,-4.876,-4.8909,-4.8909,-4.8909,-4.8909,-4.8909,-4.8909,-4.863,-4.8129,-4.8667,-4.8612,-4.8091,-4.8091,-4.7646,-4.6903,-4.6903,-4.6587,-4.6104,-4.6104,-4.5584,-4.4859,-4.4859,-4.4506,-4.4005,-4.4005,-4.4005,-4.4005,-4.4005,-4.4005,-4.4005,-4.4005,-4.4005,-4.4005,-4.4005,-4.4005,-4.4005,-4.4005,-4.4005,-4.4005,-4.4005,-4.4005,-4.4005,-4.4005,-4.4005,-4.4005,-4.4005,-4.4005,-4.4005,-4.4005,-4.4005,-4.4005,-4.4005,-4.263,-4.12,-4.0067,-3.9695,-3.9435,-3.912,-3.9073,-3.9073,-3.9073,-3.8979,-3.8921,-3.8921,-3.8822,-3.8652,-3.8396,-3.8083,-3.7721,-3.7321,-3.69,-3.6638,-3.6492,-3.6385,-3.6559,-3.7094,-3.7094,-3.7353,0.0,-4.0829,-4.4117,-4.7289,-4.9966,-5.1711,-5.1402,-5.1299,-5.0696,-4.8681,-4.6044,-4.3748,-4.2519,-4.1652,-4.1268,-4.1705,-4.3453,-4.4954,-4.5509,-4.5361,-4.5212,-4.5287,-4.4804,-4.4339,0.0,0.0,0.0,-4.603,-4.6345,-4.707,-4.8407,-4.8259,-4.837,-4.889,-4.8909,-4.8909,-4.8909,-4.8909,-4.8909,-4.8909,-4.8909,-4.863,-4.8166,-4.8964,-4.889,-4.8147,-4.8426,-4.8091,-4.7367,-4.7367,-4.7181,-4.6921,-4.6921,-4.6438,-4.5677,-4.5398,-4.4952,-4.4413,-4.4116,-4.4005,-4.4005,-4.4005,-4.4005,-4.4005,-4.4005,-4.4005,-4.4005,-4.4005,-4.4005,-4.4005,-4.4005,-4.4005,-4.4005,-4.4005,-4.4005,-4.4005,-4.4005,-4.4005,-4.4005,-4.4005,-4.4005,-4.4005,-4.4005,-4.4005,-4.3893,-4.3615,-4.2686,-4.1534,-4.016,-3.9993,-3.9751,-3.9157,-3.9101,-3.9101,-3.9101,-3.9036,-3.8979,-3.8979,-3.891,-3.8664,-3.8281,-3.7964,-3.7542,-3.6995,-3.6998,-3.6908,-3.6715,-3.6715,-3.7129,-3.787,-3.7611,-3.7887,-4.1912,-4.4775,-4.7134,-5.1293,-5.2865,-5.3179,-5.229,-5.1333,-4.9891,-4.7212,-4.4581,-4.2151,0.0,0.0,-3.7908,-3.9051,-3.9532,-4.0801,-4.3664,-4.3485,-4.3633,0.0,0.0,0.0,0.0,0.0,0.0,-4.5361,0.0,-4.6884,-4.7776,-4.8556,-4.8983,-4.9039,-4.9039,-4.902,-4.8964,-4.8927,-4.8927,-4.8964,-4.8964,-4.8946,-4.8927,-4.9745,-4.9652,-4.889,-4.9652,-4.9522,-4.8779,-4.8816,-4.8389,-4.7701,-4.7701,-4.7218,-4.6401,-4.5602,-4.5268,-4.5119,-4.4283,-4.4005,-4.4005,-4.4005,-4.4005,-4.4005,-4.4005,-4.4005,-4.4005,-4.4005,-4.4005,-4.4005,-4.4005,-4.4005,-4.4005,-4.4005,-4.4005,-4.4005,-4.4005,-4.4005,-4.4005,-4.4005,-4.4005,-4.4005,-4.4005,-4.4005,-4.3745,-4.2983,-4.2853,-4.2556,-4.1702,-4.159,-4.0958,-3.9342,-3.9175,-3.9138,-3.9101,-3.9036,-3.8979,-3.8979,-3.8921,-3.8743,-3.8382,-3.8382,-3.7966,-3.72,-3.7827,-3.7988,-3.7586,-3.7586,-3.7922,-3.8629,-3.7922,-3.7991,-4.52,-4.8295,-5.1138,-5.3536,-5.3807,-5.3249,-5.236,-5.0941,-4.8555,-4.4099,-4.0588,-3.7416,0.0,0.0,0.0,-3.6767,-4.1405,0.0,-4.4947,-4.5825,0.0,0.0,0.0,-4.6104,-4.5881,-4.6067,0.0,0.0,-4.6382,-4.7367,-4.9392,-4.9689,-5.0098,-5.0748,-5.0766,-5.045,-4.98,-4.9206,-4.9206,-4.98,-4.98,-4.9485,-4.8927,-4.9745,-4.9336,-4.8017,-4.8221,-4.7868,-4.7163,-4.7757,-4.7887,-4.7701,-4.7701,-4.7218,-4.6401,-4.5602,-4.4878,-4.4302,-4.4079,-4.4005,-4.4005,-4.4005,-4.4005,-4.4005,-4.4005,-4.4005,-4.4005,-4.4005,-4.4005,-4.4005,-4.4005,-4.4005,-4.4005,-4.4005,-4.4005,-4.4005,-4.4005,-4.4005,-4.4005,-4.4005,-4.4005,-4.4005,-4.4005,-4.4005,-4.3931,-4.3726,-4.3689,-4.3188,-4.1776,-4.159,-4.12,-4.0178,-4.0067,-3.9807,-3.9157,-3.9073,-3.8989,-3.8718,-3.8873,-3.8676,-3.8047,-3.7964,-3.8008,-3.8054,-3.7947,-3.8101,-3.8468,-3.8468,-3.8805,-3.9405,-3.9215,-3.9543,-4.901,-5.1583,-5.3575,-5.4561,-5.4136,-5.2782,-5.0016,-4.8017,-4.5075,-3.9245,-3.5856,0.0,0.0,0.0,0.0,0.0,0.0,0.0,-4.4733,-4.5289,-4.5918,0.0,-4.7033,0.0,-4.6531,-4.6828,-4.7163,0.0,-4.7553,-4.8147,-4.9503,-5.0283,-5.0729,-5.0822,-5.1193,-5.1175,-5.0692,-4.9837,-4.9652,-5.0098,-4.9745,-4.9355,-4.8946,-5.0135,-4.9782,-4.8277,0.0,-4.8649,-4.759,-4.8036,-4.824,-4.824,-4.824,-4.7943,-4.7404,-4.6252,-4.5509,-4.5045,-4.4692,-4.4321,-4.4005,-4.4005,-4.4005,-4.4005,-4.4005,-4.4005,-4.4005,-4.4005,-4.4005,-4.4005,-4.4005,-4.4005,-4.4005,-4.4005,-4.4005,-4.4005,-4.4005,-4.4005,-4.4005,-4.4005,-4.4005,-4.4005,-4.4005,-4.4005,-4.4005,-4.4005,-4.4005,-4.367,-4.276,-4.2352,-4.1683,-4.0513,-4.0401,-4.0048,-3.9175,-3.9101,-3.897,-3.8609,-3.8737,-3.8651,-3.8259,-3.8205,-3.8378,-3.8707,-3.8828,-3.906,-3.9381,-3.9292,-3.9628,-4.0308,-3.9899,-4.0129,-5.2627,-5.4291,-5.4929,-5.4832,-5.3962,-5.1834,-4.6786,-4.4109,-4.0797,-3.4121,0.0,-2.9685,-2.7913,0.0,-3.2071,-3.3773,0.0,-4.028,-4.4044,-4.3988,-4.4581,-4.7367,-4.7828,-4.7638,-4.6884,-4.7553,-4.8314,-4.902,-4.928,-4.9392,-4.9392,-5.0766,-5.1268,-5.0618,-5.1231,-5.1602,-5.1714,-5.0636,-5.0172,-5.0265,-4.9447,-4.9002,-4.8964,-5.0636,-5.0488,-4.9002,-5.0543,0.0,-4.8909,-4.8909,-4.8909,-4.889,-4.8779,-4.8742,-4.8556,-4.7051,-4.6494,-4.6401,-4.5695,-4.4952,-4.4302,-4.4209,-4.4098,-4.4005,-4.4005,-4.4005,-4.4005,-4.4005,-4.4005,-4.4005,-4.4005,-4.4005,-4.4005,-4.4005,-4.4005,-4.4005,-4.4005,-4.4005,-4.4005,-4.4005,-4.4005,-4.4005,-4.4005,-4.4005,-4.4005,-4.4005,-4.4005,-4.4005,-4.4005,-4.3392,-4.237,-4.0866,-4.0717,-4.0327,-3.9342,-3.9268,-3.9081,-3.8628,-3.8689,-3.8736,-3.8701,-3.877,-3.8965,-3.9283,-3.9983,-4.0298,-4.0279,-4.0162,-4.0464,-4.1076,-4.0274,-4.0262,-5.4175,-5.518,-5.5625,-5.4967,-5.3053,-5.021,-4.5819,-4.235,0.0,0.0,0.0,-2.8683,-2.6285,-2.8469,0.0,-3.4432,0.0,0.0,0.0,0.0,-4.7579,0.0,0.0,0.0,0.0,0.0,0.0,0.0,0.0,-5.1955,-5.1955,-5.2234,-5.2624,-5.3144,-5.2661,-5.2717,-5.3385,-5.1212,-5.0469,-5.1156,-5.0302,-4.954,-4.8964,-5.0636,-5.0488,-4.8946,-4.9912,0.0,-4.8909,-4.8909,-4.8909,-4.8834,-4.8166,-4.7906,-4.7794,-4.6847,-4.6494,-4.6475,-4.6345,-4.6197,-4.5955,-4.5287,-4.4581,-4.4005,-4.4005,-4.4005,-4.4005,-4.4005,-4.4005,-4.4005,-4.4005,-4.4005,-4.4005,-4.4005,-4.4005,-4.4005,-4.4005,-4.4005,-4.4005,-4.4005,-4.4005,-4.4005,-4.4005,-4.4005,-4.4005,-4.4005,-4.4005,-4.4005,-4.4005,-4.3875,-4.3429,-4.2482,-4.237,-4.1776,-4.029,-4.016,-3.9729,-3.8664,-3.9239,-3.9337,-3.8719,-3.9287,-3.9802,-4.0253,-4.0411,-4.0692,-4.1171,-4.1126,-4.115,-4.1163,-4.1024,-4.0967,-5.4948,-5.5722,-5.5702,-5.4445,-5.1834,-4.814,-4.255,0.0,0.0,0.0,0.0,-2.6718,-2.5087,0.0,0.0,0.0,0.0,0.0,0.0,0.0,0.0,0.0,0.0,0.0,0.0,0.0,0.0,0.0,0.0,-5.2605,-5.2605,-5.2605,-5.2977,-5.3775,-5.3032,-5.2995,-5.3794,-5.1788,-5.0989,-5.1379,-5.0098,-4.928,-4.8946,-5.0172,-5.006,-4.8946,-4.9763,0.0,-4.8909,-4.8909,-4.8909,-4.8872,-4.8481,-4.8314,-4.824,-4.7423,-4.7125,-4.7125,-4.7125,-4.6847,-4.6513,-4.6531,-4.5695,-4.4581,-4.4135,-4.4005,-4.4005,-4.4005,-4.4005,-4.4005,-4.4005,-4.4005,-4.4005,-4.4005,-4.4005,-4.4005,-4.4005,-4.4005,-4.4005,-4.4005,-4.4005,-4.4005,-4.4005,-4.4005,-4.4005,-4.4005,-4.4005,-4.4005,-4.4005,-4.4005,-4.3689,-4.289,-4.2797,-4.2314,-4.1126,-4.1014,-4.0711,-3.9963,-4.0212,-4.0385,-4.0274,-4.0597,-4.1058,-4.1685,-4.1476,-4.1545,-4.1813,-4.1542,-4.138,-4.1318,-4.1255,-4.1163,-5.4871,-5.5741,-5.5548,-5.3691,-5.0654,-4.6322,-3.9475,-3.5278,0.0,0.0,-2.4973,-2.5208,-2.4571,0.0,0.0,0.0,0.0,0.0,0.0,0.0,0.0,0.0,0.0,0.0,0.0,0.0,0.0,0.0,0.0,0.0,-5.2865,-5.2865,-5.3144,-5.3775,-5.32,-5.3088,-5.3553,-5.2122,-5.1305,-5.1101,-4.9615,-4.8909,-4.8927,-4.9745,-4.967,-4.8946,-4.9763,0.0,0.0,-4.8909,-4.8909,-4.8909,-4.8909,-4.8909,-4.8816,-4.8184,-4.7961,-4.7961,-4.7961,-4.7534,-4.7088,-4.7553,-4.6605,-4.5194,-4.4692,-4.4413,-4.4283,-4.4283,-4.4283,-4.4246,-4.4042,-4.4005,-4.4005,-4.4005,-4.4005,-4.4005,-4.4005,-4.4005,-4.4005,-4.4005,-4.4005,-4.4005,-4.4005,-4.4005,-4.4005,-4.4005,-4.4005,-4.4005,-4.4005,-4.4005,-4.3763,-4.3113,-4.3058,-4.2723,-4.1924,-4.185,-4.1668,-4.1217,-4.1232,-4.1415,-4.1795,-4.1887,-4.2213,-4.2792,-4.2501,-4.232,-4.232,-4.1813,-4.1569,-4.1587,-4.1391,-4.1255,-5.344,-5.4832,-5.5412,-5.2937,-4.9745,-4.5432,-3.8586,0.0,0.0,0.0,-2.5398,-2.5382,-2.5305,-2.5597,0.0,0.0,0.0,0.0,0.0,0.0,0.0,0.0,0.0,0.0,0.0,0.0,0.0,0.0,0.0,0.0,-5.3701,-5.3701,-5.372,-5.3813,-5.3738,-5.3367,-5.2717,-5.1844,-5.1008,-5.0209,-4.9317,-4.8909,-4.8927,-4.9745,-4.967,-4.8946,-4.9763,0.0,0.0,-4.8909,-4.8909,-4.8909,-4.8909,-4.8909,-4.889,-4.8816,-4.8797,-4.8797,-4.8797,-4.8742,-4.8574,-4.7906,-4.6605,-4.5417,-4.6067,-4.5751,-4.5175,-4.5175,-4.5175,-4.4989,-4.4209,-4.4005,-4.4005,-4.4005,-4.4005,-4.4005,-4.4005,-4.4005,-4.4005,-4.4005,-4.4005,-4.4005,-4.4005,-4.4005,-4.4005,-4.4005,-4.4005,-4.4005,-4.4005,-4.4005,-4.3968,-4.3893,-4.3893,-4.3559,-4.276,-4.2686,-4.237,-4.1598,-4.188,-4.2106,-4.2145,-4.2505,-4.2737,-4.281,-4.2754,-4.2716,-4.2716,-4.232,-4.2133,-4.2133,-4.1744,-4.1515,-5.1641,-5.3594,-5.4,-5.1931,-4.8082,-4.3421,-3.8102,0.0,0.0,-2.5492,-2.5116,-2.5302,-2.4761,-2.5073,-2.5848,-2.7171,0.0,0.0,0.0,0.0,0.0,0.0,0.0,0.0,0.0,0.0,0.0,0.0,0.0,0.0,-5.3813,-5.3813,-5.3813,-5.3813,-5.3813,-5.3664,-5.333,-5.2048,-5.1231,-5.0878,-4.954,-4.8909,-4.8909,-4.9243,-4.9206,-4.8927,-4.9243,0.0,0.0,-4.8909,-4.8909,-4.8909,-4.8909,-4.8909,-4.8909,-4.8909,-4.8909,-4.8909,-4.8909,-4.8909,-4.8853,-4.8537,-4.7664,-4.6717,-4.655,-4.5937,-4.5398,-4.5881,-4.6011,-4.5825,-4.4989,-4.4395,-4.4005,-4.4005,-4.4005,-4.4005,-4.4005,-4.4005,-4.4005,-4.4005,-4.4005,-4.4005,-4.4005,-4.4005,-4.4005,-4.4005,-4.4005,-4.4005,-4.4005,-4.4005,-4.4005,-4.4005,-4.4005,-4.3875,-4.3559,-4.3522,-4.3392,-4.3058,-4.3193,-4.3296,-4.3296,-4.3461,-4.3508,-4.3508,-4.3283,-4.3177,-4.3177,-4.2772,-4.258,-4.2541,-4.2175,-4.1941,-4.7985,-5.0925,-5.226,-5.0268,-4.6322,-4.1738,0.0,0.0,0.0,-2.5182,-2.4873,-2.5008,-2.466,-2.505,-2.5429,-2.5401,0.0,-2.7875,0.0,0.0,0.0,0.0,0.0,0.0,0.0,0.0,0.0,0.0,0.0,0.0,-5.3813,-5.3571,-5.346,-5.346,-5.346,-5.3218,-5.2717,-5.1584,-5.0896,-5.0655,-4.9466,-4.8909,-4.8909,-4.8909,-4.8909,-4.8909,-4.8909,0.0,0.0,-4.8962,-4.8978,-4.8978,-4.8978,-4.8978,-4.8962,-4.8962,-4.8943,-4.8909,-4.8909,-4.8909,-4.8872,-4.863,-4.8166,-4.759,-4.7033,-4.6457,-4.6122,-4.6698,-4.668,-4.6364,-4.5788,-4.5194,-4.4674,-4.4432,-4.4376,-4.4302,-4.4061,-4.4005,-4.4005,-4.4005,-4.4005,-4.4005,-4.4005,-4.4005,-4.4005,-4.4005,-4.4005,-4.4005,-4.4005,-4.4005,-4.4005,-4.4005,-4.4005,-4.4005,-4.4005,-4.4005,-4.4005,-4.4005,-4.4005,-4.4005,-4.4005,-4.4005,-4.4005,-4.4005,-4.3744,-4.3594,-4.3594,-4.3177,-4.2996,-4.2941,-4.2422,-4.2133,-4.1874,-4.6419,-5.0326,-4.7773,-4.4562,-4.0674,0.0,0.0,0.0,-2.584,-2.4815,-2.4467,-2.5337,-2.5492,-2.5484,-2.5401,-2.6135,0.0,0.0,0.0,0.0,0.0,0.0,0.0,0.0,0.0,0.0,0.0,0.0,0.0,-5.3813,-5.3051,-5.2605,-5.2605,-5.2605,-5.1825,-5.0153,-5.0135,-4.9707,-4.8927,-4.8909,-4.8909,-4.8909,-4.8909,-4.8909,0.0,0.0,0.0,0.0,-4.9101,-4.915,-4.9197,-4.9197,-4.915,-4.9101,-4.9101,-4.8996,-4.8909,-4.8909,-4.8909,-4.8779,-4.798,-4.7701,-4.7701,-4.7683,-4.7683,-4.7683,-4.7683,-4.7107,-4.6494,-4.6494,-4.6475,-4.6271,-4.5472,-4.5287,-4.5045,-4.4191,-4.4005,-4.4005,-4.4005,-4.4005,-4.4005,-4.4005,-4.4005,-4.4005,-4.4005,-4.4005,-4.4005,-4.4005,-4.4005,-4.4005,-4.4005,-4.4005,-4.4005,-4.4005,-4.4005,-4.4005,-4.4005,-4.4005,-4.4005,-4.4005,-4.4005,-4.4005,-4.4005,-4.4005,-4.4005,-4.4005,-4.3594,-4.3406,-4.3353,-4.258,-4.1984,-3.5936,-3.8624,-4.0172,-3.876,-3.6303,-3.3634,-3.141,0.0,0.0,-2.3964,-2.3499,-2.3403,-2.3674,-2.4215,-2.4989,-2.6114,-2.652,0.0,0.0,0.0,0.0,0.0,0.0,0.0,0.0,0.0,0.0,0.0,0.0,0.0,-5.2215,-5.2438,-5.2605,-5.2605,-5.2067,-5.1528,-5.0989,-5.0395,-4.9986,-4.9707,-4.9169,-4.8909,-4.8909,-4.8909,-4.8962,0.0,0.0,0.0,0.0,-4.8911,-4.88,-4.8431,-4.8973,-4.9197,-4.9164,-4.9135,-4.9068,-4.9015,-4.8909,-4.8909,-4.8872,-4.8612,-4.8519,-4.8519,-4.8519,-4.8147,-4.7813,-4.837,-4.7943,-4.7311,-4.7311,-4.6494,-4.5621,-4.5361,-4.4841,-4.4339,-4.4061,-4.4005,-4.4005,-4.4005,-4.4005,-4.4005,-4.4005,-4.4005,-4.4005,-4.4005,-4.4005,-4.4005,-4.4005,-4.4005,-4.4005,-4.4005,-4.4005,-4.4005,-4.4005,-4.4005,-4.4005,-4.4005,-4.4005,-4.4005,-4.4005,-4.4005,-4.4005,-4.4005,-4.4005,-4.4005,-4.4005,-4.3892,-4.366,-4.3406,-4.3141,-4.2792,0.0,-3.3073,-3.4505,-3.3634,-3.1758,0.0,0.0,0.0,0.0,0.0,-2.2648,-2.2636,-2.3267,-2.3828,-2.466,-2.6025,-2.6489,0.0,0.0,0.0,0.0,0.0,0.0,0.0,0.0,0.0,0.0,0.0,0.0,0.0,-5.1472,-5.1881,-5.1992,-5.1676,-5.1175,-5.0766,-5.0469,-4.993,-4.9652,-4.9652,-4.915,-4.8742,-4.8463,-4.876,-4.8776,0.0,0.0,0.0,0.0,-4.8511,-4.845,-4.8153,-4.8977,-4.9295,-4.9244,-4.9197,-4.915,-4.9101,-4.903,-4.8978,-4.8853,-4.8571,-4.8479,-4.85,-4.8816,-4.8333,-4.7794,-4.8314,-4.8091,-4.7701,-4.7701,-4.6958,-4.6197,-4.6197,-4.5324,-4.4488,-4.4488,-4.4228,-4.4005,-4.4005,-4.4005,-4.4005,-4.4005,-4.4005,-4.4005,-4.4005,-4.4005,-4.4005,-4.4005,-4.4005,-4.4005,-4.4005,-4.4005,-4.4005,-4.4005,-4.4005,-4.4005,-4.4005,-4.4005,-4.4005,-4.4005,-4.4005,-4.4005,-4.4005,-4.4005,-4.4005,-4.4005,-4.4005,-4.3777,-4.3406,-4.3406,-4.3177,0.0,0.0,0.0,0.0,0.0,0.0,0.0,0.0,0.0,0.0,0.0,0.0,0.0,-2.4157,-2.4447,-2.5511,-2.6354,0.0,0.0,0.0,0.0,0.0,0.0,0.0,0.0,0.0,0.0,0.0,0.0,0.0,-5.1268,-5.1268,-5.0915,-5.0042,-5.0023,-4.967,-4.8909,-4.8909,-4.8909,-4.8909,-4.8909,-4.8481,-4.772,-4.8481,-4.8438,0.0,0.0,0.0,0.0,-4.7997,-4.799,-4.8101,-4.9039,-4.9346,-4.9214,-4.927,-4.923,-4.9116,-4.9164,-4.9079,-4.8813,-4.81,-4.7843,-4.7924,-4.8667,-4.8389,-4.7794,-4.7794,-4.7794,-4.7776,-4.7701,-4.7664,-4.7608,-4.7534,-4.6345,-4.5212,-4.5212,-4.4562,-4.4005,-4.4005,-4.4005,-4.4005,-4.4005,-4.4005,-4.4005,-4.4005,-4.4005,-4.4005,-4.4005,-4.4005,-4.4005,-4.4005,-4.4005,-4.4005,-4.4005,-4.4005,-4.4005,-4.4005,-4.4005,-4.4005,-4.4005,-4.4005,-4.4005,-4.4005,-4.4005,-4.4005,-4.4005,-4.4005,-4.3809,-4.344,-4.344,-4.3248,-2.1617,0.0,-2.3338,-2.3125,0.0,0.0,0.0,0.0,0.0,0.0,0.0,0.0,0.0,0.0,0.0,0.0,0.0,0.0,0.0,0.0,0.0,0.0,0.0,0.0,0.0,0.0,0.0,0.0,0.0,-5.115,-4.9559,-5.0219,-5.0182,-4.9206,-4.9275,-4.9201,-4.8909,-4.8909,-4.8962,-4.9049,-4.9049,-4.8602,-4.7783,-4.8073,-4.7751,0.0,0.0,0.0,-4.6307,-4.6885,-4.6772,-4.643,-4.7913,-4.8495,-4.8539,-4.9096,-4.9276,-4.9244,-4.9211,-4.9131,-4.903,-4.872,-4.8612,-4.8649,-4.8834,-4.8779,-4.863,-4.863,-4.863,-4.8481,-4.7868,-4.7237,-4.6624,-4.6011,-4.5064,-4.4302,-4.4302,-4.4135,-4.4005,-4.4005,-4.4005,-4.4005,-4.4005,-4.4005,-4.4005,-4.4005,-4.4005,-4.4005,-4.4005,-4.4005,-4.4005,-4.4005,-4.4005,-4.4005,-4.4005,-4.4005,-4.4005,-4.4005,-4.4005,-4.4005,-4.4005,-4.4005,-4.4005,-4.4005,-4.4005,-4.4005,-4.4005,-4.4005,-4.3955,-4.386,-4.386,-4.3809,-2.0399,-2.0695,-2.1004,-2.1004,-2.1004,-2.1121,0.0,0.0,0.0,0.0,0.0,0.0,0.0,0.0,0.0,0.0,0.0,0.0,0.0,0.0,0.0,0.0,0.0,0.0,0.0,0.0,0.0,0.0,0.0,-5.0437,-4.9071,-4.9896,-4.9986,-4.9083,-4.9098,-4.9116,-4.8996,-4.8606,-4.8639,-4.915,-4.8385,-4.777,-4.7303,-4.7372,-4.6968,0.0,0.0,0.0,-4.5735,-4.6127,-4.6063,-4.5866,-4.7537,-4.8194,-4.8307,-4.909,-4.934,-4.9308,-4.9327,-4.9262,-4.9164,-4.9079,-4.903,-4.8996,-4.8996,-4.8962,-4.8816,-4.8444,-4.8351,-4.8259,-4.7813,-4.7386,-4.7033,-4.6977,-4.603,-4.5157,-4.5157,-4.5157,-4.4915,-4.4153,-4.4321,-4.4469,-4.4079,-4.4005,-4.4005,-4.4005,-4.4005,-4.4005,-4.4005,-4.4005,-4.4005,-4.4005,-4.4005,-4.4005,-4.4005,-4.4005,-4.4005,-4.4005,-4.4005,-4.4005,-4.4005,-4.4005,-4.4005,-4.4005,-4.4005,-4.4005,-4.4005,-4.4005,-4.4005,-4.4005,-4.4005,-4.4005,-2.0392,-2.1217,-2.1998,-2.1611,-2.1591,-2.1707,0.0,0.0,0.0,0.0,0.0,0.0,0.0,0.0,0.0,0.0,0.0,0.0,0.0,0.0,0.0,0.0,0.0,0.0,0.0,0.0,0.0,0.0,0.0,-4.9926,-4.9172,-4.9851,-4.994,-4.9197,-4.9099,-4.9011,-4.8949,-4.8222,-4.818,-4.8819,-4.7398,-4.6638,-4.6526,-4.6539,-4.612,-4.5413,0.0,0.0,-4.5528,-4.5528,-4.5528,-4.5679,-4.735,-4.7932,-4.7932,-4.8927,-4.9234,-4.9171,-4.9402,-4.9409,-4.9308,-4.9211,-4.915,-4.9101,-4.9101,-4.9015,-4.876,-4.8091,-4.7887,-4.785,-4.7738,-4.7608,-4.7683,-4.837,-4.7404,-4.6308,-4.6308,-4.6401,-4.5992,-4.4321,-4.4692,-4.5008,-4.4153,-4.4005,-4.4005,-4.4005,-4.4005,-4.4005,-4.4005,-4.4005,-4.4005,-4.4005,-4.4005,-4.4005,-4.4005,-4.4005,-4.4005,-4.4005,-4.4005,-4.4005,-4.4005,-4.4005,-4.4005,-4.4005,-4.4005,-4.4005,-4.4005,-4.4005,-4.4005,-4.4005,-4.4005,-4.4005,-2.0327,-2.2028,-2.3306,-2.114,-2.114,-2.1707,0.0,0.0,0.0,0.0,0.0,0.0,0.0,0.0,0.0,0.0,0.0,0.0,0.0,0.0,0.0,0.0,0.0,0.0,0.0,0.0,0.0,0.0,0.0,-4.9527,-4.9197,-4.9458,-4.9508,-4.9197,-4.8589,-4.8265,-4.8234,-4.8058,-4.7684,-4.7161,-4.6899,-4.6431,-4.5758,-4.5846,-4.5396,-4.4599,0.0,-4.4655,-4.4684,-4.4684,-4.4684,-4.4853,-4.6542,-4.673,-4.6261,-4.7819,-4.8401,-4.8446,-4.9096,-4.9308,-4.9308,-4.9211,-4.915,-4.9101,-4.9101,-4.9015,-4.8872,-4.876,-4.8723,-4.8556,-4.7887,-4.7181,-4.6717,-4.6828,-4.616,-4.5472,-4.5472,-4.6011,-4.5992,-4.4321,-4.4692,-4.5008,-4.4153,-4.4005,-4.4005,-4.4005,-4.4005,-4.4005,-4.4005,-4.4005,-4.4005,-4.4005,-4.4005,-4.4005,-4.4005,-4.4005,-4.4005,-4.4005,-4.4005,-4.4005,-4.4005,-4.4005,-4.4005,-4.4005,-4.4005,-4.4005,-4.4005,-4.4005,-4.4005,-4.4005,-4.4005,-4.4005,-2.0211,-2.1443,-2.2562,-2.1776,-2.2956,-2.421,0.0,0.0,0.0,0.0,0.0,0.0,0.0,0.0,0.0,0.0,0.0,0.0,0.0,0.0,0.0,0.0,0.0,0.0,0.0,0.0,0.0,0.0,0.0,0.0,-4.8608,-4.8321,-4.8108,-4.7997,-4.7672,-4.729,-4.6802,-4.6772,-4.681,-4.6896,-4.5996,-4.5846,-4.6334,-4.5444,-4.5068,-4.5058,0.0,-4.4515,-4.4533,-4.4984,-4.5153,-4.5266,-4.6523,-4.6768,-4.6505,-4.7274,-4.7838,-4.8251,-4.8596,-4.8965,-4.9289,-4.9276,-4.9164,-4.9101,-4.9101,-4.9015,-4.8909,-4.8909,-4.8593,-4.8277,-4.8333,-4.7423,-4.6717,-4.759,-4.7181,-4.6605,-4.6605,-4.7237,-4.7181,-4.5101,-4.5379,-4.5677,-4.4841,-4.4302,-4.4153,-4.4618,-4.4302,-4.4005,-4.4005,-4.4005,-4.4005,-4.4005,-4.4005,-4.4005,-4.4005,-4.4005,-4.4005,-4.4005,-4.4005,-4.4005,-4.4005,-4.4005,-4.4005,-4.4005,-4.4005,-4.4005,-4.4005,-4.4005,-4.4005,-4.4005,-4.4005,-4.3892,-2.0079,-2.0899,-2.1845,-2.2208,0.0,-2.5515,0.0,0.0,0.0,0.0,0.0,0.0,0.0,0.0,0.0,0.0,0.0,0.0,0.0,0.0,0.0,0.0,0.0,0.0,0.0,0.0,0.0,0.0,0.0,0.0,-4.7847,-4.729,-4.7012,-4.7012,-4.6805,-4.6392,-4.5716,-4.551,-4.5754,-4.6411,-4.5115,-4.5172,-4.6392,-4.5284,-4.5115,-4.5679,-4.5266,-4.5097,-4.5134,-4.5754,-4.5998,-4.6092,-4.6955,-4.7181,-4.7012,-4.7012,-4.7256,-4.7669,-4.8063,-4.8546,-4.9027,-4.9027,-4.9048,-4.9101,-4.9101,-4.9015,-4.8909,-4.8909,-4.8184,-4.7646,-4.8649,-4.785,-4.7144,-4.8556,-4.8296,-4.7701,-4.7701,-4.8333,-4.8184,-4.5769,-4.5955,-4.6178,-4.5157,-4.4432,-4.4228,-4.4896,-4.4432,-4.4005,-4.4005,-4.4005,-4.4005,-4.4005,-4.4005,-4.4005,-4.4005,-4.4005,-4.4005,-4.4005,-4.4005,-4.4005,-4.4005,-4.4005,-4.4005,-4.4005,-4.4005,-4.4005,-4.4005,-4.4005,-4.4005,-4.4005,-4.4005,-4.3841,-2.0021,-2.1234,-2.2345,-2.1585,0.0,0.0,0.0,0.0,0.0,0.0,0.0,0.0,0.0,0.0,0.0,0.0,0.0,0.0,0.0,0.0,0.0,0.0,0.0,0.0,0.0,0.0,0.0,0.0,0.0,0.0,-4.7023,-4.699,-4.7012,-4.7012,-4.6223,-4.5754,-4.5697,-4.4965,-4.4627,-4.4684,-4.4571,-4.4571,-4.4702,-4.5341,-4.5641,-4.5735,-4.6486,-4.6824,-4.6824,-4.688,-4.6918,-4.6993,-4.78,-4.765,-4.7012,-4.7012,-4.6523,-4.6092,-4.765,-4.819,-4.8203,-4.8203,-4.86,-4.9101,-4.9101,-4.9015,-4.8909,-4.8909,-4.7776,-4.694,-4.85,-4.8259,-4.7831,-4.8686,-4.8296,-4.7701,-4.7701,-4.8333,-4.8184,-4.5769,-4.5955,-4.5992,-4.4376,-4.4042,-4.4023,-4.4079,-4.4042,-4.4005,-4.4005,-4.4005,-4.4005,-4.4005,-4.4005,-4.4005,-4.4005,-4.4005,-4.4005,-4.4005,-4.4005,-4.4005,-4.4005,-4.4005,-4.4005,-4.4005,-4.4005,-4.4005,-4.4005,-4.4005,-4.4005,-4.4005,-4.4005,-4.3986,-1.9851,-2.1119,-2.2391,-2.1954,0.0,0.0,0.0,0.0,0.0,0.0,0.0,0.0,0.0,0.0,0.0,0.0,0.0,0.0,0.0,0.0,0.0,0.0,0.0,0.0,0.0,0.0,0.0,0.0,0.0,0.0,-4.6064,-4.5619,-4.5377,-4.5377,-4.5106,-4.4946,-4.4946,-4.4665,-4.4515,-4.4515,-4.4515,-4.4777,-4.5247,-4.504,-4.5228,-4.5697,-4.5528,-4.5453,-4.5491,-4.5998,-4.6186,-4.6223,-4.6523,-4.6148,-4.551,-4.6017,-4.6336,-4.6599,-4.7177,-4.7679,-4.7922,-4.7354,-4.7295,-4.7489,-4.7489,-4.7809,-4.8054,-4.7553,-4.733,-4.7497,-4.8612,-4.7163,-4.5862,-4.772,-4.7163,-4.6345,-4.6847,-4.759,-4.7738,-4.6308,-4.629,-4.629,-4.5658,-4.4692,-4.4358,-4.5398,-4.4674,-4.4191,-4.4729,-4.4339,-4.4005,-4.4005,-4.4005,-4.4005,-4.4005,-4.4005,-4.4005,-4.4005,-4.4005,-4.4005,-4.4005,-4.4005,-4.4005,-4.4005,-4.4005,-4.4005,-4.4005,-4.4005,-4.4005,-4.4005,-4.4005,-4.386,-2.0145,-2.1004,-2.2073,0.0,0.0,0.0,0.0,0.0,0.0,0.0,0.0,0.0,0.0,0.0,0.0,0.0,0.0,0.0,0.0,0.0,0.0,0.0,0.0,0.0,0.0,0.0,0.0,0.0,0.0,0.0,0.0,-4.4643,-4.4373,-4.4373,-4.4411,-4.4487,-4.4487,-4.4487,-4.4515,-4.4515,-4.4515,-4.4796,-4.5303,-4.5021,-4.519,-4.5679,-4.5416,-4.5303,-4.5341,-4.5885,-4.611,-4.6073,-4.581,-4.5359,-4.4946,-4.551,-4.5894,-4.6232,-4.6435,-4.6794,-4.7074,-4.6432,-4.6336,-4.6494,-4.6494,-4.6884,-4.7218,-4.6643,-4.6717,-4.7125,-4.7924,-4.6475,-4.5212,-4.6921,-4.6475,-4.5825,-4.6382,-4.6921,-4.707,-4.6271,-4.6327,-4.642,-4.616,-4.5175,-4.4896,-4.629,-4.5305,-4.4618,-4.5212,-4.4785,-4.4302,-4.4023,-4.4005,-4.4005,-4.4005,-4.4005,-4.4005,-4.4005,-4.4005,-4.4005,-4.4005,-4.4005,-4.4005,-4.4005,-4.4005,-4.4005,-4.4005,-4.4005,-4.4005,-4.4005,-4.4005,-4.3777,-2.099,-2.1009,0.0,0.0,0.0,0.0,0.0,0.0,0.0,0.0,0.0,0.0,0.0,0.0,0.0,0.0,0.0,0.0,0.0,0.0,0.0,0.0,0.0,0.0,0.0,0.0,0.0,0.0,0.0,0.0,0.0,-4.4255,-4.4285,-4.4285,-4.4354,-4.4383,-4.4383,-4.4487,-4.4515,-4.4515,-4.4515,-4.4515,-4.4533,-4.5341,-4.5697,-4.5735,-4.6599,-4.6993,-4.6993,-4.6993,-4.6993,-4.6899,-4.6035,-4.5697,-4.5697,-4.5697,-4.5162,-4.4514,-4.5319,-4.5529,-4.5395,-4.5395,-4.5871,-4.6475,-4.6475,-4.6475,-4.6494,-4.6475,-4.59,-4.5472,-4.6271,-4.6475,-4.6475,-4.6494,-4.6475,-4.6475,-4.6475,-4.6475,-4.6252,-4.5454,-4.5955,-4.6252,-4.5454,-4.5305,-4.5565,-4.6382,-4.5807,-4.5287,-4.5287,-4.5287,-4.4952,-4.4098,-4.4005,-4.4005,-4.4005,-4.4005,-4.4005,-4.4005,-4.4005,-4.4005,-4.4005,-4.4005,-4.4005,-4.4005,-4.4005,-4.4005,-4.4005,-4.4005,-4.4005,-4.4005,-4.4005,-4.3777,-2.0101,0.0,0.0,0.0,0.0,0.0,0.0,0.0,0.0,0.0,0.0,0.0,0.0,0.0,0.0,0.0,0.0,0.0,0.0,0.0,0.0,0.0,0.0,0.0,0.0,0.0,0.0,0.0,0.0,0.0,0.0,-4.329,-4.333,-4.333,-4.3968,-4.4354,-4.4383,-4.4411,-4.444,-4.4515,-4.4515,-4.4515,-4.4515,-4.4759,-4.4871,-4.4871,-4.5134,-4.5247,-4.5247,-4.5247,-4.5247,-4.5228,-4.4965,-4.4871,-4.4928,-4.5491,-4.5547,-4.5321,-4.5496,-4.5499,-4.5345,-4.4643,-4.4575,-4.4748,-4.4748,-4.5175,-4.5528,-4.4915,-4.5008,-4.5212,-4.4841,-4.4748,-4.4896,-4.5509,-4.5194,-4.4748,-4.4748,-4.5212,-4.5584,-4.5342,-4.5955,-4.642,-4.6197,-4.6141,-4.642,-4.7218,-4.6178,-4.5082,-4.4451,-4.4395,-4.4283,-4.4023,-4.4005,-4.4005,-4.4005,-4.4005,-4.4005,-4.4005,-4.4005,-4.4005,-4.4005,-4.4005,-4.4005,-4.4005,-4.4005,-4.4005,-4.4005,-4.4005,-4.4005,-4.4005,-4.4005,-4.3777,-2.1432,0.0,0.0,0.0,0.0,0.0,0.0,0.0,0.0,0.0,0.0,0.0,0.0,0.0,0.0,0.0,0.0,0.0,0.0,0.0,0.0,0.0,0.0,0.0,0.0,0.0,0.0,0.0,0.0,0.0,0.0,-4.2374,-4.2385,-4.2385,-4.2947,-4.3445,-4.3849,-4.3559,-4.3615,-4.4026,-4.3688,-4.3707,-4.4026,-4.4364,-4.4515,-4.4515,-4.4515,-4.4515,-4.4515,-4.4515,-4.4515,-4.4515,-4.4515,-4.4515,-4.4571,-4.504,-4.52,-4.5171,-4.5084,-4.5013,-4.4878,-4.4284,-4.4036,-4.4005,-4.4005,-4.4376,-4.4674,-4.4153,-4.4376,-4.4655,-4.4135,-4.4005,-4.4135,-4.4655,-4.4376,-4.4005,-4.4005,-4.4413,-4.4785,-4.4785,-4.5454,-4.6011,-4.6011,-4.6011,-4.629,-4.7107,-4.6122,-4.5101,-4.4581,-4.4209,-4.4005,-4.4005,-4.4005,-4.4005,-4.4005,-4.4005,-4.4005,-4.4005,-4.4005,-4.4005,-4.4005,-4.4005,-4.4005,-4.4005,-4.4005,-4.4005,-4.4005,-4.4005,-4.4005,-4.4005,-4.4005,-4.3777,0.0,0.0,0.0,0.0,0.0,0.0,0.0,0.0,0.0,0.0,0.0,0.0,0.0,0.0,0.0,0.0,0.0,0.0,0.0,0.0,0.0,0.0,0.0,0.0,0.0,0.0,0.0,0.0,0.0,0.0,0.0,-4.1479,-4.1479,-4.1479,-4.1622,-4.2052,-4.2866,-4.2212,-4.2313,-4.3163,-4.2366,-4.2431,-4.32,-4.4026,-4.4439,-4.4515,-4.4515,-4.4515,-4.4515,-4.4515,-4.4515,-4.4515,-4.4515,-4.4515,-4.4515,-4.4515,-4.4458,-4.4411,-4.4411,-4.4314,-4.4214,-4.4184,-4.4104,-4.4005,-4.4005,-4.4005,-4.4005,-4.4005,-4.4005,-4.4005,-4.4005,-4.4005,-4.4005,-4.4005,-4.4005,-4.4005,-4.4005,-4.4005,-4.4005,-4.4005,-4.4692,-4.5287,-4.5287,-4.5361,-4.5621,-4.629,-4.5769,-4.5268,-4.5194,-4.4488,-4.4005,-4.4005,-4.4005,-4.4005,-4.4005,-4.4005,-4.4005,-4.4005,-4.4005,-4.4005,-4.4005,-4.4005,-4.4005,-4.4005,-4.4005,-4.4005,-4.4005,-4.4005,-4.4005,-4.4005,-4.4005,-4.3777,0.0,0.0,0.0,0.0,0.0,0.0,0.0,0.0,0.0,0.0,0.0,0.0,0.0,0.0,0.0,0.0,0.0,0.0,0.0,0.0,0.0,0.0,0.0,0.0,0.0,0.0,0.0,0.0,0.0,0.0,-4.0661,-4.0661,-4.0661,-4.0661,-4.1285,-4.1752,-4.1977,-4.1819,-4.1922,0.0,-4.2013,-4.2058,-4.2318,-4.3182,-4.3895,-4.4515,-4.4515,-4.4515,-4.4515,-4.4515,-4.4515,-4.4515,-4.4515,-4.4515,-4.4515,-4.4515,-4.4487,-4.4487,-4.4411,-4.4344,-4.4255,-4.4214,-4.4104,-4.4005,-4.4005,-4.4005,-4.4005,-4.4005,-4.4005,-4.4005,-4.4005,-4.4005,-4.4005,-4.4005,-4.4005,-4.4005,-4.4005,-4.4005,-4.4005,-4.4005,-4.4692,-4.5287,-4.5287,-4.5807,-4.6085,-4.5621,-4.5398,-4.5045,-4.4376,-4.4116,-4.4005,-4.4005,-4.4005,-4.4005,-4.4005,-4.4005,-4.4005,-4.4005,-4.4005,-4.4005,-4.4005,-4.4005,-4.4005,-4.4005,-4.4005,-4.4005,-4.4005,-4.4005,-4.4005,-4.4005,-4.4005,-4.3777,0.0,0.0,0.0,0.0,0.0,0.0,0.0,0.0,0.0,0.0,0.0,0.0,0.0,0.0,0.0,0.0,0.0,0.0,0.0,0.0,0.0,0.0,0.0,0.0,0.0,0.0,0.0,0.0,0.0,-3.9602,-3.9212,-3.9194,-3.9194,-3.9194,-3.9602,-4.0254,-4.1139,-4.0701,-4.0756,-4.1258,-4.0884,-4.0937,-4.1402,-4.2273,-4.2919,-4.3351,-4.3745,-4.3933,-4.397,-4.4346,-4.4515,-4.4515,-4.4515,-4.4515,-4.4515,-4.4515,-4.4515,-4.4515,-4.4458,-4.4373,-4.4285,-4.4274,-4.4135,-4.4005,-4.4005,-4.4005,-4.4005,-4.4005,-4.4005,-4.4005,-4.4005,-4.4005,-4.4005,-4.4005,-4.4005,-4.4005,-4.4005,-4.4005,-4.4005,-4.4005,-4.4376,-4.4674,-4.4674,-4.5026,-4.5157,-4.4729,-4.4674,-4.4506,-4.4061,-4.4005,-4.4005,-4.4005,-4.4005,-4.4005,-4.4005,-4.4005,-4.4005,-4.4005,-4.4005,-4.4005,-4.4005,-4.4005,-4.4005,-4.4005,-4.4005,-4.4005,-4.4005,-4.4005,-4.4005,-4.4005,-4.4005,-4.3777,0.0,0.0,0.0,0.0,0.0,0.0,0.0,0.0,0.0,0.0,0.0,0.0,0.0,0.0,0.0,0.0,0.0,0.0,0.0,0.0,0.0,0.0,0.0,0.0,0.0,0.0,0.0,0.0,0.0,-3.8395,-3.7726,-3.7689,-3.7689,-3.7689,-3.7689,-3.8385,-3.9825,-3.9127,-3.9237,-4.013,-3.9511,-3.9556,-4.0308,-4.1034,-4.1578,-4.2029,-4.2769,-4.3088,-4.3125,-4.3801,-4.4083,-4.4083,-4.4233,-4.4289,-4.4327,-4.4458,-4.4515,-4.4515,-4.4487,-4.4401,-4.4285,-4.4285,-4.4147,-4.4005,-4.4005,-4.4005,-4.4005,-4.4005,-4.4005,-4.4005,-4.4005,-4.4005,-4.4005,-4.4005,-4.4005,-4.4005,-4.4005,-4.4005,-4.4005,-4.4005,-4.4005,-4.4005,-4.4005,-4.4005,-4.4005,-4.4005,-4.4005,-4.4005,-4.4005,-4.4005,-4.4005,-4.4005,-4.4005,-4.4005,-4.4005,-4.4005,-4.4005,-4.4005,-4.4005,-4.4005,-4.4005,-4.4005,-4.4005,-4.4005,-4.4005,-4.4005,-4.4005,-4.4005,-4.4005,-4.4005,-4.4005,-4.3777,0.0,0.0,0.0,0.0,0.0,0.0,0.0,0.0,0.0,0.0,0.0,0.0,0.0,0.0,0.0,0.0,0.0,0.0,0.0,0.0,0.0,0.0,0.0,0.0,0.0,0.0,0.0,0.0,-3.7021,-3.6965,-3.6872,-3.6853,-3.6853,-3.6853,-3.6853,-3.6965,-3.7214,-3.7102,-3.7482,-3.8335,-3.8352,-3.8428,-3.854,-3.8726,-3.9971,-4.1991,-4.2104,-4.2187,-4.2187,-4.2273,-4.231,-4.2431,-4.3182,-4.3463,-4.3538,-4.4252,-4.4515,-4.4487,-4.444,-4.4354,-4.4285,-4.4244,-4.4135,-4.4005,-4.4005,-4.4005,-4.4005,-4.4005,-4.4005,-4.4005,-4.4005,-4.4005,-4.4005,-4.4005,-4.4005,-4.4005,-4.4005,-4.4005,-4.4005,-4.4005,-4.4005,-4.4005,-4.4005,-4.4005,-4.4005,-4.4005,-4.4005,-4.4005,-4.4005,-4.4005,-4.4005,-4.4005,-4.4005,-4.4005,-4.4005,-4.4005,-4.4005,-4.4005,-4.4005,-4.4005,-4.4005,-4.4005,-4.4005,-4.4005,-4.4005,-4.4005,-4.4005,-4.4005,-4.4005,-4.4005,-4.4005,-4.3777,0.0,0.0,0.0,0.0,0.0,0.0,0.0,0.0,0.0,0.0,0.0,0.0,0.0,0.0,0.0,0.0,0.0,0.0,0.0,0.0,0.0,0.0,0.0,0.0,0.0,0.0,0.0,0.0,-3.6686,-3.65,-3.6036,-3.6017,-3.6017,-3.6017,-3.6017,-3.624,-3.6686,-3.6686,-3.6898,-3.7277,-3.7405,-3.748,-3.748,-3.7577,-3.8469,-3.999,-4.0929,-4.1342,-4.136,-4.1804,-4.1991,-4.2029,-4.2431,-4.2881,-4.3332,-4.3707,-4.412,-4.4515,-4.4487,-4.4401,-4.4285,-4.4274,-4.4147,-4.4005,-4.4005,-4.4005,-4.4005,-4.4005,-4.4005,-4.4005,-4.4005,-4.4005,-4.4005,-4.4005,-4.4005,-4.4005,-4.4005,-4.4005,-4.4005,-4.4005,-4.4005,-4.4005,-4.4005,-4.4005,-4.4005,-4.4005,-4.4005,-4.4005,-4.4005,-4.4005,-4.4005,-4.4005,-4.4005,-4.4005,-4.4005,-4.4005,-4.4005,-4.4005,-4.4005,-4.4005,-4.4005,-4.4005,-4.4005,-4.4005,-4.4005,-4.4005,-4.4005,-4.4005,-4.4005,-4.4005,-4.4005,-4.366,0.0,0.0,0.0,0.0,0.0,0.0,0.0,0.0,0.0,0.0,0.0,0.0,0.0,0.0,0.0,0.0,0.0,0.0,0.0,0.0,0.0,0.0,0.0,0.0,0.0,0.0,0.0,0.0,-3.6055,-3.5795,-3.52,-3.5163,-3.5163,-3.5163,-3.5163,-3.5442,-3.6055,-3.6303,-3.6415,-3.6415,-3.6522,-3.6614,-3.6595,-3.6733,-3.7117,-3.7774,-3.9239,-3.9858,-3.9915,-4.0741,-4.1079,-4.1116,-4.1548,-4.2093,-4.2693,-4.2881,-4.3351,-4.3886,-4.4111,-4.4083,-4.4053,-4.4229,-4.4177,-4.4036,-4.4005,-4.4005,-4.4005,-4.4005,-4.4005,-4.4005,-4.4005,-4.4005,-4.4005,-4.4005,-4.4005,-4.4005,-4.4005,-4.4005,-4.4005,-4.4005,-4.4005,-4.4005,-4.4005,-4.4005,-4.4005,-4.4005,-4.4005,-4.4005,-4.4005,-4.4005,-4.4005,-4.4005,-4.4005,-4.4005,-4.4005,-4.4005,-4.4005,-4.4005,-4.4005,-4.4005,-4.4005,-4.4005,-4.4005,-4.4005,-4.4005,-4.4005,-4.4005,-4.4005,-4.4005,-4.4005,-4.4005,-4.3627,0.0,0.0,0.0,0.0,0.0,0.0,0.0,0.0,0.0,0.0,0.0,0.0,0.0,0.0,0.0,0.0,0.0,0.0,0.0,0.0,0.0,0.0,0.0,0.0,0.0,0.0,0.0,0.0,-3.4327,-3.4309,-3.4271,-3.4271,-3.4271,-3.4271,-3.4271,-3.429,-3.4327,-3.5218,-3.5653,-3.5653,-3.5736,-3.5745,-3.5787,-3.5912,-3.5991,-3.6066,-3.6911,-3.7286,-3.7343,-3.8169,-3.8488,-3.8657,-4.0234,-4.0891,-4.1022,-4.1792,-4.2085,-4.2235,-4.3006,-4.3259,-4.3362,-4.4002,-4.4184,-4.4184,-4.4036,-4.4005,-4.4005,-4.4005,-4.4005,-4.4005,-4.4005,-4.4005,-4.4005,-4.4005,-4.4005,-4.4005,-4.4005,-4.4005,-4.4005,-4.4005,-4.4005,-4.4005,-4.4005,-4.4005,-4.4005,-4.4005,-4.4005,-4.4005,-4.4005,-4.4005,-4.4005,-4.4005,-4.4005,-4.4005,-4.4005,-4.4005,-4.4005,-4.4005,-4.4005,-4.4005,-4.4005,-4.4005,-4.4005,-4.4005,-4.4005,-4.4005,-4.4005,-4.4005,-4.4005,-4.4005,-4.4005,-4.3777,0.0,0.0,0.0,0.0,0.0,0.0,0.0,0.0,0.0,0.0,0.0,0.0,0.0,0.0,0.0,0.0,0.0,0.0,0.0,0.0,0.0,0.0,0.0,0.0,0.0,0.0,0.0,0.0,0.0,-3.3417,-3.3417,-3.3417,-3.3441,-3.3487,-3.399,-3.4269,-3.4316,-3.4657,-3.4829,-3.4829,-3.4899,-3.4926,-3.4926,-3.503,-3.5071,-3.5071,-3.5371,-3.6104,-3.7117,-3.7399,-3.7831,-3.8357,-3.8957,-3.9858,-4.0835,-4.1116,-4.1567,-4.2029,-4.2321,-4.2762,-4.3212,-4.3388,-4.3767,-4.4184,-4.4036,-4.4005,-4.4005,-4.4005,-4.4005,-4.4005,-4.4005,-4.4005,-4.4005,-4.4005,-4.4005,-4.4005,-4.4005,-4.4005,-4.4005,-4.4005,-4.4005,-4.4005,-4.4005,-4.4005,-4.4005,-4.4005,-4.4005,-4.4005,-4.4005,-4.4005,-4.4005,-4.4005,-4.4005,-4.4005,-4.4005,-4.4005,-4.4005,-4.4005,-4.4005,-4.4005,-4.4005,-4.4005,-4.4005,-4.4005,-4.4005,-4.4005,-4.4005,-4.4005,-4.4005,-4.4005,-4.4005,-4.366,0.0,0.0,0.0,0.0,0.0,0.0,0.0,0.0,0.0,0.0,0.0,0.0,0.0,0.0,0.0,0.0,0.0,0.0,0.0,0.0,0.0,0.0,0.0,0.0,0.0,0.0,0.0,0.0,0.0,0.0,-3.2623,-3.2906,-3.3189,-3.3538,-3.406,-3.434,-3.4386,-3.4147,-3.4166,-3.4431,-3.4233,-3.4255,-3.4539,-3.4561,-3.4602,-3.4602,-3.4602,-3.5221,-3.6273,-3.6573,-3.7005,-3.7549,-3.8094,-3.8976,-4.0009,-4.029,-4.0741,-4.1229,-4.1511,-4.1954,-4.2462,-4.2875,-4.3378,-4.3823,-4.3962,-4.4005,-4.4005,-4.4005,-4.4005,-4.4005,-4.4005,-4.4005,-4.4005,-4.4005,-4.4005,-4.4005,-4.4005,-4.4005,-4.4005,-4.4005,-4.4005,-4.4005,-4.4005,-4.4005,-4.4005,-4.4005,-4.4005,-4.4005,-4.4005,-4.4005,-4.4005,-4.4005,-4.4005,-4.4005,-4.4005,-4.4005,-4.4005,-4.4005,-4.4005,-4.4005,-4.4005,-4.4005,-4.4005,-4.4005,-4.4005,-4.4005,-4.4005,-4.4005,-4.4005,-4.4005,-4.4005,-4.356,0.0,0.0,0.0,0.0,0.0,0.0,0.0,0.0,0.0,0.0,0.0,0.0,0.0,0.0,0.0,0.0,0.0,0.0,0.0,0.0,0.0,0.0,0.0,0.0,0.0,0.0,0.0,0.0,-3.1786,-3.1786,-3.1849,-3.2598,-3.3444,-3.433,-3.4367,-3.4367,-3.4404,-3.3687,-3.3708,-3.4476,-3.3754,-3.3813,-3.4602,-3.4602,-3.4602,-3.4602,-3.4602,-3.4602,-3.4658,-3.5503,-3.5878,-3.6066,-3.7624,-3.8244,-3.8375,-3.9239,-3.9564,-3.9695,-4.0478,-4.0778,-4.1034,-4.2464,-4.2959,-4.3098,-4.372,-4.3949,-4.3968,-4.3968,-4.3968,-4.3968,-4.3968,-4.3986,-4.4005,-4.4005,-4.4005,-4.4005,-4.4005,-4.4005,-4.4005,-4.4005,-4.4005,-4.4005,-4.4005,-4.4005,-4.4005,-4.4005,-4.4005,-4.4005,-4.4005,-4.4005,-4.4005,-4.4005,-4.4005,-4.4005,-4.4005,-4.4005,-4.4005,-4.4005,-4.4005,-4.4005,-4.4005,-4.4005,-4.4005,-4.4005,-4.4005,-4.4005,-4.4005,-4.4005,-4.4005,-4.4005,-4.4005,-4.3542,-1.9807,0.0,0.0,0.0,0.0,0.0,0.0,0.0,0.0,0.0,0.0,0.0,0.0,0.0,0.0,0.0,0.0,0.0,0.0,0.0,0.0,0.0,0.0,0.0,0.0,0.0,0.0,0.0,-3.1001,-3.1019,-3.104,-3.1287,-3.2094,-3.3574,-3.3655,-3.3958,-3.4539,-3.377,-3.3792,-3.4561,-3.3794,-3.3813,-3.4602,-3.4602,-3.4602,-3.4602,-3.4602,-3.4602,-3.462,-3.4864,-3.5334,-3.5935,-3.6385,-3.6911,-3.753,-3.8357,-3.8657,-3.877,-3.9633,-4.0309,-4.0847,-4.1164,-4.167,-4.2165,-4.2244,-4.2667,-4.3132,-4.3132,-4.3132,-4.3132,-4.3132,-4.3559,-4.4005,-4.4005,-4.4005,-4.4005,-4.4005,-4.4005,-4.4005,-4.4005,-4.4005,-4.4005,-4.4005,-4.4005,-4.4005,-4.4005,-4.4005,-4.4005,-4.4005,-4.4005,-4.4005,-4.4005,-4.4005,-4.4005,-4.4005,-4.4005,-4.4005,-4.4005,-4.4005,-4.4005,-4.4005,-4.4005,-4.4005,-4.4005,-4.4005,-4.4005,-4.4005,-4.4005,-4.4005,-4.4005,-4.3693,-4.344,0.0,0.0,0.0,0.0,0.0,0.0,-2.1384,-2.2661,0.0,0.0,0.0,0.0,0.0,0.0,0.0,0.0,0.0,0.0,0.0,0.0,0.0,0.0,0.0,0.0,0.0,-3.0607,-3.0702,-3.0239,-3.0202,-3.0372,-3.0728,-3.0806,-3.1445,-3.2756,-3.2835,-3.3269,-3.4095,-3.2949,-3.2949,-3.4095,-3.2931,-3.278,-3.355,-3.355,-3.355,-3.3569,-3.3944,-3.4095,-3.4132,-3.4451,-3.4902,-3.539,-3.5766,-3.6179,-3.6742,-3.7887,-3.83,-3.8432,-3.9295,-3.9896,-4.0321,-4.0528,-4.0923,-4.1344,-4.1556,-4.1924,-4.237,-4.2705,-4.3039,-4.3225,-4.289,-4.3392,-4.3912,-4.3578,-4.3503,-4.3596,-4.3931,-4.3745,-4.3596,-4.3931,-4.4005,-4.4005,-4.4005,-4.4005,-4.4005,-4.4005,-4.4005,-4.4005,-4.4005,-4.4005,-4.4005,-4.4005,-4.4005,-4.4005,-4.4005,-4.4005,-4.4005,-4.4005,-4.4005,-4.4005,-4.4005,-4.4005,-4.4005,-4.4005,-4.4005,-4.4005,-4.4005,-4.4005,-4.4005,-4.3986,-4.3777,-4.356,0.0,0.0,0.0,0.0,0.0,0.0,-2.1703,-2.2173,-2.2905,0.0,0.0,0.0,0.0,0.0,0.0,0.0,0.0,0.0,0.0,0.0,0.0,0.0,0.0,0.0,-2.9412,-2.9472,-2.9512,-2.9512,-2.9512,-2.9849,-3.0638,-3.0733,-3.1147,-3.1936,-3.1973,-3.2386,-3.325,-3.1692,-3.1692,-3.325,-3.1654,-3.1335,-3.2105,-3.2105,-3.2105,-3.2142,-3.2931,-3.3269,-3.3325,-3.4132,-3.4508,-3.4677,-3.5446,-3.5766,-3.5935,-3.7474,-3.8037,-3.8169,-3.9107,-3.9445,-3.9577,-4.0248,-4.0456,-4.0578,-4.1165,-4.1386,-4.1609,-4.2333,-4.3188,-4.3652,-4.276,-4.3206,-4.3652,-4.2853,-4.2667,-4.289,-4.3689,-4.3299,-4.3039,-4.3838,-4.4005,-4.4005,-4.4005,-4.4005,-4.4005,-4.4005,-4.4005,-4.4005,-4.4005,-4.4005,-4.4005,-4.4005,-4.4005,-4.4005,-4.4005,-4.4005,-4.4005,-4.4005,-4.4005,-4.4005,-4.4005,-4.4005,-4.4005,-4.4005,-4.4005,-4.4005,-4.4005,-4.4005,-4.4005,-4.4005,-4.3955,-4.3744,0.0,0.0,0.0,0.0,0.0,0.0,-2.037,-2.1328,-2.2248,0.0,0.0,0.0,0.0,0.0,0.0,0.0,0.0,0.0,0.0,0.0,0.0,0.0,0.0,0.0,-2.9569,-2.9588,-2.9607,-2.9664,-2.9664,-2.9739,-2.9908,-2.9927,-3.0302,-3.111,-3.1147,-3.1541,-3.2349,-3.1391,-3.1391,-3.2349,-3.1372,-3.1335,-3.2105,-3.2105,-3.2105,-3.2105,-3.2274,-3.2349,-3.2424,-3.3287,-3.402,-3.462,-3.4789,-3.4846,-3.4977,-3.5991,-3.6366,-3.6592,-3.8056,-3.8544,-3.867,-3.9458,-3.9687,-3.9653,-3.9657,-4.0123,-4.0661,-4.081,-4.1906,-4.2705,-4.1237,-4.1943,-4.2835,-4.2017,-4.1832,-4.2054,-4.2853,-4.2909,-4.3039,-4.3838,-4.4005,-4.4005,-4.4005,-4.4005,-4.4005,-4.4005,-4.4005,-4.4005,-4.4005,-4.4005,-4.4005,-4.4005,-4.4005,-4.4005,-4.4005,-4.4005,-4.4005,-4.4005,-4.4005,-4.4005,-4.4005,-4.4005,-4.4005,-4.4005,-4.4005,-4.4005,-4.4005,-4.4005,-4.4005,-4.4005,-4.366,-4.3474,0.0,0.0,0.0,-2.0408,0.0,0.0,0.0,-2.1365,-2.176,-2.2154,0.0,0.0,0.0,0.0,0.0,0.0,0.0,0.0,0.0,0.0,0.0,0.0,0.0,0.0,-2.9588,-2.9626,-2.9664,-2.9701,-2.9701,-2.9701,-2.9701,-2.9701,-2.987,-3.0283,-3.0302,-3.0696,-3.1504,-3.0696,-3.0715,-3.1504,-3.0696,-3.0509,-3.0903,-3.0903,-3.0903,-3.0922,-3.1335,-3.1504,-3.1579,-3.2405,-3.2987,-3.3438,-3.4264,-3.4561,-3.4652,-3.5533,-3.5829,-3.5974,-3.7221,-3.7628,-3.7735,-3.8527,-3.8858,-3.894,-3.9099,-3.9742,-4.0401,-4.0401,-4.1256,-4.1924,-4.0698,-4.1293,-4.1999,-4.1181,-4.0996,-4.1219,-4.2017,-4.2203,-4.2445,-4.3243,-4.3726,-4.4005,-4.4005,-4.4005,-4.4005,-4.4005,-4.4005,-4.4005,-4.4005,-4.4005,-4.4005,-4.4005,-4.4005,-4.4005,-4.4005,-4.4005,-4.4005,-4.4005,-4.4005,-4.4005,-4.4005,-4.4005,-4.4005,-4.4005,-4.4005,-4.4005,-4.4005,-4.4005,-4.4005,-4.4005,-4.3594,-4.3406,0.0,0.0,0.0,0.0,0.0,-2.0558,0.0,0.0,0.0,-2.253,0.0,0.0,0.0,0.0,0.0,0.0,0.0,0.0,0.0,0.0,0.0,0.0,0.0,0.0,0.0,-2.9195,-2.9345,-2.9683,-2.9401,-2.9363,-2.9683,-2.9701,-2.9701,-2.9701,-2.9701,-3.0002,-3.0659,-3.0021,-3.0021,-3.0659,-3.0002,-2.9701,-2.9701,-2.9701,-2.9701,-2.9739,-3.0396,-3.0678,-3.0734,-3.1541,-3.1879,-3.2029,-3.3531,-3.4186,-3.4345,-3.5057,-3.5366,-3.5586,-3.6456,-3.6807,-3.7025,-3.7654,-3.8121,-3.8498,-3.9029,-3.9703,-4.029,-4.0235,-4.0803,-4.1231,-4.0374,-4.0754,-4.1163,-4.0327,-4.0141,-4.0364,-4.1181,-4.1367,-4.1646,-4.2612,-4.3318,-4.3819,-4.3968,-4.4005,-4.4005,-4.4005,-4.4005,-4.4005,-4.4005,-4.4005,-4.4005,-4.4005,-4.4005,-4.4005,-4.4005,-4.4005,-4.4005,-4.4005,-4.4005,-4.4005,-4.4005,-4.4005,-4.4005,-4.4005,-4.4005,-4.4005,-4.4005,-4.4005,-4.4005,-4.4005,-4.3508,-4.3283,0.0,0.0,0.0,0.0,-2.1516,0.0,0.0,0.0,-2.084,-2.0333,0.0,0.0,0.0,0.0,0.0,0.0,0.0,0.0,0.0,0.0,0.0,0.0,0.0,0.0,0.0,-2.7486,-2.8106,-2.9589,-2.8312,-2.8124,-2.9608,-2.9701,-2.9701,-2.9701,-2.9701,-2.9739,-2.9833,-2.9739,-2.9739,-2.9833,-2.9739,-2.9701,-2.9701,-2.9701,-2.9701,-2.9701,-2.9795,-2.9833,-2.9889,-3.0715,-3.1053,-3.1147,-3.2029,-3.2814,-3.3465,-3.3559,-3.3982,-3.4666,-3.5567,-3.631,-3.6926,-3.7025,-3.7652,-3.8545,-3.9239,-3.9642,-3.9815,-3.9639,-4.0183,-4.0562,-3.9537,-3.9881,-4.0308,-3.9454,-3.925,-3.9472,-4.0346,-4.0531,-4.0977,-4.25,-4.2872,-4.315,-4.3875,-4.4005,-4.4005,-4.4005,-4.4005,-4.4005,-4.4005,-4.4005,-4.4005,-4.4005,-4.4005,-4.4005,-4.4005,-4.4005,-4.4005,-4.4005,-4.4005,-4.4005,-4.4005,-4.4005,-4.4005,-4.4005,-4.4005,-4.4005,-4.4005,-4.4005,-4.4005,-4.3974,-4.3212,-4.2885,0.0,0.0,0.0,0.0,0.0,0.0,-2.1304,0.0,-2.0333,0.0,0.0,0.0,0.0,0.0,0.0,0.0,-2.0483,0.0,0.0,0.0,0.0,0.0,0.0,0.0,0.0,0.0,0.0,0.0,-2.8293,-2.8425,-2.9626,-2.9701,-2.9701,-2.9701,-2.9701,-2.9701,-2.9701,-2.9701,-2.9701,-2.9701,-2.9701,-2.9701,-2.9701,-2.9701,-2.9701,-2.9701,-2.9701,-2.9701,-2.972,-3.0058,-3.0189,-3.017,-3.0507,-3.1442,-3.2617,-3.3152,-3.3459,-3.3715,-3.4577,-3.508,-3.5509,-3.6611,-3.7467,-3.8284,-3.9233,-3.9556,-3.9585,-3.935,-3.9619,-3.9864,-3.9258,-3.9361,-3.9547,-3.9194,-3.9101,-3.9194,-3.9565,-4.003,-4.0736,-4.1869,-4.2482,-4.3058,-4.3856,-4.4005,-4.4005,-4.4005,-4.4005,-4.4005,-4.4005,-4.4005,-4.4005,-4.4005,-4.4005,-4.4005,-4.4005,-4.4005,-4.4005,-4.4005,-4.4005,-4.4005,-4.4005,-4.4005,-4.4005,-4.4005,-4.4005,-4.4005,-4.4005,-4.4005,-4.4005,-4.4005,-4.3406,-4.3032,-2.4051,0.0,0.0,0.0,0.0,0.0,0.0,0.0,0.0,0.0,0.0,0.0,0.0,0.0,0.0,0.0,0.0,-2.0477,0.0,0.0,0.0,0.0,0.0,0.0,0.0,0.0,0.0,-2.7687,-2.7575,-2.799,-2.927,-2.9345,-2.9457,-2.9683,-2.9701,-2.9701,-2.9701,-2.9701,-2.9701,-2.9701,-2.9701,-2.9701,-2.9701,-2.9701,-2.9701,-2.9701,-2.9701,-2.9701,-2.9701,-2.9701,-2.9645,-2.9607,-2.9645,-3.0318,-3.1397,-3.2367,-3.2908,-3.3246,-3.3821,-3.4255,-3.4859,-3.6657,-3.7586,-3.8201,-3.9208,-3.9532,-3.9513,-3.9298,-3.935,-3.9452,-3.9183,-3.9101,-3.9101,-3.9101,-3.9101,-3.9101,-3.9101,-3.9602,-4.029,-4.1107,-4.1739,-4.2463,-4.3485,-4.3856,-4.4005,-4.4005,-4.4005,-4.4005,-4.4005,-4.4005,-4.4005,-4.4005,-4.4005,-4.4005,-4.4005,-4.4005,-4.4005,-4.4005,-4.4005,-4.4005,-4.4005,-4.4005,-4.4005,-4.4005,-4.4005,-4.4005,-4.4005,-4.4005,-4.4005,-4.4005,-4.3594,-4.3248,0.0,0.0,0.0,-2.3915,0.0,0.0,0.0,0.0,-2.1985,0.0,0.0,0.0,0.0,0.0,-1.9807,-1.9807,-1.9826,0.0,0.0,0.0,0.0,0.0,0.0,0.0,0.0,0.0,-2.4537,-2.6071,-2.5442,-2.6008,-2.8331,-2.8444,-2.8838,-2.9664,-2.9701,-2.9701,-2.9701,-2.9701,-2.9701,-2.9701,-2.9701,-2.9701,-2.9701,-2.9701,-2.9701,-2.9701,-2.9701,-2.9701,-2.9701,-2.9701,-2.9645,-2.9607,-2.9737,-2.9664,-2.96,-3.0621,-3.2091,-3.3564,-3.3383,-3.4274,-3.5702,-3.7363,-3.8065,-3.8432,-3.9239,-3.9632,-3.9754,-3.9537,-3.9483,-3.9452,-3.9183,-3.9101,-3.9101,-3.9101,-3.9101,-3.9101,-3.9101,-3.912,-3.9398,-4.0271,-4.0457,-4.0977,-4.2575,-4.3485,-4.4005,-4.4005,-4.4005,-4.4005,-4.4005,-4.4005,-4.4005,-4.4005,-4.4005,-4.4005,-4.4005,-4.4005,-4.4005,-4.4005,-4.4005,-4.4005,-4.4005,-4.4005,-4.4005,-4.4005,-4.4005,-4.4005,-4.4005,-4.4005,-4.4005,-4.4005,-4.3594,-4.3406,0.0,0.0,-2.5781,-2.4591,0.0,0.0,0.0,0.0,0.0,0.0,0.0,0.0,0.0,0.0,-1.9807,-1.9807,-1.9807,-1.9832,0.0,0.0,0.0,0.0,0.0,0.0,0.0,0.0,0.0,-2.5103,-2.5461,-2.6217,-2.7542,-2.8107,-2.8538,-2.8838,-2.8857,-2.9119,-2.9683,-2.9138,-2.9138,-2.9701,-2.9701,-2.9701,-2.9683,-2.9101,-2.9157,-2.9664,-2.9101,-2.9176,-2.9701,-2.9701,-2.9645,-2.9607,-2.9608,-2.9608,-2.9777,-3.1335,-3.2108,-3.2542,-3.3556,-3.4232,-3.481,-3.5943,-3.6726,-3.7399,-3.8201,-3.8977,-3.9537,-3.9305,-3.9376,-3.9452,-3.9183,-3.9101,-3.9101,-3.9101,-3.9101,-3.9101,-3.9101,-3.9101,-3.9361,-4.0215,-4.0401,-4.0903,-4.2519,-4.302,-4.3392,-4.3912,-4.4005,-4.4005,-4.4005,-4.4005,-4.4005,-4.4005,-4.4005,-4.4005,-4.4005,-4.4005,-4.4005,-4.4005,-4.4005,-4.4005,-4.4005,-4.4005,-4.4005,-4.4005,-4.4005,-4.4005,-4.4005,-4.4005,-4.4005,-4.4005,-4.386,-4.3508,-2.6505,-2.6672,0.0,-2.5502,-2.5201,0.0,-2.4122,0.0,0.0,0.0,0.0,0.0,0.0,0.0,-1.9913,-2.0226,-2.0044,-1.9868,0.0,-1.9988,-2.003,0.0,0.0,0.0,0.0,0.0,-2.3284,-2.4289,-2.4869,-2.5653,0.0,0.0,-2.8088,-2.8388,-2.8688,-2.9138,-2.9683,-2.9138,-2.9138,-2.9701,-2.9382,-2.9251,-2.9213,-2.8651,-2.8761,-2.9339,-2.8987,-2.9212,-2.9755,-2.9719,-2.9645,-2.9588,-2.9531,-2.9738,-3.0189,-3.1393,-3.2031,-3.253,-3.3964,-3.4549,-3.4736,-3.5312,-3.6036,-3.6835,-3.7652,-3.838,-3.9006,-3.9435,-3.9461,-3.9399,-3.9528,-3.9324,-3.9101,-3.9101,-3.9101,-3.9101,-3.9101,-3.9101,-3.9361,-4.0215,-4.0401,-4.0903,-4.2519,-4.2797,-4.3076,-4.3875,-4.4005,-4.4005,-4.4005,-4.4005,-4.4005,-4.4005,-4.4005,-4.4005,-4.4005,-4.4005,-4.4005,-4.4005,-4.4005,-4.4005,-4.4005,-4.4005,-4.4153,-4.4451,-4.4153,-4.4153,-4.4451,-4.4153,-4.4005,-4.4005,-4.4005,-4.3627]}]]